[[{"header":{"parameterUnit":"m.s-1","parameterCategory":1,"la1":30.6,"la2":28.766,"lo1":-90.7593,"lo2":-88.6598,"dy":0.0162,"dx":0.0183,"nx":116,"ny":114,"refTime":"2024-07-02T12:00:00:Z","depth":0,"parameterNumber":2,"parameterNumberName":"U-component_of_WINDS"},"data":[0.0,0.0,0.0,0.0,0.0,0.0,0.0,0.0,0.0,0.0,0.0,0.0,0.0,0.0,0.0,0.0,0.0,0.0,0.0,0.0,0.0,0.0,0.0,0.0,0.0,0.0,0.0,0.0,0.0,0.0,0.0,0.0,0.0,0.0,0.0,0.0,0.0,0.0,0.0,0.0,0.0,0.0,0.0,0.0,0.0,0.0,0.0,0.0,0.0,0.0,0.0,0.0,0.0,0.0,0.0,0.0,0.0,0.0,0.0,0.0,0.0,0.0,0.0,0.0,0.0,0.0,0.0,0.0,0.0,0.0,0.0,0.0,0.0,0.0,0.0,0.0,0.0,0.0,0.0,0.0,0.0,0.0,0.0,0.0,0.0,0.0,0.0,0.0,0.0,0.0,0.0,0.0,0.0,0.0,0.0,0.0,0.0,0.0,0.0,0.0,0.0,0.0,0.0,0.0,0.0,0.0,0.0,0.0,0.0,0.0,0.0,0.0,0.0,0.0,0.0,0.0,0.0,0.0,0.0,0.0,0.0,0.0,0.0,0.0,0.0,0.0,0.0,0.0,0.0,0.0,0.0,0.0,0.0,0.0,0.0,0.0,0.0,0.0,0.0,0.0,0.0,0.0,0.0,0.0,0.0,0.0,0.0,0.0,0.0,0.0,0.0,0.0,0.0,0.0,0.0,0.0,0.0,0.0,0.0,0.0,0.0,0.0,0.0,0.0,0.0,0.0,0.0,0.0,0.0,0.0,0.0,0.0,0.0,0.0,0.0,0.0,0.0,0.0,0.0,0.0,0.0,0.0,0.0,0.0,0.0,0.0,0.0,0.0,0.0,0.0,0.0,0.0,0.0,0.0,0.0,0.0,0.0,0.0,0.0,0.0,0.0,0.0,0.0,0.0,0.0,0.0,0.0,0.0,0.0,0.0,0.0,0.0,0.0,0.0,0.0,0.0,0.0,0.0,0.0,0.0,0.0,0.0,0.0,0.0,0.0,0.0,0.0,0.0,0.0,0.0,0.0,0.0,0.0,0.0,0.0,0.0,0.0,0.0,0.0,0.0,0.0,0.0,0.0,0.0,0.0,0.0,0.0,0.0,0.0,0.0,0.0,0.0,0.0,0.0,0.0,0.0,0.0,0.0,0.0,0.0,0.0,0.0,0.0,0.0,0.0,0.0,0.0,0.0,0.0,0.0,0.0,0.0,0.0,0.0,0.0,0.0,0.0,0.0,0.0,0.0,0.0,0.0,0.0,0.0,0.0,0.0,0.0,0.0,0.0,0.0,0.0,0.0,0.0,0.0,0.0,0.0,0.0,0.0,0.0,0.0,0.0,0.0,0.0,0.0,0.0,0.0,0.0,0.0,0.0,0.0,0.0,0.0,0.0,0.0,0.0,0.0,0.0,0.0,0.0,0.0,0.0,0.0,0.0,0.0,0.0,0.0,0.0,0.0,0.0,0.0,0.0,0.0,0.0,0.0,0.0,0.0,0.0,0.0,0.0,0.0,0.0,0.0,0.0,0.0,0.0,0.0,0.0,0.0,0.0,0.0,0.0,0.0,0.0,0.0,0.0,0.0,0.0,0.0,0.0,0.0,0.0,0.0,0.0,0.0,0.0,0.0,0.0,0.0,0.0,0.0,0.0,0.0,0.0,0.0,0.0,0.0,0.0,0.0,0.0,0.0,0.0,0.0,0.0,0.0,0.0,0.0,0.0,0.0,0.0,0.0,0.0,0.0,0.0,0.0,0.0,0.0,0.0,0.0,0.0,0.0,0.0,0.0,0.0,0.0,0.0,0.0,0.0,0.0,0.0,0.0,0.0,0.0,0.0,0.0,0.0,0.0,0.0,0.0,0.0,0.0,0.0,0.0,0.0,0.0,0.0,0.0,0.0,0.0,0.0,0.0,0.0,0.0,0.0,0.0,0.0,0.0,0.0,0.0,0.0,0.0,0.0,0.0,0.0,0.0,0.0,0.0,0.0,0.0,0.0,0.0,0.0,0.0,0.0,0.0,0.0,0.0,0.0,0.0,0.0,0.0,0.0,0.0,0.0,0.0,0.0,0.0,0.0,0.0,0.0,0.0,0.0,0.0,0.0,0.0,0.0,0.0,0.0,0.0,0.0,0.0,0.0,0.0,0.0,0.0,0.0,0.0,0.0,0.0,0.0,0.0,0.0,0.0,0.0,0.0,0.0,0.0,0.0,0.0,0.0,0.0,0.0,0.0,0.0,0.0,0.0,0.0,0.0,0.0,0.0,0.0,0.0,0.0,0.0,0.0,0.0,0.0,0.0,0.0,0.0,0.0,0.0,0.0,0.0,0.0,0.0,0.0,0.0,0.0,0.0,0.0,0.0,0.0,0.0,0.0,0.0,0.0,0.0,0.0,0.0,0.0,0.0,0.0,0.0,0.0,0.0,0.0,0.0,0.0,0.0,0.0,0.0,0.0,0.0,0.0,0.0,0.0,0.0,0.0,0.0,0.0,0.0,0.0,0.0,0.0,0.0,0.0,0.0,0.0,0.0,0.0,0.0,0.0,0.0,0.0,0.0,0.0,0.0,0.0,0.0,0.0,0.0,0.0,0.0,0.0,0.0,0.0,0.0,0.0,0.0,0.0,0.0,0.0,0.0,0.0,0.0,0.0,0.0,0.0,0.0,0.0,0.0,0.0,0.0,0.0,0.0,0.0,0.0,0.0,0.0,0.0,0.0,0.0,0.0,0.0,0.0,0.0,0.0,0.0,0.0,0.0,0.0,0.0,0.0,0.0,0.0,0.0,0.0,0.0,0.0,0.0,0.0,0.0,0.0,0.0,0.0,0.0,0.0,0.0,0.0,0.0,0.0,0.0,0.0,0.0,0.0,0.0,0.0,0.0,0.0,0.0,0.0,0.0,0.0,0.0,0.0,0.0,0.0,0.0,0.0,0.0,0.0,0.0,0.0,0.0,0.0,0.0,0.0,0.0,0.0,0.0,0.0,0.0,0.0,0.0,0.0,0.0,0.0,0.0,0.0,0.0,0.0,0.0,0.0,0.0,0.0,0.0,0.0,0.0,0.0,0.0,0.0,0.0,0.0,0.0,0.0,0.0,0.0,0.0,0.0,0.0,0.0,0.0,0.0,0.0,0.0,0.0,0.0,0.0,0.0,0.0,0.0,0.0,0.0,0.0,0.0,0.0,0.0,0.0,0.0,0.0,0.0,0.0,0.0,0.0,0.0,0.0,0.0,0.0,0.0,0.0,0.0,0.0,0.0,0.0,0.0,0.0,0.0,0.0,0.0,0.0,0.0,0.0,0.0,0.0,0.0,0.0,0.0,0.0,0.0,0.0,0.0,0.0,0.0,0.0,0.0,0.0,0.0,0.0,0.0,0.0,0.0,0.0,0.0,0.0,0.0,0.0,0.0,0.0,0.0,0.0,0.0,0.0,0.0,0.0,0.0,0.0,0.0,0.0,0.0,0.0,0.0,0.0,0.0,0.0,0.0,0.0,0.0,0.0,0.0,0.0,0.0,0.0,0.0,0.0,0.0,0.0,0.0,0.0,0.0,0.0,0.0,0.0,0.0,0.0,0.0,0.0,0.0,0.0,0.0,0.0,0.0,0.0,0.0,0.0,0.0,0.0,0.0,0.0,0.0,0.0,0.0,0.0,0.0,0.0,0.0,0.0,0.0,0.0,0.0,0.0,0.0,0.0,0.0,0.0,0.0,0.0,0.0,0.0,0.0,0.0,0.0,0.0,0.0,0.0,0.0,0.0,0.0,0.0,0.0,0.0,0.0,0.0,0.0,0.0,0.0,0.0,0.0,0.0,0.0,0.0,0.0,0.0,0.0,0.0,0.0,0.0,0.0,0.0,0.0,0.0,0.0,0.0,0.0,0.0,0.0,0.0,0.0,0.0,0.0,0.0,0.0,0.0,0.0,0.0,0.0,0.0,0.0,0.0,0.0,0.0,0.0,0.0,0.0,0.0,0.0,0.0,0.0,0.0,0.0,0.0,0.0,0.0,0.0,0.0,0.0,0.0,0.0,0.0,0.0,0.0,0.0,0.0,0.0,0.0,0.0,0.0,0.0,0.0,0.0,0.0,0.0,0.0,0.0,0.0,0.0,0.0,0.0,0.0,0.0,0.0,0.0,0.0,0.0,0.0,0.0,0.0,0.0,0.0,0.0,0.0,0.0,0.0,0.0,0.0,0.0,0.0,0.0,0.0,0.0,0.0,0.0,0.0,0.0,0.0,0.0,0.0,0.0,0.0,0.0,0.0,0.0,0.0,0.0,0.0,0.0,0.0,0.0,0.0,0.0,0.0,0.0,0.0,0.0,0.0,0.0,0.0,0.0,0.0,0.0,0.0,0.0,0.0,0.0,0.0,0.0,0.0,0.0,0.0,0.0,0.0,0.0,0.0,0.0,0.0,0.0,0.0,0.0,0.0,0.0,0.0,0.0,0.0,0.0,0.0,0.0,0.0,0.0,0.0,0.0,0.0,0.0,0.0,0.0,0.0,0.0,0.0,0.0,0.0,0.0,0.0,0.0,0.0,0.0,0.0,0.0,0.0,0.0,0.0,0.0,0.0,0.0,0.0,0.0,0.0,0.0,0.0,0.0,0.0,0.0,0.0,0.0,0.0,0.0,0.0,0.0,0.0,0.0,0.0,0.0,0.0,0.0,0.0,0.0,0.0,0.0,0.0,0.0,0.0,0.0,0.0,0.0,0.0,0.0,0.0,0.0,0.0,0.0,0.0,0.0,0.0,0.0,0.0,0.0,0.0,0.0,0.0,0.0,0.0,0.0,0.0,0.0,0.0,0.0,0.0,0.0,0.0,0.0,0.0,0.0,0.0,0.0,0.0,0.0,0.0,0.0,0.0,0.0,0.0,0.0,0.0,0.0,0.0,0.0,0.0,0.0,0.0,0.0,0.0,0.0,0.0,0.0,0.0,0.0,0.0,0.0,0.0,0.0,0.0,0.0,0.0,0.0,0.0,0.0,0.0,0.0,0.0,0.0,0.0,0.0,0.0,0.0,0.0,0.0,0.0,0.0,0.0,0.0,0.0,0.0,0.0,0.0,0.0,0.0,0.0,0.0,0.0,0.0,0.0,0.0,0.0,0.0,0.0,0.0,0.0,0.0,0.0,0.0,0.0,0.0,0.0,0.0,0.0,0.0,0.0,0.0,0.0,0.0,0.0,0.0,0.0,0.0,0.0,0.0,0.0,0.0,0.0,0.0,0.0,0.0,0.0,0.0,0.0,0.0,0.0,0.0,0.0,0.0,0.0,0.0,0.0,0.0,0.0,0.0,0.0,0.0,0.0,0.0,0.0,0.0,0.0,0.0,0.0,0.0,0.0,0.0,0.0,0.0,0.0,0.0,0.0,0.0,0.0,0.0,0.0,0.0,0.0,0.0,0.0,0.0,0.0,0.0,0.0,0.0,0.0,0.0,0.0,0.0,0.0,0.0,0.0,0.0,0.0,0.0,0.0,0.0,0.0,0.0,0.0,0.0,0.0,0.0,0.0,0.0,0.0,0.0,0.0,0.0,0.0,0.0,0.0,0.0,0.0,0.0,0.0,0.0,0.0,0.0,0.0,0.0,0.0,0.0,0.0,0.0,0.0,0.0,0.0,0.0,0.0,0.0,0.0,0.0,0.0,0.0,0.0,0.0,0.0,0.0,0.0,0.0,0.0,0.0,0.0,0.0,0.0,0.0,0.0,0.0,0.0,0.0,0.0,0.0,0.0,0.0,0.0,0.0,0.0,0.0,0.0,0.0,0.0,0.0,0.0,0.0,0.0,0.0,0.0,0.0,0.0,0.0,0.0,0.0,0.0,0.0,0.0,0.0,0.0,0.0,0.0,0.0,0.0,0.0,0.0,0.0,0.0,0.0,0.0,0.0,0.0,0.0,0.0,0.0,0.0,0.0,0.0,0.0,0.0,0.0,0.0,0.0,0.0,0.0,0.0,0.0,0.0,0.0,0.0,0.0,0.0,0.0,0.0,0.0,0.0,0.0,0.0,0.0,0.0,0.0,0.0,0.0,0.0,0.0,0.0,0.0,0.0,0.0,0.0,0.0,0.0,0.0,0.0,0.0,0.0,0.0,0.0,0.0,0.0,0.0,0.0,0.0,0.0,-2.2624,0.0,0.0,0.0,0.0,0.0,0.0,0.0,0.0,0.0,0.0,0.0,0.0,0.0,0.0,0.0,0.0,0.0,0.0,0.0,0.0,0.0,0.0,0.0,0.0,-1.4692,-1.5978,-1.5966,-1.6003,-1.6012,-1.6012,0.0,0.0,0.0,0.0,0.0,-1.4623,-1.4591,-1.4804,-1.5253,-1.6115,-1.6751,-1.7115,-1.6652,-1.5796,-1.4626,0.0,0.0,0.0,0.0,0.0,0.0,0.0,0.0,0.0,0.0,0.0,0.0,0.0,0.0,0.0,0.0,0.0,0.0,0.0,0.0,0.0,0.0,0.0,0.0,0.0,0.0,0.0,0.0,0.0,0.0,0.0,0.0,0.0,0.0,0.0,0.0,0.0,0.0,0.0,0.0,0.0,0.0,0.0,0.0,0.0,0.0,0.0,0.0,0.0,0.0,0.0,0.0,0.0,0.0,0.0,0.0,0.0,0.0,0.0,0.0,0.0,0.0,0.0,0.0,0.0,0.0,0.0,0.0,0.0,0.0,0.0,-2.4082,0.0,0.0,0.0,0.0,0.0,0.0,0.0,0.0,0.0,0.0,0.0,0.0,0.0,0.0,0.0,0.0,0.0,0.0,0.0,0.0,0.0,-1.2929,-1.3227,-1.5329,-1.6757,-1.6899,-1.6911,-1.6855,-1.6719,-1.6172,0.0,0.0,0.0,-1.5738,-1.554,-1.6383,-1.7251,-1.8124,-1.9134,-2.0165,-2.1155,-2.1167,-2.0085,-1.8141,-1.7563,0.0,0.0,0.0,0.0,0.0,0.0,0.0,0.0,0.0,0.0,0.0,0.0,0.0,0.0,0.0,0.0,0.0,0.0,0.0,0.0,0.0,0.0,0.0,0.0,0.0,0.0,0.0,0.0,0.0,0.0,0.0,0.0,0.0,0.0,0.0,0.0,0.0,0.0,0.0,0.0,0.0,0.0,0.0,0.0,0.0,0.0,0.0,0.0,0.0,0.0,0.0,0.0,0.0,0.0,0.0,0.0,0.0,0.0,0.0,0.0,0.0,0.0,0.0,0.0,0.0,-3.3301,-3.3002,-3.2367,-3.1378,-2.9035,-2.7229,-2.5947,0.0,0.0,0.0,0.0,0.0,0.0,0.0,0.0,0.0,0.0,0.0,0.0,0.0,0.0,0.0,0.0,0.0,0.0,0.0,0.0,-1.3373,-1.4884,-1.6031,-1.6971,-1.7677,-1.7809,-1.7519,-1.6758,-1.7305,0.0,0.0,-1.6782,-1.7231,-1.6524,-1.7306,-1.8162,-1.9027,-2.0604,-2.2204,-2.3801,-2.3793,-2.403,-2.4291,-2.1361,-1.9941,-1.959,0.0,0.0,0.0,0.0,0.0,0.0,0.0,0.0,0.0,0.0,0.0,0.0,0.0,0.0,0.0,0.0,0.0,0.0,0.0,0.0,0.0,0.0,0.0,0.0,0.0,0.0,0.0,0.0,0.0,0.0,0.0,0.0,0.0,0.0,0.0,0.0,0.0,0.0,0.0,0.0,0.0,-2.1178,-2.2269,0.0,0.0,0.0,0.0,0.0,0.0,0.0,0.0,0.0,0.0,0.0,0.0,0.0,0.0,-3.2891,-3.4394,-3.5273,-3.5527,-3.7031,-3.7754,-3.7715,-3.6762,-3.5898,-3.5048,-3.3768,0.0,-2.8544,-2.7852,0.0,0.0,0.0,0.0,0.0,0.0,0.0,0.0,0.0,0.0,0.0,0.0,0.0,0.0,0.0,0.0,0.0,0.0,0.0,0.0,0.0,-1.7773,-1.9238,-2.0075,-2.0175,-1.9824,-1.8945,-1.8789,-1.8164,-1.6911,-1.7556,-1.779,-1.7439,-1.8691,-2.0471,-2.2734,-2.3968,-2.5232,-2.6483,-2.6484,-2.6717,-2.7047,-2.5585,-2.3867,-2.1953,-2.0312,0.0,0.0,0.0,0.0,0.0,0.0,0.0,0.0,0.0,0.0,0.0,0.0,0.0,0.0,0.0,0.0,0.0,0.0,0.0,0.0,0.0,0.0,0.0,0.0,0.0,0.0,0.0,0.0,0.0,0.0,0.0,0.0,0.0,0.0,0.0,0.0,0.0,0.0,0.0,-2.0171,-2.2949,-2.3352,-2.3871,-2.3896,0.0,0.0,0.0,0.0,0.0,0.0,0.0,0.0,0.0,-3.4414,-3.4394,-3.5215,-3.7031,-3.7324,-3.7715,-3.8203,-3.8965,-3.9295,-3.9205,-3.8686,-3.7957,-3.7065,-3.6569,-3.4949,-3.2564,-3.0775,-2.9006,-2.7351,0.0,0.0,0.0,0.0,0.0,0.0,0.0,0.0,0.0,0.0,0.0,0.0,0.0,0.0,0.0,0.0,0.0,0.0,-1.7518,-1.9414,-2.1035,-2.2108,-2.2226,-2.1855,0.0,-2.0332,-1.9473,-1.8379,-1.8555,-1.8652,-1.8631,-2.0687,-2.2979,-2.5502,-2.6578,-2.7473,-2.8174,-2.8174,-2.831,-2.8566,-2.859,-2.6952,-2.4102,-2.3008,-2.0781,-1.789,0.0,0.0,0.0,0.0,0.0,0.0,0.0,0.0,0.0,0.0,0.0,0.0,0.0,0.0,0.0,0.0,0.0,0.0,0.0,0.0,0.0,0.0,0.0,0.0,0.0,0.0,0.0,0.0,0.0,0.0,0.0,0.0,0.0,0.0,0.0,0.0,0.0,-2.2524,-2.4543,-2.4379,-2.5746,-2.6284,0.0,0.0,0.0,0.0,0.0,0.0,-3.2129,-3.3242,-3.5215,-3.8203,-3.7871,-3.8672,-4.0859,-4.0234,-4.0117,-4.0547,-4.0547,-4.0388,-4.0073,-4.0003,-3.9412,-3.848,-3.8389,-3.7376,-3.5641,-3.3545,-3.1525,-2.9698,-2.9102,-2.8332,0.0,-2.7582,-2.7717,-2.8014,0.0,0.0,0.0,0.0,0.0,0.0,0.0,0.0,0.0,0.0,0.0,-1.664,-1.9946,-2.0485,-2.1268,-2.2896,-2.3103,-2.2754,0.0,0.0,-2.1016,-1.9316,-2.0039,-2.0447,-2.0384,-2.3506,-2.5272,-2.5502,-2.714,-2.8,-2.8118,-2.8118,-2.8513,-2.9269,-2.939,-2.8467,-2.6699,-2.5,-2.3222,-2.1324,-1.88,0.0,0.0,0.0,0.0,0.0,0.0,0.0,0.0,0.0,0.0,0.0,0.0,0.0,0.0,0.0,0.0,0.0,0.0,0.0,0.0,0.0,0.0,0.0,0.0,0.0,0.0,0.0,0.0,0.0,0.0,0.0,0.0,0.0,0.0,0.0,0.0,0.0,0.0,-2.5982,-2.896,0.0,0.0,0.0,0.0,-3.1682,-3.3354,-3.4785,-3.5684,-3.7344,-3.9121,-4.0957,-4.1699,-4.2539,-4.3496,-4.3476,-4.3047,-4.2266,-4.2266,-4.1875,-4.1113,-4.0994,-4.0413,-3.9517,-3.9393,-3.8317,-3.6584,-3.568,-3.3833,-3.1564,-3.1525,-3.0987,-3.0206,-3.0206,-3.0737,-3.1193,0.0,0.0,0.0,-1.0094,-1.0094,-1.0094,-1.0094,-1.1363,-1.2557,-1.3171,-1.599,-1.8594,0.0,-2.205,-2.3515,-2.4666,-2.4804,-2.4434,-2.3574,0.0,-2.2441,-2.1777,-2.1543,-2.2159,-2.3688,-2.4814,-2.6191,-2.7816,-2.8415,-2.9023,-2.9637,-2.9637,-2.9822,-3.0133,-3.018,-2.9561,-2.8369,-2.6754,-2.5078,-2.3299,-2.1196,-1.8981,0.0,0.0,0.0,0.0,0.0,0.0,0.0,0.0,0.0,0.0,0.0,0.0,0.0,0.0,0.0,0.0,0.0,0.0,0.0,0.0,0.0,0.0,0.0,0.0,0.0,0.0,0.0,0.0,0.0,0.0,0.0,0.0,0.0,0.0,0.0,0.0,0.0,-2.8801,-3.0693,0.0,0.0,-3.2445,-3.3764,-3.4464,-3.6108,-3.7745,-3.9277,-4.043,-4.1836,-4.3594,-4.3379,-4.3652,-4.4531,-4.3984,-4.3535,-4.3223,-4.2676,-4.2225,-4.1878,-4.1198,-4.0665,-4.0295,-4.0172,-3.9446,-3.8315,-3.7469,-3.5949,-3.4103,-3.3526,-3.3122,-3.2776,-3.2218,-3.2218,-3.2359,-1.0094,-1.0094,0.0,-1.0094,-1.0094,-1.0094,-1.0094,-1.1646,-1.3114,-1.3976,-1.7125,-1.9961,-2.1699,-2.3398,-2.4746,-2.5625,-2.5703,-2.5449,-2.4883,-2.4062,-2.3594,-2.3535,-2.3274,-2.3842,-2.5428,-2.6246,-2.746,-2.9102,-2.939,-2.9869,-3.0472,-3.0472,-3.05,-3.0529,-3.0567,-3.0264,-2.9652,-2.8379,-2.7009,-2.5522,-2.374,-2.1825,-1.9915,0.0,0.0,0.0,0.0,0.0,0.0,0.0,0.0,0.0,0.0,0.0,0.0,0.0,0.0,0.0,0.0,0.0,0.0,0.0,0.0,0.0,0.0,0.0,0.0,0.0,0.0,0.0,0.0,0.0,0.0,0.0,0.0,0.0,0.0,0.0,-2.9865,-3.0683,-3.2868,-3.415,-3.3789,-3.5656,-3.7191,-3.7897,-3.9279,-4.0656,-4.1947,-4.2768,-4.3767,-4.4961,-4.4726,-4.4844,-4.543,-4.4863,-4.4433,-4.4121,-4.3513,-4.2898,-4.2284,-4.1565,-4.1043,-4.0692,-4.061,-4.0087,-3.9258,-3.8681,-3.745,-3.5834,-3.4968,-3.4641,-3.4564,-3.3987,-3.3776,-3.3724,-1.0094,-1.0094,-1.0094,-1.0094,-1.0094,-1.0113,-1.0133,-1.1646,-1.3701,-1.6224,-1.8179,-2.0605,-2.3965,-2.4394,-2.4785,-2.5625,-2.5703,-2.5703,-2.5703,-2.4883,-2.4394,-2.4394,-2.5122,-2.5525,-2.5472,-2.7865,-2.9102,-2.914,-2.9987,-3.0398,-3.0398,-3.0398,-3.0398,-3.039,-3.0463,-3.0537,-3.0547,-2.9835,-2.9054,-2.8134,-2.6386,-2.5144,-2.4144,0.0,0.0,0.0,0.0,0.0,0.0,0.0,0.0,0.0,0.0,0.0,0.0,0.0,0.0,0.0,0.0,0.0,0.0,0.0,0.0,0.0,0.0,0.0,0.0,0.0,0.0,0.0,0.0,0.0,0.0,0.0,0.0,0.0,-2.8044,-3.0751,-3.2394,-3.1659,-3.5647,-3.7851,-3.6305,-3.9723,-4.2047,-4.2047,-4.2918,-4.3491,-4.3641,-4.4406,-4.4898,-4.5019,-4.5859,-4.6289,-4.6289,-4.6289,-4.5879,-4.5039,-4.4881,-4.3942,-4.2377,-4.2181,-4.1597,-4.0742,-4.0711,-4.0179,-3.9335,-3.9296,-3.8296,-3.6699,-3.5872,-3.5512,-3.5493,-3.5493,-3.5493,-3.5345,-1.0094,-1.0094,-1.0094,-1.0094,-1.0094,-1.0306,-1.0944,-1.2034,-1.3483,-1.5414,-1.8335,-2.084,-2.2422,-2.4238,-2.5449,-2.5684,-2.5659,-2.5658,-2.5703,-2.4786,-2.4245,-2.4245,-2.5601,-2.6653,-2.7268,-2.8472,-2.941,-3.0044,-3.0294,-3.0398,-3.0398,-3.0398,-3.0398,-3.039,-3.0463,-3.0516,-3.0517,-3.0403,-3.0225,-2.9854,-2.8162,-2.6579,-2.5105,0.0,0.0,0.0,0.0,0.0,0.0,0.0,0.0,0.0,0.0,0.0,0.0,0.0,0.0,0.0,0.0,0.0,0.0,0.0,0.0,0.0,0.0,0.0,0.0,0.0,0.0,0.0,0.0,0.0,0.0,0.0,0.0,-3.1292,-3.1514,-3.2674,-3.4064,-3.5624,-3.791,-3.9399,-3.9532,-4.1531,-4.2821,-4.2866,-4.3683,-4.4258,-4.4394,-4.5161,-4.5604,-4.5651,-4.5884,-4.6069,-4.615,-4.615,-4.6033,-4.5796,-4.5117,-4.4518,-4.3985,-4.2646,-4.19,-4.1601,-4.0866,-4.0414,-4.0123,-3.9527,-3.9008,-3.843,-3.6949,-3.6007,-3.5493,-3.5493,-3.5493,-3.5455,-1.0094,-1.0094,-1.0094,-1.0094,-1.0094,-1.0383,-1.1271,-1.2209,-1.3658,-1.6076,-1.8842,-2.1191,-2.2773,-2.4277,-2.5156,-2.5156,-2.5089,-2.4926,-2.4625,-2.4388,-2.454,-2.522,-2.6524,-2.7638,-2.8444,-2.9242,-2.989,-3.0398,-3.0398,-3.0398,-3.0398,-3.0398,-3.0398,-3.039,-3.0463,-3.0524,-3.0559,-3.0661,-3.0723,-3.0694,-2.9719,-2.8485,-2.7086,-2.5785,-2.4227,-2.263,-2.1687,-2.05,-1.9399,-1.9308,0.0,0.0,0.0,0.0,0.0,0.0,0.0,0.0,0.0,0.0,0.0,0.0,0.0,0.0,0.0,0.0,0.0,0.0,0.0,0.0,0.0,0.0,0.0,0.0,-3.2072,-3.3965,-3.4403,-3.4972,-3.5862,-3.7342,-3.9406,-4.0892,-4.1364,-4.3062,-4.4155,-4.4187,-4.4679,-4.5034,-4.514,-4.5608,-4.5862,-4.5899,-4.5899,-4.5955,-4.6108,-4.6045,-4.6045,-4.6089,-4.5494,-4.5015,-4.4568,-4.3105,-4.2251,0.0,-4.0915,-4.0489,-4.045,-3.9988,-3.9392,0.0,0.0,0.0,0.0,0.0,-3.5493,-3.5493,-1.0094,-1.0094,-1.0094,-1.0094,-1.0094,-1.0425,-1.1406,-1.2264,-1.403,-1.7445,-1.9389,-2.1387,-2.3848,-2.4199,-2.4297,-2.4394,-2.4325,-2.401,-2.3383,-2.4129,-2.5193,-2.6621,-2.76,-2.8425,-2.9094,-2.9948,-3.0398,-3.0398,-3.0398,-3.0398,-3.0398,-3.0398,-3.039,-3.0414,-3.0482,-3.0559,-3.0623,-3.0684,-3.0792,-3.0898,-3.0898,-3.0349,-2.9316,-2.7593,-2.6149,-2.4927,-2.3986,-2.2259,-2.042,-2.0245,0.0,0.0,0.0,0.0,0.0,0.0,0.0,0.0,0.0,0.0,0.0,0.0,0.0,0.0,0.0,0.0,0.0,0.0,0.0,0.0,0.0,0.0,0.0,0.0,-3.4147,-3.5663,-3.6699,-3.7294,-3.7606,-3.7546,-4.024,-4.21,-4.21,-4.423,-4.5618,-4.5618,-4.5635,-4.5677,-4.5796,0.0,0.0,0.0,0.0,-4.5935,-4.6069,-4.5952,-4.5952,-4.6064,-4.5802,-4.5293,-4.4589,-4.3567,-4.2681,-4.1912,-4.1027,-4.0585,-4.0489,-4.0489,-3.9508,-3.7892,-3.6949,-3.6565,-3.6488,-3.5776,-3.5493,0.0,-1.0094,-1.0094,-1.0094,-1.0094,-1.0094,-1.0637,-1.2219,-1.2652,-1.4028,-1.7457,-1.886,-2.0273,-2.2187,-2.2969,-2.3633,-2.4336,-2.4286,-2.4402,0.0,0.0,-2.6351,-2.6603,-2.8086,-2.8961,-2.9113,-2.9948,-3.0398,-3.0398,-3.0398,-3.0398,-3.0398,-3.0398,-3.0428,-3.0491,-3.0559,-3.0628,-3.0684,-3.0814,-3.0879,-3.0898,-3.0898,-3.0371,-2.9451,-2.8291,-2.7064,-2.5821,-2.4885,-2.3712,-2.2602,-2.2557,-2.1838,-2.0975,-2.1251,0.0,0.0,0.0,0.0,0.0,0.0,0.0,0.0,0.0,0.0,0.0,0.0,0.0,0.0,0.0,0.0,0.0,0.0,0.0,0.0,-3.3123,-3.5398,-3.7162,-3.7618,-3.8113,-3.8308,-3.7863,-4.0356,-4.21,-4.21,-4.4323,-4.5761,-4.5761,-4.5813,-4.5828,-4.5809,-4.5796,0.0,-4.5661,-4.5661,-4.5713,-4.5856,-4.582,-4.582,-4.5856,0.0,0.0,-4.5346,-4.3794,-4.3008,-4.2797,-4.1931,-4.1143,-4.0489,-4.0489,-3.9508,-3.7853,-3.6334,-3.5738,-3.5718,-3.5565,-3.5493,-3.5493,-1.0094,-1.0094,-1.0094,-1.0094,-1.0094,-1.0694,-1.243,-1.2769,-1.387,-1.6868,-1.8077,-1.9141,-2.0469,-2.0957,-2.1542,-2.2378,-2.2726,0.0,0.0,-2.5523,-2.6371,-2.7198,-2.8429,-2.9294,-2.9737,-3.0179,-3.0398,-3.0398,-3.0398,-3.0398,-3.041,-3.043,-3.0482,-3.0507,-3.0611,-3.0673,-3.0716,-3.0838,-3.0898,-3.0898,-3.0898,-3.0644,-3.0097,-2.8645,-2.7641,-2.6822,-2.5323,-2.4279,-2.3581,-2.3464,-2.2987,-2.2465,-2.2858,-2.2312,-2.1513,0.0,0.0,0.0,0.0,0.0,0.0,0.0,0.0,0.0,0.0,0.0,0.0,0.0,0.0,-2.8596,-2.9737,0.0,-3.4065,-3.4952,-3.6865,-3.831,-3.8469,-3.8679,-3.8929,-3.9129,-4.0902,-4.2351,-4.2981,-4.4723,-4.5815,-4.5859,-4.5881,-4.5862,-4.5809,-4.5796,-4.5733,-4.5603,-4.5586,-4.5665,-4.5796,-4.5733,-4.5733,-4.5796,-4.5288,-4.524,-4.5547,-4.4278,-4.3701,-4.3624,-4.2354,-4.1546,-4.1085,-4.0239,-3.9142,-3.7873,-3.6603,-3.5853,-3.5493,-3.5493,-3.5493,-3.5493,-1.0094,-1.0094,-1.0094,-1.0094,-1.0248,-1.0887,-1.2449,-1.2885,-1.3887,-1.6297,-1.7277,-1.8066,-1.8925,-1.9023,-1.9409,0.0,0.0,0.0,0.0,-2.5178,-2.6428,-2.7832,-2.8832,-2.9679,-3.0379,-3.0398,-3.0398,-3.0398,-3.0398,-3.0398,-3.041,-3.0482,-3.0593,-3.0781,-3.0891,-3.0972,-3.0999,-3.1112,-3.1055,-3.0898,-3.0898,-3.0898,-3.0703,-2.8831,-2.7993,-2.7544,-2.5569,-2.4495,-2.3987,-2.3806,-2.3574,-2.3428,-2.3871,-2.3603,-2.3175,-2.3441,-2.2665,0.0,0.0,0.0,0.0,0.0,0.0,0.0,0.0,0.0,-2.7317,-2.8588,-2.9822,-3.1062,-3.2476,-3.4251,-3.5753,-3.6701,-3.8097,-3.9067,-3.93,-3.9278,-3.9626,-4.0607,-4.1531,-4.2601,-4.3874,-4.5104,-4.5859,-4.5924,-4.5932,-4.59,-4.582,-4.5822,-4.5733,-4.5603,-4.5586,-4.5648,-4.5761,-4.5648,-4.5648,-4.5761,-4.5494,-4.5432,-4.5566,-4.4701,-4.4201,-4.397,-4.2277,-4.1546,-4.1431,-3.9912,-3.8796,-3.7911,-3.7046,-3.6219,-3.5493,-3.5493,-3.5493,-3.5493,-1.0094,-1.0094,-1.0094,-1.0094,-1.0733,-1.1584,-1.2546,-1.3367,-1.4525,-1.6356,-1.6749,-1.7148,-1.7979,-1.8055,-1.8676,-2.0191,0.0,0.0,-2.41,-2.6294,-2.7698,-2.789,-2.941,-3.0302,-3.0398,-3.0398,-3.0398,-3.0398,-3.0398,-3.0398,-3.041,-3.0482,-3.0944,-3.1754,-3.1828,-3.1923,-3.2031,-3.2051,-3.1601,-3.0898,-3.0898,-3.0898,-3.0703,-2.8873,-2.8028,-2.7559,-2.5717,-2.462,-2.3988,-2.3969,-2.393,-2.393,-2.3988,-2.4155,-2.4195,-2.3648,0.0,-2.3283,-2.3465,-2.4052,-2.4924,-2.6246,-2.6576,-2.7537,0.0,0.0,-3.1137,-3.2991,-3.3191,-3.326,-3.4117,-3.4829,-3.5802,-3.7271,-3.8374,-3.9354,-4.0059,-4.0157,-4.057,-4.1763,-4.2014,-4.2601,-4.3874,-4.5149,-4.5944,-4.6075,-4.608,-4.6027,-4.5909,-4.5825,-4.5733,-4.5603,-4.5586,-4.5603,-4.5618,-4.5603,-4.5603,-4.5618,-4.4814,-4.4855,-4.5566,-4.4701,-4.3912,-4.3143,-4.1393,-4.0642,-4.0566,-3.9662,-3.8796,-3.7911,-3.7046,-3.6219,-3.5493,-3.5493,-3.5493,-3.5493,-1.0094,-1.007,-1.0215,-1.0767,-1.1156,-1.1848,-1.3195,-1.3748,-1.4447,-1.5671,-1.5908,-1.6074,-1.6404,-1.7281,-1.8107,-1.8797,-2.1635,-2.3372,-2.334,-2.5736,-2.7371,-2.7871,-2.9025,-2.989,-3.0379,-3.0398,-3.0398,-3.0398,-3.0398,-3.0417,-3.0462,-3.0521,-3.0794,-3.1196,-3.1228,-3.1267,-3.1317,-3.1298,-3.1086,-3.0772,-3.0772,-3.0836,-3.0703,-2.8924,-2.8162,-2.778,-2.5815,-2.4877,0.0,0.0,-2.4468,-2.4465,-2.4554,-2.4268,-2.3982,-2.4276,-2.4325,0.0,-2.6071,-2.7089,-2.784,0.0,-2.9768,-3.1265,-3.1858,-3.2302,-3.2915,-3.4065,-3.4202,-3.4269,-3.5013,-3.5849,-3.6781,0.0,-3.9004,-4.0218,-4.1544,-4.1033,-4.1184,-4.2905,-4.2237,-4.2355,-4.4233,-4.49,-4.5482,-4.6161,-4.6147,-4.6039,-4.5907,-4.5836,-4.5733,-4.5603,-4.5586,-4.5586,-4.5586,-4.5586,-4.5586,-4.5586,-4.522,-4.524,-4.5586,-4.522,-4.4335,-4.3028,-4.1797,-4.0969,-4.0469,-4.0142,-3.9508,-3.8661,-3.7796,-3.6949,-3.6142,-3.568,-3.5493,-3.5493,-1.0331,-1.0178,-1.045,-1.181,-1.1858,-1.2195,-1.3684,-1.4152,-1.4581,-1.5218,-1.5362,-1.5391,-1.5409,-1.6845,-1.7801,-1.7799,-2.0877,-2.2793,-2.2793,-2.5197,-2.689,-2.7505,-2.8491,-2.9313,-2.9934,-3.0113,-3.0228,-3.0299,-3.0299,-3.0367,-3.0507,-3.0568,-3.075,-3.1023,-3.1049,-3.1067,-3.1064,-3.1008,-3.0907,-3.0767,-3.0767,-3.0679,-3.0371,-2.8867,-2.8102,-2.7605,-2.5841,-2.513,0.0,0.0,-2.4666,-2.4826,-2.4714,-2.4315,-2.4087,-2.5006,-2.5315,-2.5769,-2.7587,-2.8984,0.0,-3.0309,-3.2414,-3.4079,-3.277,-3.3246,-3.4037,-3.4415,-3.4336,-3.4397,-3.5069,-3.5989,-3.7114,-3.8374,-3.9607,-4.104,-4.2865,-4.201,-4.1763,-4.3276,-4.2258,-4.2197,-4.415,-4.4565,-4.5124,-4.6166,-4.6117,-4.5988,-4.5872,-4.5783,-4.5692,-4.5603,-4.5586,-4.5586,-4.5586,-4.5586,-4.5586,-4.5586,-4.5586,-4.5586,-4.5586,-4.5336,-4.4451,-4.3047,-4.2181,-4.1316,-4.0489,-4.0489,-4.0027,-3.92,-3.8334,-3.7469,-3.6603,-3.5815,-3.5493,-3.5493,-1.0936,-1.0486,-1.0793,-1.3284,-1.303,-1.2798,-1.3756,-1.4675,-1.5277,-1.5296,-1.5362,-1.5409,-1.5397,-1.6841,-1.7794,-1.7794,-2.0877,-2.2793,-2.2793,-2.5197,-2.6621,-2.664,-2.8026,-2.8812,-2.885,-2.9415,-2.9813,-3.0013,-3.0013,-3.0183,-3.0507,-3.0568,-3.1044,-3.1875,-3.1921,-3.1965,-3.1965,-3.1965,-3.1552,-3.0898,-3.0898,-3.0391,-2.9531,-2.8633,-2.773,-2.6808,-2.5842,0.0,0.0,-2.4129,-2.435,-2.4865,-2.4083,-2.435,0.0,-2.5777,-2.6383,0.0,0.0,0.0,-3.0937,-3.2432,-3.388,-3.51,-3.5634,-3.5225,-3.4688,-3.4559,-3.3931,-3.359,-3.4076,-3.4822,-3.6155,-3.8654,-4.0093,-4.158,-4.3658,-4.3095,-4.2481,-4.2521,-4.2085,-4.2232,0.0,-4.4195,-4.5098,-4.605,-4.5981,-4.5872,-4.5822,-4.568,-4.5603,-4.5586,-4.5586,-4.5586,-4.5586,-4.5586,-4.5586,-4.5586,-4.5586,-4.5586,-4.5566,-4.472,-4.3893,-4.3047,-4.2181,-4.1316,-4.0489,-4.0489,-4.0027,-3.92,-3.8334,-3.7469,-3.6603,-3.5815,-3.5493,-3.546,-1.0954,-1.0858,-1.1332,-1.3436,-1.3479,-1.3583,-1.4666,-1.5101,-1.5324,-1.5362,-1.5894,0.0,0.0,0.0,0.0,0.0,-2.0635,-2.1947,-2.1947,-2.3812,-2.5129,-2.5532,-2.6581,-2.7594,-2.8578,-2.8924,-2.9402,-2.9999,-3.0182,-3.0372,-3.0561,-3.0594,-3.0829,-3.123,-3.1179,-3.1145,-3.1123,-3.109,-3.1281,-3.153,-3.0417,-3.0171,-3.0234,-2.8203,-2.7245,-2.6772,0.0,0.0,0.0,-2.3448,-2.3688,-2.4369,-2.4081,0.0,0.0,-2.5296,-2.6114,-2.7184,-2.9391,0.0,-3.2324,-3.3921,-3.5214,-3.5959,-3.5332,-3.5146,-3.4866,-3.3964,-3.34,-3.3287,-3.3943,-3.4812,-3.6323,-3.9002,-4.0511,-4.2165,-4.4417,-4.3954,-4.3461,-4.3675,-4.3073,0.0,0.0,0.0,0.0,-4.6026,-4.5938,-4.582,-4.5809,-4.568,-4.5586,-4.5586,-4.5586,-4.5586,-4.5586,-4.5586,-4.5586,-4.5586,-4.5586,-4.5586,-4.5547,-4.4143,-4.3355,-4.3028,-4.1566,-4.0758,-4.0489,-4.0489,-4.0335,-3.995,-3.8546,-3.7815,-3.7392,-3.6007,-3.5493,-3.546,-1.1367,-1.1429,-1.2007,-1.3872,-1.3853,0.0,0.0,0.0,0.0,0.0,0.0,0.0,0.0,0.0,0.0,0.0,0.0,-2.1504,-2.1504,-2.2831,-2.3957,-2.4651,-2.5118,-2.6097,-2.7634,-2.7732,-2.8208,-2.9103,-2.9283,-2.9476,-2.9711,-2.9711,-2.9787,-2.9938,-2.9845,-2.9815,-2.9793,-2.976,-3.0092,-3.0574,-2.95,-2.9253,-2.9316,-2.7637,-2.6796,0.0,0.0,0.0,-2.407,-2.3124,-2.3379,-2.4082,-2.4015,0.0,0.0,0.0,-2.6841,-2.8466,-3.1109,-3.2632,-3.3789,-3.5257,-3.6359,-3.675,-3.5294,-3.4955,-3.4501,-3.3123,-3.2441,-3.2241,-3.2827,-3.3716,-3.5381,-3.8512,-4.0176,-4.2019,-4.4728,-4.4456,-4.4059,-4.4261,-4.3835,-4.3779,0.0,0.0,0.0,-4.5932,-4.5878,-4.5769,-4.5718,-4.5651,-4.5586,-4.5586,-4.5586,-4.5586,-4.5586,-4.5586,-4.5586,-4.5586,-4.5586,-4.5586,-4.5547,-4.4162,-4.3374,-4.3028,-4.1585,-4.0777,-4.0489,-4.0489,-4.0489,-4.0315,-3.8642,-3.8007,-3.7796,-3.6122,-3.5493,-3.5446,-1.2114,-1.2188,-1.2816,0.0,0.0,0.0,0.0,0.0,0.0,0.0,0.0,0.0,0.0,0.0,0.0,0.0,0.0,0.0,-2.1446,-2.2254,0.0,-2.3928,-2.3785,-2.4454,-2.6091,-2.5989,-2.6439,-2.7489,-2.7502,-2.7717,-2.809,-2.809,-2.814,-2.8215,-2.8215,-2.8215,-2.8215,-2.8215,-2.8271,-2.8359,-2.8262,-2.7754,-2.7051,-2.6973,0.0,0.0,0.0,0.0,0.0,-2.3163,0.0,0.0,0.0,0.0,0.0,0.0,0.0,-3.0662,-3.2287,-3.3881,-3.5323,-3.6447,-3.7248,-3.7327,-3.5654,-3.4653,-3.3609,-3.2029,-3.1026,-3.0503,-3.0639,0.0,-3.3571,-3.7287,-3.9221,-4.1359,-4.4603,-4.4652,-4.4374,0.0,0.0,0.0,0.0,0.0,0.0,-4.5769,0.0,-4.5733,-4.5603,-4.5586,-4.5586,-4.5586,-4.5586,-4.5586,-4.5586,-4.5586,-4.5586,-4.5586,-4.5586,-4.5566,-4.549,-4.4624,-4.3797,-4.2989,-4.2104,-4.1258,-4.0489,-4.0489,-4.0489,-4.0315,-3.8642,-3.8007,-3.7796,-3.6122,-3.5493,-3.5432,0.0,0.0,0.0,0.0,0.0,0.0,0.0,0.0,0.0,0.0,0.0,0.0,0.0,0.0,0.0,0.0,0.0,0.0,-2.0619,-2.1389,0.0,0.0,0.0,-2.417,-2.5064,-2.582,-2.6629,-2.7489,-2.7687,-2.7894,-2.809,-2.809,-2.8164,-2.828,-2.828,-2.828,-2.828,-2.828,-2.8652,-2.916,0.0,-2.7598,-2.7832,0.0,0.0,0.0,0.0,0.0,0.0,0.0,0.0,0.0,0.0,-2.7774,-2.8883,0.0,0.0,-3.1942,-3.4172,-3.5202,-3.5917,-3.6844,-3.6514,-3.5679,-3.4731,-3.3419,-3.196,-3.0334,-2.9408,-2.8905,-2.8919,0.0,0.0,-3.6123,-3.958,0.0,-4.4268,-4.4954,0.0,-4.5259,0.0,-4.5293,-4.5324,-4.5486,0.0,0.0,-4.5651,-4.5635,-4.5603,-4.5586,-4.5586,-4.5586,-4.5586,-4.5586,-4.5586,-4.5586,-4.5586,-4.5586,-4.5586,-4.5259,-4.4605,-4.3778,-4.2951,-4.2085,-4.12,-4.07,-4.0489,-4.0489,-4.0489,-4.0315,-3.8642,-3.8007,-3.7796,-3.6122,-3.5493,-3.5432,0.0,0.0,0.0,0.0,0.0,0.0,0.0,0.0,0.0,0.0,0.0,0.0,0.0,0.0,0.0,0.0,0.0,0.0,0.0,-2.0716,0.0,-2.1331,-2.1924,-2.2762,-2.3833,-2.4454,-2.5168,-2.5998,0.0,0.0,-2.6967,-2.6967,-2.7027,-2.7168,-2.7168,-2.7168,-2.7168,-2.7168,0.0,0.0,0.0,0.0,0.0,0.0,0.0,0.0,0.0,0.0,0.0,0.0,0.0,-2.793,-2.8855,-2.9638,-3.0526,-3.2022,0.0,-3.3862,-3.557,-3.6238,-3.6531,-3.6798,-3.6208,-3.513,-3.3488,-3.2296,-3.0923,-2.8829,-2.8073,0.0,-2.7586,-2.9805,0.0,0.0,0.0,0.0,-4.3991,-4.5047,-4.5586,0.0,-4.5586,0.0,-4.5586,-4.5586,-4.5586,0.0,-4.5586,-4.5586,-4.5586,-4.5586,-4.5586,-4.5586,-4.5586,-4.5586,-4.5586,-4.5586,-4.5586,-4.5586,-4.5586,-4.5143,-4.4259,-4.347,-4.2624,-4.1758,0.0,-4.0489,-4.0489,-4.0489,-4.0489,-4.0315,-3.8642,-3.8007,-3.7796,-3.6122,-3.5493,-3.5432,0.0,0.0,0.0,0.0,0.0,0.0,0.0,0.0,0.0,-1.5942,0.0,0.0,0.0,0.0,0.0,0.0,0.0,0.0,0.0,0.0,-2.0576,-2.1268,-2.0765,-2.1196,-2.2774,-2.2908,-2.3398,0.0,0.0,0.0,0.0,0.0,0.0,0.0,0.0,0.0,0.0,0.0,0.0,0.0,0.0,0.0,0.0,0.0,0.0,0.0,0.0,0.0,0.0,0.0,-2.8577,-2.8851,-3.033,-3.1278,-3.2173,-3.3697,-3.48,-3.5723,-3.6532,-3.688,-3.6882,-3.6416,-3.5963,-3.4951,-3.2323,-3.1341,-3.0242,-2.7502,0.0,-2.6765,-2.6389,-2.8129,-3.0705,-3.3978,0.0,-4.0296,-4.3662,-4.4874,-4.547,-4.5586,-4.5586,-4.5586,-4.5586,-4.5586,-4.5586,-4.5586,-4.5586,-4.5586,-4.5586,-4.5586,-4.5586,-4.5586,-4.5586,-4.5586,-4.5586,-4.5586,-4.5586,-4.5586,-4.547,-4.497,-4.4105,-4.3297,-4.245,-4.1585,0.0,0.0,-4.0489,-4.0489,-4.0489,-4.0315,-3.8642,-3.8007,-3.7796,-3.6122,-3.5493,-3.5432,0.0,0.0,0.0,0.0,0.0,0.0,0.0,0.0,0.0,0.0,0.0,0.0,0.0,0.0,0.0,0.0,0.0,0.0,0.0,0.0,0.0,-2.0251,-2.0915,-2.1773,-2.2774,0.0,0.0,0.0,0.0,0.0,0.0,0.0,0.0,0.0,0.0,0.0,0.0,0.0,0.0,0.0,0.0,0.0,0.0,0.0,0.0,0.0,0.0,0.0,-2.6578,-2.8684,-3.0187,-3.1284,-3.2029,-3.3227,-3.4578,-3.5569,-3.5865,-3.6024,-3.6877,-3.6499,-3.5854,-3.5783,-3.505,-3.3942,-3.2127,-3.075,0.0,0.0,-2.5887,-2.5511,-2.4967,-2.7033,-2.9712,-3.253,0.0,0.0,0.0,0.0,-4.4778,0.0,0.0,0.0,0.0,0.0,0.0,0.0,0.0,0.0,-4.5586,-4.5586,-4.5586,-4.5586,-4.5586,-4.5586,-4.5586,-4.5586,-4.5586,-4.5586,-4.4874,-4.4105,-4.3278,-4.2431,-4.1546,-4.0719,0.0,0.0,-4.0489,-4.0489,-4.0489,-4.0315,-3.8642,-3.8007,-3.7796,-3.6122,-3.5493,-3.5432,0.0,0.0,0.0,0.0,0.0,0.0,0.0,0.0,0.0,0.0,-2.0545,-2.0576,0.0,0.0,0.0,0.0,0.0,0.0,0.0,0.0,0.0,0.0,0.0,0.0,0.0,0.0,0.0,0.0,0.0,0.0,0.0,0.0,0.0,0.0,0.0,0.0,0.0,0.0,0.0,0.0,0.0,0.0,0.0,0.0,0.0,0.0,0.0,0.0,0.0,-2.7836,-2.9248,-3.0748,-3.3099,-3.4367,-3.52,-3.6219,-3.6213,-3.6035,-3.6615,-3.6207,-3.5622,-3.5622,-3.4565,-3.3055,-3.1185,0.0,0.0,0.0,-2.4894,-2.4707,-2.4535,-2.6373,0.0,-3.092,-3.3964,0.0,0.0,0.0,0.0,0.0,0.0,0.0,0.0,0.0,0.0,0.0,0.0,0.0,-4.5586,-4.5586,-4.5586,-4.5586,-4.5586,-4.5586,-4.5586,-4.5586,-4.5586,-4.5586,-4.472,-4.3874,-4.3066,-4.22,-4.1316,-4.0489,0.0,0.0,-4.0489,-4.0489,-4.0489,-4.0315,-3.8642,-3.8007,-3.7796,-3.6122,-3.5493,-3.5432,0.0,0.0,0.0,0.0,0.0,0.0,0.0,-1.8084,-1.9235,-2.1279,-2.2097,-2.2064,-2.0907,-2.0642,0.0,0.0,0.0,0.0,0.0,0.0,0.0,0.0,0.0,0.0,0.0,0.0,0.0,0.0,0.0,0.0,0.0,0.0,0.0,0.0,0.0,0.0,0.0,0.0,0.0,0.0,0.0,0.0,0.0,0.0,0.0,0.0,0.0,0.0,0.0,0.0,-2.7792,-2.9159,-3.2614,-3.4183,-3.4916,-3.5716,-3.5916,-3.5962,-3.6122,-3.5891,-3.5588,-3.5419,-3.4155,-3.2418,-3.0167,-2.8393,0.0,0.0,-2.4228,-2.4339,-2.4528,-2.5781,-2.7538,0.0,-3.2095,-3.5139,0.0,0.0,0.0,0.0,0.0,0.0,0.0,0.0,0.0,0.0,0.0,0.0,0.0,-4.5586,-4.5586,-4.5586,-4.5586,-4.5586,-4.5586,-4.5586,-4.5586,-4.5586,-4.472,-4.3874,-4.3066,-4.22,-4.1316,-4.0489,0.0,0.0,0.0,-4.0489,-4.0489,-4.0315,-3.8642,-3.8007,-3.7796,-3.6122,-3.5493,-3.5432,0.0,0.0,0.0,0.0,0.0,0.0,0.0,-1.8406,-1.9642,-2.2857,-2.281,-2.244,-2.2299,-2.1751,0.0,0.0,0.0,0.0,0.0,0.0,0.0,0.0,0.0,0.0,0.0,0.0,0.0,0.0,0.0,0.0,0.0,0.0,0.0,0.0,0.0,0.0,0.0,0.0,0.0,0.0,0.0,0.0,0.0,0.0,0.0,0.0,0.0,0.0,0.0,0.0,0.0,-2.7378,-2.903,-3.1568,-3.3854,-3.3592,0.0,0.0,-3.5501,-3.5497,-3.5453,-3.4776,-3.3802,-3.2296,-2.9516,0.0,0.0,-2.4608,-2.4358,-2.4526,-2.4731,-2.5004,-2.6345,-2.9805,0.0,-3.3406,0.0,0.0,0.0,0.0,0.0,0.0,0.0,0.0,0.0,0.0,0.0,0.0,0.0,-4.5586,-4.5586,-4.5586,-4.5586,-4.5586,-4.5586,-4.5586,-4.5586,-4.5586,-4.472,-4.3874,-4.3066,-4.22,-4.1316,-4.0489,0.0,0.0,0.0,-4.0489,-4.0489,-4.0315,-3.8642,-3.8007,-3.7796,-3.6122,-3.5493,-3.5446,0.0,0.0,0.0,0.0,0.0,0.0,0.0,-1.8244,-1.9453,-2.2776,-2.314,-2.3089,-2.3095,-2.2602,-2.1754,0.0,0.0,0.0,0.0,0.0,0.0,0.0,0.0,0.0,0.0,0.0,0.0,0.0,0.0,0.0,0.0,0.0,0.0,0.0,0.0,0.0,0.0,0.0,0.0,0.0,0.0,0.0,0.0,0.0,0.0,0.0,0.0,0.0,0.0,0.0,0.0,0.0,-2.6696,-2.8223,0.0,0.0,-3.2816,-3.3879,-3.461,-3.5205,-3.5436,-3.4675,-3.3199,-3.1376,-2.926,0.0,-2.5841,-2.4616,-2.4444,-2.4591,-2.4877,-2.4962,-2.5669,-2.7772,-2.8211,-2.997,-3.4782,0.0,0.0,0.0,0.0,0.0,0.0,0.0,0.0,0.0,0.0,0.0,0.0,0.0,-4.5586,-4.5586,-4.5586,-4.5586,-4.5586,-4.5586,-4.5586,-4.5566,-4.422,-4.3412,-4.3047,-4.1643,-4.0835,0.0,0.0,0.0,0.0,-4.0489,-4.0489,-4.0315,-3.8642,-3.8007,-3.7796,-3.6122,-3.5493,-3.546,0.0,0.0,0.0,0.0,0.0,0.0,-1.7715,-1.8096,-1.9213,-2.2296,-2.2967,-2.3156,-2.3201,-2.2726,-2.1947,-2.0754,0.0,0.0,0.0,0.0,0.0,0.0,0.0,0.0,0.0,0.0,0.0,0.0,0.0,0.0,0.0,0.0,0.0,0.0,0.0,0.0,0.0,0.0,0.0,0.0,0.0,0.0,0.0,0.0,0.0,0.0,0.0,0.0,0.0,0.0,0.0,0.0,0.0,-2.56,-2.6747,0.0,-3.0964,-3.2073,-3.3206,-3.4218,-3.4776,-3.4015,-3.2428,-3.0583,0.0,-2.703,-2.5505,-2.4671,-2.4591,-2.4723,-2.4962,-2.5046,-2.5409,-2.6427,-2.6833,-2.8389,-3.2327,-3.3887,0.0,0.0,0.0,0.0,0.0,0.0,0.0,0.0,0.0,0.0,0.0,0.0,-4.5586,-4.5586,-4.5586,-4.5586,-4.5586,-4.5586,-4.5586,-4.5586,-4.4393,-4.3585,-4.3066,-4.1835,-4.0989,0.0,0.0,0.0,0.0,-4.0489,-4.0489,-4.0354,-3.8931,-3.8238,-3.7834,-3.6392,-3.5699,-3.546,0.0,0.0,0.0,0.0,0.0,0.0,0.0,-1.8096,-1.9037,-2.1662,-2.2182,-2.2351,-2.2494,-2.1905,-2.1504,-2.1485,0.0,0.0,0.0,0.0,0.0,0.0,0.0,0.0,0.0,0.0,0.0,0.0,0.0,0.0,0.0,0.0,0.0,0.0,0.0,0.0,0.0,0.0,0.0,0.0,0.0,0.0,0.0,0.0,0.0,0.0,0.0,0.0,0.0,0.0,0.0,0.0,0.0,-2.3994,-2.4293,-2.704,-2.9204,-3.0802,-3.1142,-3.2307,-3.3254,-3.2493,-3.147,-3.0092,-2.8163,-2.6997,-2.5933,-2.476,-2.4762,-2.4998,-2.501,-2.5163,-2.5572,-2.6467,-2.7772,-2.9646,-3.25,-3.4852,0.0,0.0,0.0,0.0,0.0,0.0,0.0,0.0,0.0,0.0,0.0,0.0,-4.5586,-4.5586,-4.5586,-4.5586,-4.5586,-4.5586,-4.5586,-4.5586,-4.5566,-4.4701,-4.3104,-4.3085,0.0,0.0,0.0,0.0,0.0,-4.0489,-4.0489,-4.0412,-3.9604,-3.8757,-3.7892,-3.7007,-3.618,-3.5493,0.0,0.0,0.0,0.0,0.0,0.0,0.0,-1.6553,-1.7497,-2.0034,-2.057,-2.1189,-2.2383,-2.1905,-2.1504,-2.1504,0.0,0.0,0.0,0.0,0.0,0.0,0.0,0.0,0.0,0.0,0.0,0.0,0.0,0.0,0.0,0.0,0.0,0.0,0.0,0.0,0.0,0.0,0.0,0.0,0.0,0.0,0.0,0.0,0.0,0.0,0.0,0.0,0.0,0.0,0.0,0.0,0.0,0.0,0.0,-2.4777,-2.6653,-2.837,-2.8778,-3.0006,-3.0874,-2.9826,-2.8939,-2.7955,-2.673,-2.5958,-2.5332,-2.481,-2.4864,-2.5034,-2.5173,-2.5264,-2.5967,-2.7986,-2.8568,0.0,0.0,0.0,0.0,0.0,0.0,0.0,0.0,0.0,0.0,0.0,0.0,0.0,0.0,0.0,0.0,-4.5586,-4.5586,-4.5495,-4.5263,-4.5495,-4.5362,-4.49,-4.4768,-4.3998,-4.268,0.0,0.0,0.0,0.0,0.0,0.0,-4.0489,-4.0489,-4.0354,-3.895,-3.8238,-3.7834,-3.6411,-3.5718,-3.5493,0.0,0.0,0.0,0.0,0.0,0.0,0.0,-1.5777,-1.6643,-1.8908,-1.9371,-2.0144,-2.1923,-2.1472,-2.1293,-2.1947,0.0,0.0,0.0,0.0,0.0,0.0,0.0,0.0,0.0,0.0,0.0,0.0,0.0,0.0,0.0,0.0,0.0,0.0,0.0,0.0,0.0,0.0,0.0,0.0,0.0,0.0,-2.533,0.0,0.0,0.0,0.0,0.0,0.0,0.0,0.0,0.0,0.0,0.0,0.0,0.0,-2.4546,-2.5928,-2.6742,-2.798,-2.8817,-2.8061,-2.75,-2.6954,-2.6177,-2.5724,-2.5317,-2.4946,-2.5005,-2.5152,-2.5274,-2.5303,-2.5822,-2.7409,-2.8111,0.0,0.0,0.0,0.0,0.0,0.0,0.0,0.0,0.0,0.0,0.0,0.0,0.0,0.0,0.0,0.0,-4.5222,-4.5203,-4.5118,-4.4919,-4.5118,-4.5011,-4.4606,-4.4135,-4.3423,-4.2463,0.0,0.0,0.0,0.0,0.0,0.0,-4.0489,-4.0315,-3.9931,-3.8892,-3.8084,-3.7373,-3.6353,-3.5757,-3.5493,0.0,0.0,0.0,0.0,0.0,0.0,0.0,0.0,0.0,0.0,-1.851,-1.9267,-2.1182,-2.0746,-2.0946,0.0,0.0,0.0,0.0,0.0,0.0,0.0,0.0,0.0,0.0,0.0,0.0,-2.6505,-2.6704,-2.6798,-2.679,0.0,0.0,0.0,0.0,0.0,0.0,0.0,0.0,0.0,0.0,-2.542,0.0,0.0,0.0,0.0,0.0,0.0,0.0,0.0,0.0,0.0,0.0,0.0,0.0,0.0,0.0,0.0,0.0,-2.6136,-2.6951,-2.6913,-2.6904,-2.6748,-2.6202,-2.5987,0.0,-2.5126,-2.5163,-2.5341,-2.5457,-2.5418,-2.5495,-2.5783,0.0,0.0,0.0,0.0,0.0,0.0,0.0,0.0,0.0,0.0,0.0,0.0,0.0,0.0,0.0,0.0,0.0,0.0,-4.4527,-4.4527,-4.4553,-4.4599,-4.4542,-4.4433,-4.37,-4.3,-4.2366,0.0,0.0,0.0,0.0,0.0,0.0,-4.0431,-3.9969,-3.9277,-3.9161,-3.8123,-3.6699,-3.6642,-3.6142,-3.5493,0.0,0.0,0.0,0.0,0.0,0.0,0.0,0.0,0.0,0.0,0.0,-1.8477,-2.0164,-2.0321,0.0,0.0,0.0,0.0,0.0,0.0,0.0,0.0,0.0,0.0,0.0,0.0,0.0,-2.561,-2.7003,-2.735,-2.6772,-2.8217,0.0,0.0,0.0,0.0,0.0,0.0,0.0,0.0,-2.5493,-2.5488,0.0,0.0,0.0,0.0,-2.5383,-2.5135,0.0,0.0,0.0,0.0,0.0,0.0,0.0,0.0,-2.2468,-2.2649,-2.2987,0.0,-2.4594,-2.4217,-2.4441,-2.4774,0.0,-2.5073,-2.5197,-2.5037,-2.5163,-2.5707,-2.7044,-2.6736,-2.7351,-3.0583,0.0,0.0,0.0,0.0,0.0,0.0,0.0,0.0,0.0,0.0,0.0,0.0,0.0,0.0,0.0,0.0,0.0,0.0,-4.3899,-4.3868,-4.4146,-4.4447,-4.4008,-4.2852,-4.341,-4.2803,0.0,0.0,0.0,0.0,0.0,0.0,0.0,-3.9835,-3.9469,-3.9161,-3.7834,-3.7065,-3.6642,-3.6007,-3.5661,-3.5493,0.0,0.0,0.0,0.0,0.0,0.0,0.0,0.0,0.0,0.0,0.0,0.0,0.0,0.0,0.0,0.0,0.0,0.0,0.0,0.0,0.0,0.0,0.0,0.0,0.0,0.0,0.0,0.0,0.0,-2.7657,0.0,0.0,0.0,0.0,0.0,0.0,0.0,0.0,0.0,0.0,-2.5488,0.0,0.0,0.0,0.0,0.0,-2.5401,-2.5137,0.0,-2.4804,-2.421,-2.3437,0.0,0.0,0.0,0.0,-2.231,-2.2338,-2.2436,-2.3561,-2.4611,-2.4357,-2.4743,-2.5278,-2.5541,-2.5239,-2.493,-2.4986,-2.5163,-2.5707,-2.7063,-2.7236,-2.8063,0.0,0.0,0.0,0.0,0.0,0.0,0.0,0.0,0.0,0.0,0.0,0.0,0.0,0.0,0.0,0.0,0.0,0.0,0.0,0.0,-4.3229,-4.3772,-4.3974,-4.3491,-4.2286,-4.2491,-4.1938,0.0,0.0,0.0,0.0,0.0,0.0,-3.9912,-3.9469,-3.8834,-3.8007,-3.7065,-3.6469,-3.6103,-3.5661,-3.5493,-3.5493,0.0,0.0,0.0,0.0,0.0,0.0,0.0,0.0,0.0,0.0,0.0,0.0,0.0,0.0,0.0,0.0,0.0,0.0,0.0,0.0,0.0,0.0,0.0,0.0,0.0,0.0,0.0,0.0,0.0,0.0,0.0,0.0,-2.7675,0.0,0.0,0.0,0.0,0.0,0.0,0.0,0.0,0.0,0.0,0.0,0.0,0.0,0.0,0.0,0.0,-2.476,-2.41,-2.3277,-2.323,0.0,0.0,0.0,0.0,0.0,-2.279,-2.4427,-2.5859,-2.543,-2.5991,-2.6624,-2.6544,-2.5633,-2.4828,-2.4937,-2.5107,-2.5578,-2.6691,-2.7635,0.0,0.0,0.0,0.0,0.0,0.0,0.0,0.0,0.0,0.0,0.0,0.0,0.0,0.0,0.0,0.0,0.0,0.0,0.0,0.0,0.0,0.0,-4.313,-4.313,-4.2727,-4.1937,-4.1351,-4.0913,-4.0613,-4.0012,0.0,0.0,0.0,0.0,-3.9277,-3.9161,-3.8142,-3.6699,-3.6565,-3.6103,-3.5493,-3.5493,-3.5493,-3.5493,0.0,0.0,0.0,0.0,0.0,0.0,0.0,0.0,0.0,0.0,0.0,0.0,0.0,0.0,0.0,0.0,0.0,0.0,0.0,0.0,0.0,0.0,0.0,0.0,0.0,0.0,0.0,0.0,0.0,0.0,-2.7829,-2.9159,-2.9162,-2.792,0.0,0.0,0.0,0.0,0.0,0.0,0.0,0.0,0.0,0.0,0.0,0.0,0.0,0.0,0.0,-2.4591,-2.4136,-2.3566,-2.33,0.0,0.0,0.0,0.0,0.0,-2.3525,-2.5728,-2.7121,-2.4608,-2.5431,-2.6507,-2.5167,-2.4842,-2.4804,-2.4832,-2.4861,-2.557,-2.7786,-2.907,-3.0499,0.0,0.0,0.0,0.0,0.0,0.0,0.0,0.0,0.0,0.0,0.0,0.0,0.0,0.0,0.0,0.0,0.0,0.0,0.0,0.0,0.0,0.0,-4.1479,-4.1056,-4.0249,-4.0663,-4.0478,-3.9811,-4.0196,-4.0422,0.0,0.0,0.0,-3.9238,-3.8507,-3.7603,-3.6642,-3.5949,-3.5622,-3.5493,-3.5493,-3.5493,-3.5493,0.0,0.0,0.0,0.0,0.0,0.0,0.0,0.0,0.0,0.0,0.0,0.0,0.0,0.0,0.0,0.0,0.0,0.0,0.0,0.0,0.0,0.0,0.0,0.0,0.0,0.0,0.0,0.0,0.0,-2.794,-2.8742,-2.8914,-2.8186,-2.6651,0.0,0.0,0.0,0.0,0.0,-2.5282,0.0,0.0,0.0,0.0,0.0,0.0,0.0,0.0,0.0,0.0,-2.3768,-2.3671,-2.3522,0.0,0.0,0.0,0.0,0.0,-2.342,-2.5273,-2.6741,-2.555,-2.731,-2.903,-2.7848,-2.74,-2.7231,-2.7231,-2.7317,0.0,0.0,0.0,0.0,0.0,0.0,0.0,0.0,0.0,0.0,0.0,0.0,0.0,0.0,0.0,0.0,0.0,0.0,0.0,0.0,0.0,0.0,0.0,0.0,0.0,0.0,-3.9808,-3.9845,-3.99,-4.0337,-4.0196,-3.9622,-4.0062,-4.0356,0.0,0.0,-3.9373,-3.8527,-3.7661,-3.6815,-3.6007,-3.5641,-3.5493,-3.5493,-3.5493,-3.5493,-3.5493,0.0,0.0,0.0,0.0,0.0,0.0,0.0,0.0,0.0,0.0,0.0,0.0,0.0,0.0,0.0,0.0,0.0,0.0,0.0,0.0,0.0,0.0,0.0,0.0,0.0,0.0,-2.5786,-2.6612,-2.7218,-2.8064,-2.9091,-2.8148,-2.6978,0.0,0.0,0.0,0.0,-2.5421,-2.5277,-2.51,0.0,0.0,0.0,0.0,0.0,0.0,0.0,0.0,0.0,0.0,0.0,0.0,0.0,0.0,0.0,-2.2923,-2.2996,-2.3265,-2.3513,-2.4836,-2.6191,-2.653,-2.8448,-3.0265,-3.021,-2.954,-2.9119,-2.9672,-2.9913,0.0,0.0,0.0,0.0,0.0,0.0,0.0,0.0,0.0,0.0,0.0,0.0,0.0,0.0,0.0,0.0,0.0,0.0,0.0,0.0,0.0,0.0,0.0,0.0,0.0,0.0,-3.8707,-3.9062,-3.9725,-4.0012,-3.9984,-3.9712,-3.9833,-4.0017,-4.0162,-3.9354,-3.8507,-3.7642,-3.6988,-3.6238,-3.5493,-3.5493,-3.5493,-3.5493,-3.5493,-3.5493,-3.5493,0.0,0.0,0.0,0.0,0.0,0.0,0.0,0.0,0.0,0.0,0.0,0.0,0.0,0.0,0.0,0.0,0.0,0.0,0.0,0.0,0.0,0.0,0.0,0.0,0.0,-2.5384,-2.5786,-2.6612,-2.6667,-2.6913,-2.7371,-2.6986,-2.6734,-2.656,0.0,0.0,0.0,-2.5406,-2.5244,-2.5003,-2.5022,0.0,0.0,0.0,0.0,0.0,0.0,0.0,0.0,0.0,0.0,0.0,0.0,0.0,-2.3588,-2.3259,-2.3165,-2.3419,-2.4505,-2.5407,-2.6191,-2.653,-2.6778,-2.753,-2.9696,-2.9021,-2.8525,-3.0785,-3.125,-3.1293,0.0,0.0,0.0,0.0,0.0,0.0,0.0,0.0,0.0,0.0,0.0,0.0,0.0,0.0,0.0,0.0,0.0,0.0,0.0,0.0,0.0,0.0,0.0,0.0,0.0,-3.8707,-3.8851,-3.9165,-3.9483,-3.981,-4.0043,-3.9553,-3.9358,-3.9335,-3.8469,-3.7603,-3.6796,-3.6738,-3.6238,-3.5493,-3.5493,-3.5493,-3.5493,-3.5493,-3.5493,-3.5493,0.0,0.0,0.0,0.0,0.0,0.0,0.0,0.0,0.0,0.0,0.0,0.0,0.0,0.0,0.0,0.0,0.0,0.0,0.0,0.0,0.0,0.0,0.0,-2.4575,-2.5384,-2.5403,-2.555,-2.5841,-2.6619,-2.6778,-2.6453,-2.6592,0.0,0.0,0.0,0.0,-2.5157,-2.5147,-2.4979,-2.4693,-2.4823,-2.4818,0.0,0.0,0.0,0.0,0.0,0.0,0.0,0.0,-2.2135,-2.2942,-2.2629,-2.3213,-2.3846,-2.3013,-2.2911,-2.3234,-2.3967,-2.4893,-2.5935,-2.7068,-2.7732,-2.8594,-3.0503,-3.1237,-3.2082,-3.4027,-3.4449,-3.4449,0.0,0.0,0.0,0.0,0.0,0.0,0.0,0.0,0.0,0.0,0.0,0.0,0.0,0.0,0.0,0.0,0.0,0.0,0.0,0.0,0.0,0.0,0.0,0.0,0.0,0.0,-3.8844,-3.908,-3.9438,-3.9775,-4.0101,-4.0065,-3.9758,-3.9238,-3.8373,-3.7507,-3.6661,-3.6161,-3.5776,-3.5493,-3.5493,-3.5493,-3.5493,-3.5493,-3.5493,-3.5493,0.0,0.0,0.0,0.0,0.0,0.0,0.0,0.0,0.0,0.0,0.0,0.0,0.0,0.0,0.0,0.0,0.0,0.0,0.0,0.0,0.0,0.0,0.0,-2.3823,-2.4612,-2.463,-2.5016,-2.5768,-2.643,-2.6301,-2.5531,0.0,0.0,0.0,0.0,0.0,0.0,-2.4943,-2.4766,-2.4512,-2.4654,-2.4623,0.0,0.0,0.0,0.0,0.0,0.0,0.0,0.0,-2.1255,-2.2226,-2.2189,-2.2923,-2.3675,-2.2879,-2.3175,-2.3747,-2.3684,-2.4439,-2.5625,-2.7214,-2.8237,-2.9412,-3.1634,-3.2999,-3.4412,-3.6615,-3.6652,-3.6376,-3.6615,0.0,0.0,0.0,0.0,0.0,0.0,0.0,0.0,0.0,0.0,0.0,0.0,0.0,0.0,0.0,0.0,0.0,0.0,0.0,0.0,0.0,0.0,0.0,0.0,0.0,-3.8715,-3.8734,-3.9038,-3.951,-4.0081,-3.9835,-3.9411,-3.8834,-3.77,-3.6873,-3.6276,-3.5738,-3.5493,-3.5493,-3.5493,-3.5493,-3.5493,-3.5493,-3.5493,-3.5493,0.0,0.0,0.0,0.0,0.0,0.0,0.0,0.0,0.0,0.0,0.0,0.0,0.0,0.0,0.0,0.0,0.0,0.0,0.0,0.0,0.0,0.0,0.0,-2.2171,-2.2978,-2.2997,-2.4171,-2.6594,-2.5986,-2.5278,-2.4512,-2.47,0.0,0.0,-2.4804,-2.4804,-2.4804,-2.4804,-2.4685,-2.4495,-2.4495,-2.4495,-2.4309,0.0,0.0,0.0,0.0,0.0,0.0,0.0,-2.0484,-2.0778,-2.2447,-2.2997,-2.2997,-2.2997,-2.4135,-2.512,-2.3912,-2.4226,-2.528,-2.6832,-2.7868,-2.9461,-3.302,-3.3825,-3.4743,-3.8028,-3.7422,-3.6541,-3.7331,0.0,0.0,0.0,0.0,0.0,0.0,0.0,0.0,0.0,0.0,0.0,0.0,0.0,0.0,0.0,0.0,0.0,0.0,0.0,0.0,0.0,0.0,0.0,0.0,-3.8689,-3.842,-3.7895,-3.8174,-3.8902,-4.0024,-3.8646,-3.8007,-3.7892,-3.6238,-3.5526,-3.5493,-3.5493,-3.5493,-3.5493,-3.5493,-3.5493,-3.5493,-3.5493,-3.5474,-3.5474,0.0,0.0,0.0,0.0,0.0,0.0,0.0,0.0,0.0,0.0,0.0,0.0,0.0,0.0,0.0,0.0,0.0,0.0,0.0,0.0,0.0,0.0,0.0,0.0,0.0,0.0,-2.3639,-2.4905,-2.4874,-2.4737,0.0,0.0,0.0,-2.4804,-2.4804,-2.4716,-2.4575,-2.4575,-2.4478,-2.4284,-2.4284,-2.4284,-2.41,0.0,0.0,0.0,0.0,0.0,0.0,0.0,0.0,0.0,-2.1071,-2.2043,-2.2997,-2.2997,-2.3345,-2.371,-2.3684,-2.4644,-2.5924,-2.6983,-2.96,-3.2345,-3.422,-3.5128,-3.6156,-3.8267,-3.7863,-3.7202,-3.7441,0.0,0.0,0.0,0.0,0.0,0.0,0.0,0.0,0.0,0.0,0.0,0.0,0.0,0.0,0.0,0.0,0.0,0.0,0.0,0.0,0.0,0.0,0.0,0.0,0.0,-3.693,-3.6768,-3.705,-3.7596,-3.8327,-3.8089,-3.768,-3.7065,-3.6565,-3.6026,-3.5493,-3.5493,-3.5493,-3.5493,-3.5493,-3.5493,-3.5493,-3.5493,-3.5122,-3.457,0.0,0.0,0.0,0.0,0.0,0.0,0.0,0.0,0.0,0.0,-1.963,-1.9774,0.0,0.0,0.0,0.0,0.0,0.0,0.0,0.0,0.0,0.0,0.0,0.0,0.0,-2.285,-2.3254,0.0,0.0,0.0,0.0,0.0,-2.426,-2.4559,-2.4559,-2.4327,-2.3893,-2.3893,-2.3823,-2.3731,-2.3731,-2.3731,-2.3584,0.0,0.0,0.0,0.0,0.0,0.0,0.0,0.0,0.0,-2.0393,-2.1181,-2.2061,-2.2428,-2.2886,-2.3369,-2.3773,-2.4967,-2.6472,-2.8094,-3.0787,-3.3665,-3.5948,0.0,0.0,0.0,-3.8046,-3.7588,0.0,0.0,0.0,0.0,0.0,0.0,0.0,0.0,0.0,0.0,0.0,0.0,0.0,0.0,0.0,0.0,0.0,0.0,0.0,0.0,0.0,0.0,0.0,0.0,0.0,0.0,0.0,-3.5789,-3.6077,-3.6222,-3.627,-3.6986,-3.7107,-3.668,-3.6372,-3.5949,-3.5493,-3.5493,-3.5493,-3.5468,-3.5122,-3.4988,-3.4949,-3.4603,-3.4082,-3.3532,0.0,0.0,-1.503,-1.5845,0.0,0.0,0.0,0.0,0.0,-1.9179,-1.9485,-1.9649,0.0,0.0,0.0,-2.0269,0.0,0.0,0.0,0.0,0.0,0.0,0.0,0.0,0.0,0.0,0.0,0.0,0.0,0.0,0.0,0.0,-2.3511,-2.419,-2.4116,-2.3676,0.0,-2.2923,-2.2905,-2.2905,-2.2905,-2.2905,-2.2813,-2.1987,0.0,0.0,0.0,0.0,0.0,0.0,0.0,0.0,-2.0262,-2.0503,-2.0686,-2.162,-2.2699,-2.3678,-2.4102,-2.5205,-2.6894,-2.9543,-3.1573,0.0,-3.765,-3.8487,-3.8524,-3.867,0.0,0.0,0.0,0.0,0.0,0.0,0.0,0.0,0.0,0.0,0.0,0.0,0.0,0.0,0.0,0.0,0.0,0.0,0.0,0.0,0.0,0.0,0.0,0.0,0.0,0.0,0.0,0.0,0.0,0.0,0.0,-3.4939,-3.426,-3.5571,-3.6345,-3.6546,-3.5834,-3.5493,-3.5493,-3.5493,-3.5493,-3.5411,-3.4545,-3.4199,-3.4083,-3.3218,-3.2708,-3.247,0.0,0.0,-1.5741,-1.6539,0.0,0.0,0.0,0.0,-1.839,-1.9179,-1.9485,-1.9609,-1.9649,-1.9858,0.0,-2.0069,-2.0069,0.0,0.0,0.0,0.0,0.0,0.0,0.0,0.0,0.0,0.0,0.0,0.0,0.0,0.0,-2.3657,-2.4025,-2.4171,-2.3547,-2.3162,-2.296,-2.2336,-2.2061,-2.2061,-2.2061,-2.2061,-2.1951,-2.1106,-2.0649,0.0,0.0,0.0,0.0,0.0,0.0,0.0,-2.0262,-2.0503,-2.0796,-2.2299,-2.2754,-2.2973,-2.3985,-2.5464,0.0,-2.8987,-3.2011,-3.4921,-3.6457,-3.6817,-3.7165,-3.845,0.0,0.0,0.0,0.0,0.0,0.0,0.0,0.0,0.0,0.0,0.0,0.0,0.0,0.0,0.0,0.0,0.0,0.0,0.0,0.0,0.0,0.0,0.0,0.0,0.0,0.0,-3.4659,-3.4465,-3.4247,0.0,-3.4126,-3.4178,-3.4242,-3.5003,-3.5506,-3.5757,-3.5584,-3.5493,-3.5493,-3.5493,-3.5493,-3.5411,-3.4545,-3.4199,-3.4083,-3.3218,-3.2344,-3.1562,0.0,0.0,0.0,0.0,0.0,0.0,0.0,0.0,-1.839,-1.9179,-1.938,-1.9499,-1.9582,-1.9397,0.0,0.0,-1.9485,-1.9539,0.0,0.0,0.0,0.0,0.0,0.0,0.0,0.0,0.0,0.0,0.0,0.0,-2.2446,-2.3254,-2.3823,-2.4153,-2.3364,-2.2795,-2.2373,-2.1528,-2.118,-2.118,-2.118,-2.0941,-2.0554,-2.0097,-1.9693,-1.9308,-1.8886,0.0,0.0,0.0,0.0,0.0,0.0,0.0,-2.017,-2.142,-2.1749,-2.2018,-2.3565,-2.5216,0.0,-3.0337,0.0,-3.521,-3.6101,-3.6303,-3.6541,0.0,0.0,0.0,0.0,0.0,0.0,0.0,0.0,0.0,0.0,0.0,0.0,0.0,0.0,0.0,0.0,0.0,0.0,0.0,0.0,0.0,0.0,0.0,0.0,0.0,0.0,0.0,-3.3797,-3.3797,-3.3807,-3.3807,-3.3807,-3.4012,-3.4445,-3.4907,-3.5258,-3.5493,-3.5493,-3.5257,-3.4872,-3.4872,-3.4641,-3.418,-3.3333,-3.3006,-3.2891,-3.2025,-3.1216,-3.0525,0.0,0.0,0.0,0.0,0.0,0.0,0.0,0.0,0.0,-1.8913,-1.9182,-1.9295,-1.9263,-1.8808,-1.851,0.0,0.0,0.0,-1.86,0.0,0.0,0.0,0.0,0.0,0.0,0.0,0.0,0.0,0.0,-2.0853,-2.1917,-2.2648,-2.3437,-2.4153,-2.3364,-2.2556,-2.1729,-2.0721,-2.0209,-2.0063,-1.9934,-1.9491,-1.8886,-1.8886,-1.8463,-1.7894,-1.7894,-1.8408,-1.9087,-1.9087,0.0,0.0,0.0,0.0,-1.9455,-2.0246,-2.0589,-2.1072,-2.2894,-2.486,-2.7425,-3.182,-3.3751,0.0,-3.5661,-3.5862,-3.5862,0.0,0.0,0.0,0.0,0.0,0.0,0.0,0.0,0.0,0.0,0.0,0.0,0.0,0.0,0.0,0.0,0.0,0.0,0.0,0.0,0.0,0.0,0.0,0.0,0.0,0.0,-3.2713,-3.3184,-3.3606,-3.3807,-3.3807,-3.3807,-3.4111,-3.4694,-3.4774,-3.5073,-3.5474,-3.5353,-3.4872,-3.418,-3.4026,-3.3545,-3.2814,-3.2006,-3.1698,-3.1583,-3.0717,-3.0099,-2.9696,0.0,0.0,0.0,0.0,0.0,0.0,0.0,0.0,0.0,0.0,-1.8724,-1.8968,-1.805,-1.8278,-1.8222,-1.7557,-1.7623,-1.7723,0.0,0.0,0.0,0.0,0.0,0.0,0.0,0.0,0.0,0.0,0.0,-2.044,-2.2335,-2.2793,-2.3437,-2.4153,-2.3364,-2.2556,-2.1711,-2.0115,-1.9051,-1.8372,-1.766,-1.7312,-1.722,-1.722,-1.7147,-1.7055,-1.7055,-1.7568,-1.8262,-1.8262,-1.872,0.0,0.0,0.0,0.0,0.0,-2.0353,-2.0547,-2.2147,0.0,-2.7817,0.0,-3.2294,-3.3146,0.0,0.0,0.0,0.0,0.0,0.0,0.0,0.0,0.0,0.0,0.0,0.0,0.0,0.0,0.0,0.0,0.0,0.0,0.0,0.0,0.0,0.0,0.0,0.0,0.0,0.0,-3.1372,-3.1789,-3.2282,0.0,-3.3184,-3.3606,-3.3807,-3.3807,-3.3807,-3.4111,-3.4675,-3.3959,-3.4295,-3.5468,-3.4699,-3.4314,-3.4141,-3.3391,-3.3006,-3.2814,-3.2006,-3.1698,-3.1583,-3.0717,-3.0099,-2.9696,0.0,0.0,0.0,0.0,0.0,0.0,0.0,0.0,0.0,0.0,0.0,-1.9084,-1.8494,-1.8064,-1.7681,-1.7326,-1.7017,0.0,0.0,0.0,0.0,0.0,0.0,0.0,0.0,0.0,0.0,0.0,-1.8188,-1.9595,-2.2715,-2.2656,-2.344,-2.4877,-2.362,-2.2632,-2.1808,-2.0355,-1.901,-1.786,-1.7654,-1.7839,-1.8096,-1.6738,-1.7069,-1.8078,-1.672,-1.7032,-1.8096,-1.8096,-1.8629,-1.9305,-1.9305,0.0,0.0,0.0,-1.9281,-1.9974,-2.244,-2.4632,-2.6763,0.0,-3.0508,-3.1536,-3.2602,0.0,0.0,0.0,0.0,0.0,0.0,0.0,0.0,0.0,0.0,0.0,0.0,0.0,0.0,0.0,0.0,0.0,0.0,0.0,0.0,0.0,0.0,0.0,0.0,-3.119,-3.1487,-3.2161,-3.2384,0.0,-3.3522,-3.3707,-3.3807,-3.3788,-3.3348,-3.3346,-3.3711,-3.3031,-3.3496,-3.4718,-3.3853,-3.3218,-3.2776,-3.2391,-3.186,-3.1262,-3.1046,-3.0887,-3.0713,-3.0489,-3.0169,-2.9845,0.0,0.0,0.0,0.0,0.0,0.0,0.0,0.0,0.0,0.0,0.0,-1.8838,-1.8626,0.0,0.0,0.0,-1.6398,0.0,0.0,0.0,0.0,0.0,0.0,0.0,0.0,0.0,0.0,-1.7416,-1.7018,-1.876,-2.2463,-2.2267,-2.3419,-2.5612,-2.447,-2.3234,-2.1922,-2.0827,-1.9561,-1.8282,-1.8374,-1.8757,-1.9158,-1.7766,-1.8386,-1.9654,-1.7399,-1.7527,-1.8647,0.0,0.0,0.0,0.0,0.0,0.0,0.0,0.0,-1.9,0.0,0.0,-2.4894,-2.7084,-2.8707,-3.0081,0.0,0.0,0.0,0.0,0.0,0.0,0.0,0.0,0.0,0.0,0.0,0.0,0.0,0.0,0.0,0.0,0.0,0.0,0.0,0.0,0.0,0.0,0.0,0.0,-3.1351,-3.1351,-3.175,-3.2648,-3.2485,-3.2829,-3.3788,-3.3605,-3.3495,-3.3495,-3.2687,-3.2441,-3.2676,-3.2126,-3.2454,-3.3434,-3.2859,-3.2212,-3.1578,-3.1367,-3.0743,-2.9939,-3.0142,-3.0122,-3.0013,-3.0222,-3.0163,-2.9984,0.0,0.0,0.0,0.0,0.0,0.0,0.0,0.0,0.0,0.0,0.0,-1.7778,-1.7507,-1.7371,-1.6993,-1.6233,-1.5613,0.0,0.0,0.0,0.0,0.0,0.0,0.0,0.0,0.0,0.0,-1.5542,-1.6266,-1.8124,-2.1022,-2.1635,-2.3405,-2.6095,-2.6328,-2.476,-2.1958,-2.1378,-2.0635,-1.9847,-1.9417,-1.9253,-1.947,-2.0939,-2.1564,-2.1454,-1.9745,0.0,0.0,0.0,0.0,0.0,0.0,0.0,-1.795,0.0,0.0,0.0,0.0,-2.0498,0.0,-2.4882,-2.7073,0.0,0.0,0.0,0.0,0.0,0.0,0.0,0.0,0.0,0.0,0.0,0.0,0.0,0.0,0.0,0.0,0.0,0.0,0.0,0.0,0.0,0.0,0.0,0.0,0.0,-3.1752,-3.1789,-3.2196,-3.3136,-3.2433,-3.2589,-3.3788,-3.3054,-3.2669,-3.2669,-3.1843,-3.1597,-3.184,-3.1242,-3.1138,-3.1455,-3.1674,-3.159,-3.1249,-3.0428,-2.9946,-2.9731,-2.9731,-2.9845,-2.9999,-3.0013,-3.0013,-2.9999,0.0,0.0,0.0,0.0,0.0,0.0,0.0,0.0,0.0,0.0,0.0,0.0,0.0,-1.7581,-1.706,-1.6773,-1.5677,0.0,0.0,0.0,0.0,0.0,0.0,0.0,0.0,0.0,-1.5746,-1.5598,-1.5225,-1.6974,-2.0644,-2.0941,-2.1949,-2.3551,-2.4233,-2.3938,-2.2821,-2.1805,-2.0648,-1.9528,-2.0007,-2.0822,-2.1703,-2.1212,-2.1996,-2.3053,0.0,0.0,0.0,0.0,0.0,0.0,-1.9124,-1.817,-1.7165,-1.6371,-1.6487,-1.7147,0.0,0.0,0.0,-2.2386,-2.4226,-2.6056,0.0,0.0,0.0,0.0,0.0,0.0,0.0,0.0,0.0,0.0,0.0,0.0,0.0,0.0,0.0,0.0,0.0,0.0,0.0,0.0,0.0,0.0,0.0,0.0,-3.03,-3.0335,-3.0723,-3.1629,-3.1387,-3.1565,-3.2247,-3.1971,-3.1825,-3.1825,-3.0999,-3.0686,-3.0748,-3.0197,-2.9982,-3.0076,-3.0319,-3.043,-3.0437,-2.9994,-2.9696,-2.9532,-2.9643,-2.9661,-2.9662,-2.9908,-2.9999,-2.9999,0.0,0.0,0.0,-1.9305,0.0,-1.6977,-1.6977,-1.6063,-1.5624,-1.6307,0.0,0.0,0.0,0.0,-1.7293,-1.6799,-1.5874,-1.5094,-1.4607,0.0,0.0,0.0,0.0,0.0,0.0,-1.5355,-1.5329,-1.5196,-1.4808,-1.6182,-1.9198,-1.9424,-2.0279,-2.1662,-2.1576,-2.2073,-2.2982,-2.2228,0.0,-2.0453,-2.1482,-2.2535,-2.3499,-2.346,-2.4251,-2.5183,0.0,0.0,0.0,0.0,0.0,0.0,-1.973,-1.7821,-1.5991,-1.5454,-1.5876,-1.6597,-1.716,0.0,0.0,0.0,0.0,0.0,0.0,0.0,0.0,0.0,0.0,0.0,0.0,0.0,0.0,0.0,0.0,0.0,0.0,0.0,0.0,0.0,0.0,0.0,0.0,0.0,0.0,0.0,0.0,0.0,-2.9721,-2.9852,-3.0135,-3.0595,-3.0876,-3.0929,-3.0794,-3.0794,-3.0794,-3.0794,-2.9965,-2.9673,-2.9787,-2.9508,-2.9412,-2.9412,-2.9551,-2.9678,-2.978,-2.9643,-2.9474,-2.9289,-2.9397,-2.9435,-2.9434,-2.9696,-2.9845,-2.9908,-1.9305,-1.9305,-1.9289,-1.9289,-1.8408,-1.7687,-1.7671,-1.6659,-1.6271,-1.7258,0.0,0.0,0.0,0.0,0.0,-1.6251,-1.6102,-1.5705,-1.4782,-1.4707,0.0,0.0,0.0,0.0,0.0,-1.5052,-1.4972,-1.4188,-1.4972,-1.5767,-1.658,-1.7114,-1.8547,-2.0604,-1.8653,-1.9435,-2.2175,-2.2468,-2.2634,-2.2781,0.0,-2.4275,-2.4662,0.0,0.0,0.0,-2.6944,-2.641,0.0,-2.4253,0.0,0.0,0.0,-1.7142,-1.4598,-1.4579,-1.516,-1.5802,0.0,0.0,0.0,0.0,0.0,0.0,0.0,0.0,0.0,0.0,0.0,0.0,0.0,0.0,0.0,0.0,0.0,0.0,0.0,0.0,0.0,0.0,0.0,0.0,0.0,0.0,0.0,0.0,0.0,-2.9652,-3.0128,-3.0521,-3.0559,-3.0167,-3.0907,-3.0739,-2.9557,-2.9539,-2.9539,-2.9565,-2.8763,-2.859,-2.9017,-2.9267,-2.9392,-2.9392,-2.9392,-2.9392,-2.9392,-2.9392,-2.9225,-2.8994,-2.8994,-2.9156,-2.9392,-2.9392,-2.9532,-2.9696,-1.9305,-1.9305,-1.9243,-1.9101,-1.8248,-1.7488,-1.731,-1.6534,-1.6271,0.0,0.0,0.0,-1.8966,-1.8483,-1.7757,-1.6781,-1.6239,-1.5793,-1.5464,-1.4961,-1.4645,-1.4517,-1.4719,0.0,0.0,0.0,0.0,0.0,0.0,0.0,0.0,0.0,-1.6969,-1.8121,-1.7902,-1.8245,-1.908,-1.9702,0.0,-2.2449,-2.273,-2.3802,0.0,0.0,0.0,0.0,0.0,-2.7444,-2.7281,0.0,-2.5793,-2.4098,0.0,-1.828,-1.6995,-1.6413,-1.7215,-1.8041,-1.6872,0.0,0.0,0.0,0.0,0.0,0.0,0.0,0.0,0.0,0.0,0.0,0.0,0.0,0.0,0.0,0.0,0.0,0.0,0.0,0.0,0.0,0.0,0.0,0.0,0.0,0.0,0.0,0.0,-2.822,-2.8864,-2.9279,-2.9314,-2.8916,-2.9116,-2.8935,-2.8368,-2.8368,-2.8506,-2.8727,-2.8528,-2.859,-2.9017,-2.9267,-2.9289,-2.9112,-2.931,-2.9289,-2.9112,-2.9112,-2.9067,-2.8994,-2.8994,-2.9062,-2.9134,-2.933,-2.9434,-2.9494,-1.9305,-1.9227,-1.9243,-1.9434,-1.8786,-1.8305,-1.8454,-1.7844,-1.7698,0.0,0.0,0.0,-1.9626,-1.9321,-1.8632,-1.7495,-1.673,-1.6147,-1.5741,-1.5021,-1.4571,-1.4499,-1.4411,-1.4307,-1.4201,0.0,0.0,0.0,0.0,0.0,0.0,0.0,0.0,-1.6146,-1.6018,-1.6306,-1.6898,-1.7016,0.0,0.0,-2.2716,0.0,0.0,-2.6184,-2.659,0.0,0.0,0.0,-2.7926,-2.802,-2.6652,0.0,0.0,-1.9803,-1.8445,-1.7642,-1.8555,-1.9455,-1.7825,-1.8907,-2.0215,0.0,0.0,0.0,0.0,0.0,0.0,0.0,0.0,0.0,0.0,0.0,0.0,0.0,0.0,0.0,0.0,0.0,0.0,0.0,0.0,0.0,0.0,0.0,0.0,0.0,-2.7457,-2.7805,-2.8368,-2.8182,-2.8113,-2.8192,-2.8183,-2.786,-2.7192,-2.7192,-2.7197,-2.7189,-2.7189,-2.7658,-2.8503,-2.8751,-2.8894,-2.8998,-2.9289,-2.9246,-2.8994,-2.8994,-2.8994,-2.8994,-2.8994,-2.8994,-2.9017,-2.9178,-2.9225,-2.9246,0.0,-1.9134,-1.9218,-1.9938,-1.9635,-1.9554,-2.0286,-1.9888,-1.9835,0.0,-2.062,-2.048,-2.0743,-2.0613,-1.9953,-1.8629,-1.7605,-1.6725,-1.6004,-1.5123,-1.4579,-1.4464,-1.4295,-1.4175,-1.4136,-1.3983,0.0,0.0,0.0,0.0,0.0,0.0,0.0,-1.4624,-1.3769,-1.4141,-1.5325,-1.502,-1.6758,-2.0002,-2.2852,-2.4239,0.0,0.0,-2.7199,0.0,-2.7975,-2.8246,-2.8088,-2.8378,-2.6736,0.0,0.0,-2.1603,-1.9656,-1.8727,-1.9552,-2.0448,-1.8922,-1.9588,-2.0569,-1.9929,0.0,0.0,-2.0929,-2.1057,0.0,0.0,0.0,0.0,0.0,0.0,0.0,0.0,0.0,0.0,0.0,0.0,0.0,0.0,0.0,0.0,0.0,0.0,0.0,-2.7074,-2.7472,-2.7825,-2.8124,-2.7192,-2.6969,-2.7558,-2.7575,-2.7069,-2.6026,-2.5996,-2.5819,-2.5508,-2.5508,-2.6254,-2.768,-2.788,-2.8248,-2.8741,-2.901,-2.8968,-2.8718,-2.8718,-2.8828,-2.8994,-2.8994,-2.8994,-2.8994,-2.8994,-2.8938,-2.8888,-1.9305,-1.9134,-1.9147,-1.9692,-1.951,-1.9554,-2.0356,-2.0547,-2.0752,-2.1252,-2.1407,-2.1751,-2.2428,-2.131,-2.0666,-2.1033,-1.9106,-1.7803,-1.7638,-1.6261,-1.5099,-1.4288,-1.4214,-1.4038,-1.3721,-1.3842,0.0,0.0,0.0,0.0,0.0,0.0,0.0,-1.3667,-1.3481,-1.3566,-1.3989,-1.6221,0.0,-1.8363,-2.0154,0.0,-2.5439,-2.5862,-2.6319,-2.686,-2.7975,-2.8609,-2.8874,0.0,-2.8091,-2.6683,0.0,0.0,-2.2905,-2.1188,-2.1553,-2.2299,-2.1327,-2.1571,-2.1781,-2.0443,0.0,0.0,0.0,-1.957,0.0,0.0,0.0,0.0,0.0,0.0,0.0,0.0,0.0,0.0,0.0,0.0,0.0,0.0,0.0,0.0,0.0,0.0,-2.5496,-2.5834,-2.6218,-2.6477,-2.6549,-2.6101,-2.5791,-2.5638,-2.5638,-2.5369,-2.4849,-2.4832,-2.504,-2.5508,-2.5508,-2.5967,-2.6833,-2.7045,-2.7099,-2.7071,-2.7305,-2.7266,-2.7071,-2.7071,-2.7842,-2.8994,-2.8994,-2.8994,-2.8994,-2.8994,-2.8594,-2.8026,-1.9305,-1.9033,-1.9109,-2.0068,-2.0066,-2.027,-2.142,-2.1653,-2.1908,-2.2486,-2.2811,-2.2997,-2.3015,-2.21,-2.1352,-2.1024,-1.936,-1.8139,-1.7776,-1.6243,-1.5138,-1.4613,-1.4151,-1.3813,-1.36,-1.3634,0.0,0.0,0.0,0.0,0.0,-1.3259,-1.3599,-1.3954,-1.3954,-1.4344,-1.5124,-1.6221,-1.7337,-1.8589,-2.1194,0.0,-2.5118,-2.5862,-2.637,-2.6842,-2.7799,-2.855,-2.8977,-2.8534,-2.7879,0.0,0.0,-2.4826,-2.4499,0.0,-2.3159,-2.368,-2.248,-2.2481,-2.2535,-2.1231,0.0,0.0,0.0,0.0,0.0,0.0,0.0,0.0,0.0,0.0,0.0,0.0,0.0,0.0,0.0,0.0,0.0,0.0,0.0,0.0,0.0,0.0,-2.5157,-2.5482,-2.5348,-2.5361,-2.5577,-2.4909,-2.459,-2.4802,-2.482,-2.453,-2.3951,-2.3934,-2.4076,-2.4357,-2.4357,-2.4926,-2.6009,-2.621,-2.6413,-2.6615,-2.6804,-2.6784,-2.6612,-2.6612,-2.709,-2.7805,-2.7805,-2.7805,-2.7805,-2.7805,-2.7548,-2.72,-1.9305,-1.8947,-1.9104,-2.0427,-2.0627,-2.1051,-2.2436,-2.27,-2.2989,-2.3705,-2.4103,-2.4074,-2.3416,-2.2903,-2.2255,-2.1285,-1.9814,-1.8704,0.0,0.0,0.0,-1.5394,-1.4392,-1.388,-1.3969,-1.3599,0.0,0.0,0.0,0.0,0.0,-1.3156,-1.3785,-1.4494,-1.4646,-1.5443,-1.6682,0.0,0.0,-1.9621,0.0,-2.4303,-2.4472,-2.5913,-2.6555,-2.6751,-2.7654,-2.843,-2.8865,-2.8017,0.0,-2.6611,-2.5859,-2.5475,0.0,0.0,0.0,0.0,0.0,0.0,0.0,0.0,0.0,-2.1781,0.0,0.0,0.0,-2.2086,0.0,0.0,0.0,0.0,0.0,0.0,0.0,0.0,0.0,0.0,0.0,0.0,0.0,0.0,0.0,0.0,-2.4734,-2.5216,-2.4431,-2.4169,-2.4714,-2.3767,-2.346,-2.4052,-2.4069,-2.3782,-2.319,-2.3243,-2.3246,-2.3189,-2.3277,-2.3952,-2.5164,-2.5338,-2.569,-2.6135,-2.6301,-2.63,-2.6135,-2.6135,-2.6135,-2.6172,-2.6484,-2.6612,-2.6612,-2.6612,-2.6502,-2.6374,-1.9305,-1.9117,-1.9201,-2.0045,-2.0548,-2.1231,-2.2357,-2.3127,-2.3687,-2.4075,-2.4493,-2.4699,-2.4608,-2.3654,-2.3536,-2.4792,0.0,0.0,-2.0428,0.0,-1.7692,-1.6803,-1.5418,-1.4899,-1.5363,-1.4074,0.0,0.0,0.0,0.0,0.0,-1.3379,-1.3785,-1.4528,-1.5189,0.0,0.0,0.0,-1.9452,0.0,-2.2818,-2.3511,0.0,-2.5169,-2.5934,-2.6445,-2.7835,-2.8633,-2.8824,0.0,-2.7296,-2.6874,0.0,-2.4555,-2.4739,0.0,0.0,0.0,0.0,0.0,0.0,0.0,-2.2407,0.0,0.0,0.0,-2.1105,-2.1038,0.0,0.0,0.0,0.0,0.0,0.0,0.0,0.0,0.0,0.0,0.0,0.0,0.0,0.0,0.0,0.0,0.0,-2.4273,-2.3074,-2.2611,-2.3371,-2.2796,-2.2462,-2.2547,-2.2564,-2.2513,-2.2446,-2.2674,-2.291,-2.3189,-2.35,-2.3891,-2.4337,-2.4357,-2.4412,-2.4465,-2.4504,-2.4504,-2.4465,-2.4465,-2.4465,-2.4612,-2.6043,-2.6612,-2.6612,-2.6612,-2.6153,-2.555,-1.9243,-1.9016,-1.9057,-1.9938,-2.018,-2.0764,-2.2278,-2.3541,-2.4396,-2.4523,-2.4531,-2.4853,0.0,0.0,0.0,0.0,0.0,-2.1489,0.0,0.0,-1.8538,-1.812,-1.6686,-1.5812,-1.5595,-1.4563,0.0,0.0,-1.3396,0.0,0.0,0.0,-1.426,-1.5781,-1.6086,0.0,-1.9324,0.0,-1.9925,0.0,0.0,0.0,0.0,-2.5355,-2.6619,-2.7296,-2.8111,-2.8515,-2.8506,0.0,-2.6806,0.0,0.0,0.0,0.0,0.0,0.0,0.0,0.0,0.0,0.0,0.0,0.0,0.0,0.0,0.0,-2.0747,0.0,0.0,0.0,0.0,0.0,0.0,0.0,0.0,0.0,0.0,0.0,0.0,0.0,0.0,0.0,0.0,0.0,0.0,0.0,0.0,-2.241,-2.266,-2.2581,-2.2463,-2.231,-2.231,-2.231,-2.231,-2.2563,-2.2873,-2.3189,-2.3544,-2.3876,-2.419,-2.419,-2.419,-2.419,-2.419,-2.419,-2.419,-2.419,-2.419,-2.4263,-2.4942,-2.5217,-2.5217,-2.5217,-2.4979,-2.4685,-1.9031,-1.8895,-1.8949,-1.9669,-1.992,-2.0565,-2.2244,-2.3649,-2.4469,-2.4382,0.0,0.0,-2.6311,-2.5207,0.0,0.0,-2.4202,-2.2818,0.0,0.0,-1.9739,-1.9536,-1.8104,0.0,0.0,-1.5392,0.0,-1.3701,-1.3498,0.0,0.0,0.0,-1.448,-1.6428,-1.6834,-1.8318,-2.0577,0.0,0.0,-2.0998,-2.1938,-2.2665,-2.3444,-2.5703,-2.7051,-2.7765,-2.8129,-2.8264,-2.8138,-2.7227,-2.6384,0.0,-2.5656,0.0,0.0,0.0,0.0,0.0,-2.3228,0.0,0.0,0.0,0.0,0.0,0.0,0.0,0.0,0.0,0.0,0.0,0.0,0.0,0.0,0.0,0.0,0.0,0.0,0.0,0.0,0.0,0.0,0.0,0.0,0.0,0.0,0.0,0.0,0.0,-2.252,-2.2652,-2.259,-2.231,-2.231,-2.2349,-2.2398,-2.2704,-2.3021,-2.3346,-2.3671,-2.3958,-2.419,-2.419,-2.419,-2.419,-2.419,-2.419,-2.419,-2.419,-2.419,-2.419,-2.419,-2.419,-2.419,-2.419,-2.419,-2.419,-1.8623,-1.8807,-1.9002,-1.902,-1.9842,-2.0932,-2.2285,-2.3184,-2.3602,0.0,0.0,0.0,0.0,0.0,0.0,0.0,0.0,-2.4881,-2.341,0.0,-2.187,-2.117,-1.9638,-1.8809,0.0,0.0,-1.5206,-1.4461,-1.3752,0.0,0.0,0.0,0.0,0.0,-1.7134,-1.8217,-1.9063,-2.0534,-2.1972,-2.3224,-2.2581,-2.3596,-2.5539,0.0,-2.668,-2.7348,-2.7765,0.0,0.0,-2.6597,-2.6219,0.0,0.0,0.0,0.0,0.0,0.0,0.0,0.0,0.0,0.0,-2.1576,0.0,0.0,0.0,0.0,-2.204,0.0,0.0,0.0,0.0,0.0,-2.0906,-2.0145,0.0,0.0,0.0,0.0,0.0,0.0,0.0,0.0,0.0,0.0,0.0,0.0,0.0,0.0,-2.3065,-2.2873,-2.259,-2.231,-2.231,-2.2426,-2.2669,-2.3021,-2.3346,-2.3692,-2.4016,-2.419,-2.419,-2.419,-2.419,-2.419,-2.419,-2.419,-2.419,-2.419,-2.419,-2.419,-2.419,-2.419,-2.419,-2.419,-2.419,-2.419,-1.8903,-1.9,-1.9167,0.0,0.0,-2.063,-2.2589,-2.3417,0.0,0.0,0.0,0.0,0.0,-2.7742,-2.7689,0.0,0.0,-2.6116,-2.5609,-2.3985,0.0,0.0,0.0,-2.0399,0.0,0.0,-1.6695,-1.595,-1.5206,0.0,0.0,0.0,0.0,0.0,0.0,-1.8775,0.0,0.0,0.0,0.0,0.0,-2.4069,-2.5692,0.0,0.0,-2.7348,-2.7754,-2.7419,0.0,-2.6896,-2.5786,-2.4466,-2.5031,-2.4269,-2.3215,-2.3742,-2.3388,0.0,0.0,0.0,-2.3038,-2.1576,0.0,0.0,0.0,0.0,0.0,0.0,0.0,0.0,0.0,0.0,-2.0923,-2.012,-1.9579,0.0,0.0,0.0,0.0,0.0,0.0,0.0,0.0,0.0,0.0,0.0,0.0,0.0,0.0,-2.3093,-2.289,-2.2573,-2.2388,-2.2426,-2.2695,-2.3021,-2.3369,-2.3692,-2.4036,-2.419,-2.419,-2.419,-2.419,-2.419,-2.419,-2.419,-2.419,-2.419,-2.419,-2.419,-2.419,-2.419,-2.419,-2.419,-2.419,-2.419,-1.9384,-1.9521,0.0,0.0,0.0,0.0,0.0,0.0,0.0,0.0,-2.6247,0.0,-2.9431,0.0,-2.8738,0.0,-2.8755,-2.7452,-2.6387,-2.522,0.0,-2.4103,-2.297,0.0,0.0,0.0,-1.8386,-1.7084,-1.6339,-1.5984,0.0,0.0,0.0,0.0,0.0,-1.8758,-2.045,0.0,-2.204,0.0,0.0,-2.4509,0.0,0.0,-2.7083,0.0,0.0,-2.6623,-2.6018,-2.6237,-2.5179,-2.3951,-2.4898,-2.4181,-2.3062,-2.3567,-2.3199,-2.2598,-2.2563,-2.2767,0.0,0.0,-2.1204,0.0,-2.017,0.0,0.0,0.0,0.0,0.0,0.0,0.0,-2.0923,-2.012,-1.9384,-1.8132,0.0,0.0,0.0,0.0,0.0,0.0,0.0,0.0,-1.916,-2.088,0.0,0.0,0.0,0.0,-2.2996,-2.2563,-2.2388,-2.2508,-2.2855,-2.3093,-2.3414,-2.3876,-2.4094,-2.419,-2.419,-2.419,-2.419,-2.419,-2.419,-2.419,-2.419,-2.419,-2.419,-2.419,-2.419,-2.419,-2.419,-2.419,-2.419,-2.419,0.0,0.0,0.0,0.0,-2.1895,0.0,0.0,0.0,-2.5953,0.0,-2.6387,-2.7385,-2.8924,-2.913,-2.9381,-3.0091,-3.0125,0.0,-2.6015,-2.637,0.0,0.0,-2.4171,-2.3849,-2.2496,0.0,0.0,0.0,0.0,0.0,0.0,0.0,0.0,0.0,-1.7456,0.0,-1.9046,-2.1295,-2.2293,-2.2496,-2.39,-2.4915,-2.5642,-2.6353,0.0,-2.6488,-2.5845,-2.5558,-2.5389,-2.4712,-2.4455,-2.4404,-2.4438,-2.3934,-2.3342,-2.3342,-2.2852,-2.231,-2.231,-2.231,-2.2141,-2.1414,0.0,0.0,0.0,0.0,-2.2057,0.0,0.0,0.0,0.0,0.0,0.0,-2.0094,-1.9309,-1.8048,0.0,0.0,0.0,0.0,0.0,0.0,0.0,-1.717,-1.7449,-2.0177,-1.9748,0.0,0.0,0.0,0.0,-2.2349,-2.2338,-2.2598,-2.3189,-2.323,-2.3544,-2.419,-2.419,-2.419,-2.419,-2.419,-2.419,-2.419,-2.419,-2.419,-2.419,-2.419,-2.419,-2.419,-2.419,-2.419,-2.419,-2.419,-2.419,-2.419,-2.0991,-2.1824,-2.2456,0.0,-2.1885,-2.2583,0.0,0.0,0.0,0.0,-2.8281,-2.8975,-3.0463,-3.0632,-3.07,-3.0903,-3.0429,0.0,0.0,0.0,0.0,-2.6691,-2.527,-2.4577,-2.4763,-2.2412,0.0,-2.1143,0.0,0.0,-1.7507,0.0,0.0,0.0,0.0,0.0,-1.8995,-2.0737,-2.2107,-2.319,-2.412,-2.4625,0.0,0.0,-2.5541,-2.5101,-2.5473,-2.4898,-2.4019,-2.4388,-2.3765,-2.297,-2.3511,-2.3173,-2.2581,-2.2581,-2.2462,-2.231,-2.231,-2.231,-2.226,-2.2073,-2.16,-2.1153,0.0,0.0,0.0,0.0,0.0,0.0,0.0,0.0,0.0,-1.982,-1.8265,-1.7071,0.0,0.0,0.0,0.0,0.0,0.0,0.0,-1.7577,-1.8251,-1.869,-1.9638,0.0,0.0,0.0,0.0,-2.2565,-2.2599,-2.2789,-2.3189,-2.3455,-2.3795,-2.419,-2.419,-2.419,-2.419,-2.419,-2.419,-2.419,-2.419,-2.419,-2.419,-2.419,-2.419,-2.419,-2.419,-2.419,-2.419,-2.419,-2.419,-2.419,-2.2175,0.0,0.0,-2.3833,0.0,0.0,-2.5844,0.0,0.0,-2.8247,-2.9059,0.0,-3.0176,-3.0801,-3.119,-3.119,-3.0818,0.0,0.0,0.0,0.0,-2.7351,-2.6437,-2.5845,-2.5609,-2.3646,0.0,-2.182,0.0,0.0,-1.7304,0.0,0.0,0.0,0.0,-1.8217,0.0,-2.0889,-2.2344,-2.3427,-2.3849,0.0,0.0,-2.4949,-2.4644,-2.4052,-2.4492,-2.4103,-2.341,-2.3511,-2.2987,-2.2378,-2.2801,-2.2632,-2.231,-2.231,-2.231,-2.231,-2.231,-2.231,-2.231,-2.231,-2.1989,-2.1684,-2.1684,-2.1684,-2.1684,0.0,0.0,0.0,0.0,0.0,0.0,0.0,0.0,0.0,0.0,0.0,0.0,0.0,0.0,0.0,0.0,-1.6994,-1.7556,-1.7453,-1.8694,0.0,0.0,0.0,0.0,0.0,-2.2462,-2.2873,-2.3189,-2.3522,-2.3876,-2.419,-2.419,-2.419,-2.419,-2.419,-2.419,-2.419,-2.419,-2.419,-2.419,-2.419,-2.419,-2.419,-2.419,-2.419,-2.419,-2.419,-2.419,-2.419,0.0,0.0,0.0,0.0,0.0,0.0,0.0,-2.7554,0.0,-2.8076,0.0,-3.0006,-2.9347,-3.0429,-3.119,-3.119,0.0,-3.0649,-2.9347,-2.9803,-2.9178,-2.708,-2.752,-2.713,-2.5778,-2.4831,0.0,0.0,0.0,0.0,-1.6699,0.0,0.0,0.0,0.0,0.0,0.0,-2.138,-2.2784,0.0,-2.3528,-2.3917,-2.4475,-2.4444,-2.3907,-2.3182,-2.3182,-2.3211,-2.3156,-2.253,-2.231,-2.231,-2.231,-2.231,-2.231,-2.231,-2.231,-2.231,-2.231,-2.231,-2.231,-2.231,-2.231,-2.231,-2.231,-2.231,-2.231,-2.231,-2.1974,0.0,0.0,0.0,0.0,0.0,0.0,0.0,0.0,0.0,0.0,0.0,0.0,0.0,0.0,0.0,-1.6479,-1.6439,0.0,0.0,0.0,0.0,0.0,0.0,-2.2143,0.0,-2.3189,0.0,-2.3917,-2.419,-2.419,-2.419,-2.419,-2.419,-2.419,-2.419,-2.419,-2.419,-2.419,-2.419,-2.417,-2.4133,-2.4133,-2.4133,-2.4133,-2.4133,-2.417,-2.419,0.0,0.0,0.0,0.0,0.0,-2.7841,-2.8484,-2.8687,-2.9008,-2.9634,-3.0463,0.0,-3.0818,-3.1038,-3.119,-3.119,-3.119,0.0,0.0,0.0,0.0,-2.8619,-2.8095,-2.7402,-2.6522,-2.4577,-2.3393,0.0,-2.0247,-1.8155,-1.6699,-1.658,0.0,0.0,0.0,0.0,-1.9917,-2.1573,0.0,-2.432,-2.432,-2.4388,-2.4444,-2.4129,-2.3123,-2.1917,-2.1917,-2.2158,-2.2479,-2.2344,-2.231,-2.231,-2.231,-2.231,-2.231,-2.231,-2.231,-2.231,-2.231,-2.231,-2.231,-2.231,-2.231,-2.231,-2.231,-2.231,-2.231,-2.231,-2.2237,-2.2061,-2.1658,0.0,0.0,0.0,0.0,0.0,0.0,0.0,0.0,0.0,0.0,0.0,0.0,0.0,-1.7293,0.0,0.0,0.0,0.0,0.0,0.0,0.0,0.0,0.0,0.0,0.0,0.0,-2.419,-2.419,-2.419,-2.419,-2.419,-2.419,-2.419,-2.419,-2.419,-2.419,-2.419,-2.4054,-2.3795,-2.3795,-2.3795,-2.3795,-2.3795,-2.3958,-2.419,0.0,0.0,0.0,0.0,0.0,0.0,0.0,-2.9888,0.0,-2.9583,-3.0176,-3.048,-3.0091,-3.0734,-3.119,-3.119,-3.119,-3.119,-3.119,-3.0869,-3.0159,-2.9025,-2.8619,0.0,-2.6725,-2.4898,-2.3765,-2.3393,-2.0365,-1.8155,-1.6699,-1.6699,-1.59,-1.4596,0.0,-1.8877,0.0,0.0,0.0,-2.3951,-2.4041,-2.4255,-2.4363,-2.3326,-2.2589,-2.2075,-2.1499,-2.1446,-2.1691,-2.2152,-2.231,-2.231,-2.231,-2.231,-2.231,-2.231,-2.231,-2.231,-2.231,-2.231,-2.231,-2.231,-2.231,-2.231,-2.231,-2.231,-2.231,-2.231,-2.2106,-2.1794,-2.1385,-2.1,0.0,0.0,0.0,0.0,0.0,0.0,0.0,0.0,0.0,0.0,0.0,0.0,0.0,0.0,0.0,0.0,0.0,0.0,0.0,0.0,0.0,0.0,0.0,0.0,0.0,-2.419,-2.419,-2.419,-2.419,-2.419,-2.419,-2.419,-2.419,-2.419,-2.419,-2.4016,-2.3855,-2.3692,-2.3522,-2.3437,-2.3459,-2.3649,-2.3795,-2.3976,0.0,-2.8805,0.0,0.0,-2.9702,0.0,0.0,-3.0734,-3.0768,-2.96,-2.9973,-3.0108,-2.9516,-3.0497,-3.119,-3.119,-3.1055,-3.1021,-3.119,-3.0903,-3.0277,-2.9262,-2.8907,-2.818,-2.6962,-2.5473,-2.4289,0.0,0.0,0.0,0.0,-1.7105,-1.6542,-1.5561,0.0,0.0,0.0,0.0,-2.3311,-2.3483,-2.3704,-2.3951,-2.4046,-2.2649,-2.213,-2.2069,-2.1167,-2.0957,-2.1215,-2.2073,-2.2269,-2.218,-2.2282,-2.231,-2.231,-2.231,-2.231,-2.231,-2.231,-2.231,-2.231,-2.231,-2.2225,-2.218,-2.2282,-2.2152,-2.2077,-2.2254,-2.2003,-2.1628,-2.1213,-2.1229,0.0,0.0,0.0,0.0,0.0,0.0,0.0,0.0,0.0,0.0,0.0,0.0,0.0,0.0,0.0,0.0,0.0,0.0,0.0,0.0,0.0,0.0,-2.2847,0.0,-2.4094,0.0,-2.417,-2.419,-2.419,-2.419,-2.419,-2.419,-2.419,-2.417,-2.4074,-2.3816,-2.3628,-2.3459,-2.3189,-2.3093,-2.3141,-2.3459,-2.3649,-2.3753,0.0,0.0,0.0,0.0,0.0,0.0,0.0,-3.0734,-3.114,-3.1004,-3.1055,-3.1072,-3.0987,-3.1106,-3.119,-3.119,-3.0598,-3.0497,-3.1157,-2.9939,-2.9431,-2.9973,-2.867,-2.7823,-2.7688,-2.6268,-2.4814,0.0,0.0,0.0,0.0,-1.8386,-1.8623,-1.8555,0.0,0.0,0.0,-2.2258,-2.3046,-2.3687,-2.3955,-2.3751,-2.3173,-2.2577,-2.1599,-2.0527,-2.0398,-2.0752,-2.1405,-2.2345,-2.2217,-2.1718,-2.218,-2.231,-2.231,-2.231,-2.231,-2.231,-2.231,-2.231,-2.231,-2.231,-2.1974,-2.1794,-2.2209,-2.1691,-2.1354,-2.2152,-2.2282,-2.2106,-2.1628,-2.1899,-2.1797,0.0,0.0,0.0,0.0,0.0,0.0,0.0,0.0,0.0,0.0,0.0,0.0,0.0,0.0,0.0,0.0,0.0,0.0,0.0,0.0,-2.0999,-2.1746,-2.3075,0.0,-2.3735,-2.4036,-2.419,-2.419,-2.419,-2.419,-2.419,-2.419,-2.4016,-2.3735,-2.3714,-2.3346,-2.2797,-2.2772,-2.2746,-2.2797,-2.3117,-2.3437,-2.3753,0.0,0.0,0.0,0.0,0.0,0.0,0.0,-3.1004,-3.119,-3.119,-3.119,-3.119,-3.119,-3.119,-3.119,-3.119,-3.092,-3.0886,-3.1173,-3.0226,-2.9583,-2.9448,-2.8399,-2.757,-2.7165,-2.6133,-2.5321,0.0,0.0,0.0,0.0,0.0,0.0,0.0,0.0,-2.2107,-2.2598,-2.3885,-2.4381,-2.4375,-2.4664,-2.4607,-2.4228,-2.3033,-2.2401,-2.2059,-2.1408,-2.1288,-2.1629,-2.2107,-2.2557,-2.2862,-2.2925,-2.297,-2.2868,-2.2446,-2.231,-2.231,-2.231,-2.231,-2.231,-2.231,-2.2163,-2.2077,-2.2254,-2.202,-2.1886,-2.2225,-2.2077,-2.1823,-2.1628,-2.1748,-2.1724,0.0,0.0,0.0,0.0,0.0,0.0,0.0,0.0,0.0,0.0,0.0,0.0,0.0,0.0,-1.363,-1.4927,0.0,0.0,-1.8568,0.0,-2.0848,-2.1593,-2.2794,-2.35,-2.3692,-2.3837,-2.3996,-2.419,-2.419,-2.419,-2.419,-2.3996,-2.3816,-2.3671,-2.3277,-2.2947,-2.2669,-2.2527,-2.2463,-2.2517,-2.3014,-2.3282,-2.3477,-3.3677,0.0,-3.2611,0.0,-3.2002,-3.1444,-3.1224,-3.119,-3.119,-3.119,-3.119,-3.119,-3.119,-3.119,-3.119,-3.119,-3.1004,-3.097,-3.119,-3.0311,-2.9736,-2.9634,-2.8467,0.0,-2.7368,-2.642,-2.5828,-2.5609,-2.4052,0.0,0.0,0.0,0.0,0.0,-2.2716,-2.3241,-2.3799,-2.4745,-2.4942,-2.459,-2.4687,-2.4626,-2.4327,-2.3147,-2.2763,-2.2769,-2.2003,-2.1919,-2.2254,-2.2548,-2.3432,-2.4199,-2.3345,-2.3224,-2.3257,-2.253,-2.231,-2.231,-2.231,-2.231,-2.2282,-2.2135,-2.202,-2.1945,-2.2077,-2.1915,-2.1764,-2.2032,-2.1928,-2.1794,-2.1794,-2.1794,-2.1728,0.0,0.0,0.0,0.0,0.0,0.0,0.0,-1.9164,-1.8166,0.0,0.0,0.0,0.0,0.0,-1.3992,-1.5129,0.0,0.0,0.0,0.0,0.0,0.0,0.0,-2.3165,-2.3414,-2.3628,-2.3816,-2.4054,-2.4151,-2.4151,-2.4036,-2.3795,-2.3588,-2.3369,-2.2898,-2.266,-2.2563,-2.236,-2.231,-2.2377,-2.2982,-2.3189,-2.33,-3.4336,-3.3897,-3.3389,-3.3389,-3.2763,-3.2019,-3.1309,-3.119,-3.119,-3.119,-3.119,-3.119,-3.119,-3.119,-3.119,-3.119,-3.0531,-3.0429,-3.114,-2.982,-2.9651,0.0,0.0,-2.818,-2.8941,-2.7469,-2.6336,-2.5609,0.0,0.0,-2.3359,0.0,-2.3748,-2.4472,-2.4472,-2.4489,-2.4478,-2.4197,-2.4122,-2.4074,-2.3732,-2.3278,-2.2724,-2.2724,-2.2278,-2.171,-2.1695,-2.2413,-2.3468,-2.4,-2.496,-2.5556,-2.3093,-2.2818,-2.3257,-2.253,-2.231,-2.231,-2.231,-2.231,-2.218,-2.1718,-2.1306,-2.1118,-2.1538,-2.0927,-2.0567,-2.1413,-2.1957,-2.2282,-2.2282,-2.2282,-2.2057,-2.1312,0.0,0.0,0.0,0.0,0.0,0.0,-1.8701,-1.7811,-1.7794,0.0,0.0,0.0,0.0,0.0,0.0,0.0,0.0,-1.8866,-2.0391,0.0,-2.1204,-2.2194,-2.2721,-2.2721,-2.3392,-2.3692,-2.3714,-2.4054,-2.4016,-2.3714,-2.3692,-2.3305,-2.2721,-2.2695,-2.2537,-2.231,-2.231,-2.231,-2.2377,-2.2982,-2.3189,-2.33,-3.5216,-3.5064,-3.4759,-3.4235,-3.3541,-3.2797,-3.2053,-3.1512,-3.119,-3.119,-3.119,-3.119,-3.119,0.0,-3.119,0.0,-3.0987,-3.0954,0.0,-3.0294,-2.9956,-3.0429,-2.9262,-2.8484,-2.8197,-2.7706,-2.7097,-2.6353,0.0,0.0,0.0,-2.4137,-2.4286,-2.4523,-2.5017,-2.5059,-2.473,-2.5196,-2.4976,-2.4295,-2.4189,-2.38,-2.331,-2.331,-2.3176,-2.2996,-2.2996,-2.3462,-2.4082,-2.4115,-2.4956,-2.5737,-2.4267,-2.3951,-2.4002,-2.3274,-2.2699,-2.231,-2.231,-2.231,-2.218,-2.1718,-2.1735,-2.184,-2.1658,-2.1628,-2.1735,-2.2003,-2.2209,-2.231,-2.231,-2.231,-2.2226,-2.1989,0.0,0.0,0.0,0.0,0.0,0.0,0.0,-1.8758,0.0,-1.842,0.0,0.0,0.0,0.0,0.0,0.0,0.0,0.0,-2.0128,0.0,-2.1204,-2.2014,-2.2527,-2.2695,-2.2923,-2.3259,-2.3692,-2.3816,-2.3795,-2.3692,-2.3459,-2.3117,-2.2695,-2.25,-2.2388,-2.231,-2.231,-2.231,-2.2377,-2.2982,-2.3189,-2.33,-3.5622,-3.5622,-3.5385,-3.4624,-3.3897,-3.3152,-3.2391,-3.1664,-3.119,-3.119,-3.119,-3.119,-3.119,-3.119,0.0,-3.119,-3.119,0.0,-3.119,-3.0768,-3.0514,-3.0514,-2.9803,-2.9178,-2.8687,0.0,0.0,-2.7114,-2.637,-2.5778,-2.5321,-2.5321,-2.5321,-2.5338,-2.5631,-2.5579,-2.5266,-2.5382,-2.5012,-2.4389,-2.4184,-2.3921,-2.3595,-2.3595,-2.3595,-2.3595,-2.3595,-2.4074,-2.4673,-2.4573,-2.5277,-2.613,-2.5527,-2.4963,-2.4371,-2.3613,-2.3071,-2.2649,-2.2395,-2.231,-2.218,-2.1718,-2.1823,-2.1974,-2.1658,-2.1957,-2.231,-2.231,-2.231,-2.231,-2.231,-2.231,-2.231,-2.231,0.0,0.0,0.0,0.0,0.0,0.0,0.0,0.0,0.0,-1.9858,0.0,0.0,0.0,0.0,0.0,0.0,0.0,-1.9063,-2.072,0.0,-2.16,-2.2073,-2.2388,-2.2563,-2.266,-2.2996,-2.3522,-2.3649,-2.3566,-2.3323,-2.3253,-2.2965,-2.2537,-2.236,-2.231,-2.231,-2.231,-2.236,-2.2517,-2.3014,-2.3277,-2.3477,-3.5622,-3.5622,0.0,0.0,-3.3964,0.0,-3.2476,-3.1732,-3.1258,-3.1207,-3.119,-3.119,-3.119,-3.119,-3.119,-3.119,0.0,0.0,0.0,-3.119,-3.119,-3.119,-3.0548,0.0,-3.004,-2.8636,-2.7806,-2.7705,-2.7046,-2.6691,-2.6691,-2.6691,-2.6691,-2.6691,-2.6227,-2.6013,-2.5888,-2.4855,-2.443,-2.4307,-2.3794,-2.3595,-2.3595,-2.3595,-2.3595,-2.3595,-2.3595,-2.4266,-2.5221,-2.5221,-2.5855,-2.6691,-2.6691,-2.5744,-2.4506,-2.3697,-2.3393,-2.3173,-2.2496,-2.231,-2.218,-2.1718,-2.1582,-2.1628,-2.1658,-2.2003,-2.231,-2.231,-2.231,-2.231,-2.231,-2.231,-2.231,-2.231,-2.231,-2.2293,-2.2243,0.0,0.0,0.0,0.0,0.0,0.0,-2.0839,-2.1237,0.0,0.0,0.0,0.0,0.0,0.0,-2.117,-2.1921,-2.231,-2.231,-2.231,-2.231,-2.231,-2.2563,-2.2848,-2.3165,-2.35,-2.33,-2.2721,-2.3021,-2.2849,-2.231,-2.231,-2.231,-2.231,-2.231,-2.2463,-2.2746,-2.3069,-2.3414,-2.3753,0.0,0.0,-3.5554,-3.5385,-3.4726,-3.3981,-3.3254,-3.251,-3.1833,-3.1258,-3.119,-3.119,-3.119,-3.119,-3.119,-3.119,-3.119,-3.119,-3.119,-3.119,-3.119,-3.119,-3.1021,-3.0412,-2.9262,-2.889,-2.8129,-2.6962,-2.6776,-2.6691,-2.6691,-2.6691,-2.6691,-2.6691,-2.6573,-2.6104,-2.5373,-2.5144,-2.4552,-2.3794,-2.3638,-2.3595,-2.3595,-2.3595,-2.3595,-2.3595,-2.3595,-2.4266,-2.5221,-2.5221,-2.5855,-2.6691,-2.6691,-2.6454,-2.5913,-2.4611,-2.3427,-2.253,-2.2361,-2.231,-2.218,-2.1718,-2.1582,-2.1688,-2.2032,-2.2209,-2.231,-2.231,-2.231,-2.231,-2.231,-2.231,-2.231,-2.231,-2.231,-2.2107,-2.1532,0.0,0.0,0.0,-2.0899,-2.094,-2.1674,-2.1938,-2.1566,0.0,0.0,0.0,0.0,0.0,-2.0883,-2.1204,-2.1921,-2.231,-2.231,-2.231,-2.231,-2.231,-2.236,-2.2554,-2.2822,-2.2898,-2.2848,-2.2695,-2.2797,-2.2616,-2.231,-2.231,-2.231,-2.231,-2.231,-2.2463,-2.2746,-2.3069,-2.3414,-2.3753,-3.5622,-3.5622,-3.5622,-3.5622,-3.4996,-3.437,-3.3964,-3.3271,-3.2527,-3.1782,-3.1681,-3.1562,-3.1241,-3.119,-3.119,-3.119,-3.119,-3.119,-3.119,-3.119,-3.119,-3.119,-3.119,-3.0818,-3.0006,-2.9367,-2.823,-2.6691,-2.6691,-2.6691,-2.6691,-2.6691,-2.6691,-2.6691,-2.6229,-2.5709,-2.5182,-2.4672,-2.4116,-2.3595,-2.3595,-2.3595,-2.3595,-2.3595,-2.3595,-2.3638,-2.3879,-2.4511,-2.5259,-2.5486,-2.6052,-2.6691,-2.6691,-2.6471,-2.6031,-2.5236,-2.4188,-2.3156,-2.2496,-2.231,-2.2237,-2.1974,-2.1928,-2.2003,-2.2237,-2.231,-2.231,-2.231,-2.231,-2.231,-2.231,-2.231,-2.231,-2.231,-2.231,-2.2175,-2.1752,-2.1397,0.0,-2.1651,-2.1397,-2.1481,-2.2243,-2.2106,-2.1725,-2.11,0.0,0.0,-2.1066,-2.1465,-2.1701,-2.1701,-2.209,-2.231,-2.231,-2.231,-2.231,-2.231,-2.231,-2.2388,-2.2527,-2.2634,-2.2634,-2.251,-2.2634,-2.2537,-2.231,-2.231,-2.231,-2.231,-2.231,-2.2571,-2.2947,-2.3141,-2.3522,-2.3937,-3.5622,-3.5622,-3.5622,-3.5622,-3.5081,-3.4624,-3.4506,-3.3964,-3.3305,-3.2544,-3.2459,-3.2171,-3.1444,-3.136,-3.1309,-3.1207,-3.119,-3.119,-3.119,-3.119,-3.119,-3.119,-3.119,-3.114,-3.1038,-2.9685,-2.8281,-2.686,-2.686,-2.681,-2.6691,-2.6691,-2.6691,-2.6657,-2.5709,-2.5259,-2.5144,-2.4158,-2.3681,-2.3595,-2.3595,-2.3638,-2.3724,-2.3638,-2.3724,-2.3879,-2.4266,-2.4776,-2.5373,-2.5852,-2.6297,-2.6691,-2.6691,-2.6268,-2.5744,-2.5642,-2.5152,-2.4323,-2.2868,-2.2395,-2.231,-2.231,-2.231,-2.231,-2.231,-2.231,-2.231,-2.231,-2.231,-2.231,-2.231,-2.231,-2.231,-2.231,-2.231,-2.2276,-2.2158,0.0,0.0,-2.2073,-2.1613,-2.1501,-2.2141,-2.1764,-2.1705,-2.2163,-2.1823,0.0,0.0,-2.231,-2.231,-2.231,-2.231,-2.231,-2.231,-2.231,-2.231,-2.231,-2.231,-2.231,-2.231,-2.2537,-2.2527,-2.231,-2.2537,-2.25,-2.231,-2.231,-2.231,-2.231,-2.2349,-2.2695,-2.3212,-2.3277,-2.3671,-2.419,-3.5622,-3.5622,-3.5622,-3.5622,-3.552,-3.5233,-3.459,-3.4387,-3.4066,-3.3339,-3.3237,-3.2949,-3.2188,-3.2121,-3.1867,-3.1241,-3.119,-3.119,-3.119,-3.119,-3.119,-3.119,-3.119,-3.0903,-3.0294,-2.9431,-2.8552,-2.7638,-2.7638,-2.7317,-2.6691,-2.6691,-2.6691,-2.6691,-2.6104,-2.5615,-2.5144,-2.4552,-2.3991,-2.3595,-2.3595,-2.3879,-2.4241,-2.3752,-2.4158,-2.4894,-2.4552,-2.5028,-2.5888,-2.5961,-2.6297,-2.6691,-2.6691,-2.6623,-2.6404,-2.5795,-2.5524,-2.5118,-2.363,-2.2784,-2.231,-2.231,-2.231,-2.231,-2.231,-2.231,-2.231,-2.231,-2.231,-2.231,-2.231,-2.231,-2.231,-2.231,-2.231,-2.209,0.0,0.0,-2.1938,-2.1414,-2.1473,-2.1586,-2.1718,-2.1354,-2.1244,-2.1688,-2.1658,-2.1794,-2.2265,-2.231,-2.231,-2.231,-2.231,-2.231,-2.231,-2.231,-2.231,-2.231,-2.231,-2.231,-2.231,-2.2349,-2.2349,-2.231,-2.2349,-2.2349,-2.231,-2.231,-2.231,-2.2321,-2.2563,-2.2873,-2.3236,-2.3522,-2.3876,-2.419,-3.5622,-3.5622,-3.5622,-3.5622,-3.5622,-3.5504,-3.5148,-3.5098,-3.4827,-3.4083,-3.3981,-3.3558,-3.2432,-3.2313,-3.1985,-3.1258,-3.119,-3.119,-3.119,-3.119,-3.119,-3.119,-3.119,-3.0852,-3.0125,-2.977,-2.9211,-2.845,-2.845,-2.8264,-2.7926,-2.7926,-2.7926,-2.7909,-2.7008,-2.6276,-2.5726,-2.4789,-2.4074,-2.3638,-2.3921,-2.4184,-2.4389,-2.443,-2.4776,-2.5221,-2.5259,-2.5577,-2.6049,-2.6297,-2.6505,-2.6691,-2.6691,-2.6691,-2.6623,-2.6285,-2.5625,-2.4847,-2.4171,-2.3444,-2.2885,-2.2885,-2.2598,-2.231,-2.231,-2.231,-2.231,-2.231,-2.231,-2.231,-2.231,-2.231,-2.231,-2.231,-2.231,0.0,0.0,-2.209,-2.2074,-2.149,-2.152,-2.1582,-2.1582,-2.1244,-2.1291,-2.1945,-2.1718,-2.1794,-2.2265,-2.231,-2.231,-2.231,-2.231,-2.231,-2.231,-2.231,-2.231,-2.231,-2.231,-2.231,-2.231,-2.231,-2.2405,-2.2561,-2.2377,-2.2388,-2.25,-2.2377,-2.2388,-2.2527,-2.266,-2.3021,-2.35,-2.3631,-2.3917,-2.419,-3.5622,-3.5622,-3.5622,-3.5622,-3.5622,-3.5622,-3.5622,-3.5622,-3.5419,-3.4827,-3.4759,-3.4184,-3.2713,-3.2544,-3.2171,-3.1275,-3.119,-3.119,-3.119,-3.119,-3.119,-3.119,-3.119,-3.0937,-3.0378,-3.0362,-2.9989,-2.9245,-2.9245,-2.9161,-2.9011,-2.9011,-2.9011,-2.8941,-2.7674,-2.6858,-2.6405,-2.5131,-2.4348,-2.3991,-2.443,-2.4657,-2.4776,-2.5105,-2.5335,-2.5598,-2.5888,-2.6085,-2.6227,-2.659,-2.6691,-2.6691,-2.6691,-2.6691,-2.6691,-2.6691,-2.5896,-2.4946,-2.4608,-2.3951,-2.3393,-2.3393,-2.2852,-2.231,-2.231,-2.231,-2.231,-2.231,-2.231,-2.231,-2.231,-2.231,-2.231,-2.231,0.0,0.0,0.0,-2.231,-2.218,-2.1794,-2.1658,-2.1582,-2.1582,-2.1244,-2.1323,-2.2077,-2.1794,-2.1794,-2.2265,-2.231,-2.231,-2.231,-2.231,-2.231,-2.231,-2.231,-2.231,-2.231,-2.231,-2.231,-2.231,-2.231,-2.2443,-2.2651,-2.2405,-2.2426,-2.2599,-2.2388,-2.2463,-2.2721,-2.2797,-2.3165,-2.3714,-2.3795,-2.3976,-2.419,-3.5622,-3.5622,-3.5622,-3.5622,-3.5622,-3.5622,-3.5622,-3.5622,-3.5605,-3.5537,-3.5537,-3.4979,-3.3491,-3.3322,-3.2747,-3.1309,-3.119,-3.119,-3.119,-3.119,-3.119,-3.119,-3.119,-3.1173,-3.1123,-3.1123,-3.0768,-3.0023,-3.0023,-2.9668,-2.9011,-2.9011,-2.9011,-2.8941,-2.7674,-2.7064,-2.6939,-2.568,-2.5144,-2.5105,-2.5144,-2.5449,-2.5852,-2.5373,-2.5783,-2.6539,-2.6139,-2.6297,-2.6657,-2.6691,-2.6691,-2.6691,-2.6691,-2.6691,-2.6691,-2.6691,-2.6607,-2.6234,-2.4879,-2.3951,-2.3393,-2.3393,-2.2852,-2.231,-2.231,-2.231,-2.231,-2.231,-2.231,-2.231,-2.231,-2.231,-2.231,-2.231,0.0,0.0,-2.231,-2.231,-2.2282,-2.2237,-2.1853,-2.1582,-2.1582,-2.1244,-2.1181,-2.1628,-2.1612,-2.1794,-2.2265,-2.231,-2.231,-2.231,-2.231,-2.231,-2.231,-2.231,-2.231,-2.231,-2.231,-2.231,-2.231,-2.231,-2.231,-2.2338,-2.231,-2.231,-2.2321,-2.231,-2.2463,-2.2721,-2.3045,-2.3392,-2.3753,-2.4054,-2.417,-2.419,-3.5622,-3.5622,-3.5622,-3.5622,-3.5622,-3.5622,-3.5622,-3.5622,-3.5622,-3.5622,-3.5622,-3.5216,-3.4184,-3.3677,-3.2983,-3.1952,-3.1444,-3.119,-3.119,-3.119,-3.119,-3.119,-3.119,-3.119,-3.119,-3.119,-3.1055,-3.0784,-3.0784,-3.0632,-3.0345,-3.0345,-3.0345,-3.0311,-2.9379,-2.8531,-2.7712,-2.6782,-2.5907,-2.5221,-2.5577,-2.5815,-2.6013,-2.6104,-2.635,-2.6691,-2.6521,-2.6556,-2.6691,-2.6691,-2.6691,-2.6691,-2.6691,-2.6691,-2.6691,-2.6691,-2.6691,-2.6573,-2.6015,-2.5321,-2.4661,-2.4188,-2.3528,-2.2868,-2.2412,-2.231,-2.231,-2.231,-2.231,-2.231,-2.231,-2.231,-2.231,-2.231,0.0,-2.231,-2.231,-2.231,-2.218,-2.1899,-2.1718,-2.1582,-2.1582,-2.146,-2.1568,-2.2003,-2.2032,-2.2106,-2.2282,-2.231,-2.231,-2.231,-2.231,-2.231,-2.231,-2.231,-2.231,-2.231,-2.231,-2.231,-2.231,-2.231,-2.2388,-2.2537,-2.236,-2.2371,-2.2537,-2.2537,-2.2712,-2.3045,-2.3392,-2.3783,-2.4211,-2.4338,-2.4461,-2.4543,-3.5622,-3.5622,-3.5622,-3.5622,-3.5622,-3.5622,-3.5622,-3.5622,-3.5622,-3.5622,-3.5622,-3.5334,-3.4573,-3.4049,-3.3457,-3.2696,-3.1952,-3.1546,-3.1546,-3.1326,-3.119,-3.119,-3.119,-3.119,-3.119,-3.119,-3.119,-3.119,-3.119,-3.119,-3.119,-3.119,-3.119,-3.1157,-3.0429,-2.9597,-2.8743,-2.774,-2.6842,-2.6036,-2.6151,-2.636,-2.6612,-2.6927,-2.7046,-2.7046,-2.7046,-2.6894,-2.6691,-2.6521,-2.659,-2.6657,-2.6521,-2.659,-2.6691,-2.6691,-2.6691,-2.6691,-2.6691,-2.6336,-2.571,-2.4729,-2.3765,-2.2919,-2.2429,-2.231,-2.231,-2.231,-2.231,-2.231,-2.231,-2.231,-2.231,-2.231,-2.231,-2.231,-2.231,-2.231,-2.218,-2.1869,-2.1823,-2.1823,-2.1823,-2.1823,-2.1957,-2.2282,-2.231,-2.231,-2.231,-2.231,-2.231,-2.231,-2.231,-2.231,-2.231,-2.231,-2.231,-2.231,-2.231,-2.231,-2.231,-2.231,-2.2398,-2.2546,-2.2388,-2.2436,-2.2695,-2.2695,-2.2972,-2.3392,-2.361,-2.404,-2.4495,-2.4495,-2.4575,-2.4685,-3.5622,-3.5622,-3.5622,-3.5622,-3.5622,-3.5622,-3.5622,-3.5622,-3.5622,-3.5622,-3.5622,-3.5334,-3.459,-3.4489,-3.4201,-3.3474,-3.2713,-3.2313,-3.2273,-3.1596,-3.119,-3.119,-3.119,-3.119,-3.119,-3.119,-3.119,-3.119,-3.119,-3.119,-3.119,-3.119,-3.119,-3.1157,-3.0446,-3.0125,-3.0006,-2.8448,-2.7806,-2.7774,-2.7012,-2.7165,-2.7789,-2.7789,-2.7789,-2.7789,-2.7789,-2.7334,-2.664,-2.6156,-2.6297,-2.6624,-2.6156,-2.6332,-2.6691,-2.6691,-2.6691,-2.6691,-2.6691,-2.6691,-2.6336,-2.4879,-2.3393,-2.2327,-2.231,-2.231,-2.231,-2.231,-2.231,-2.231,-2.231,-2.231,-2.231,-2.231,-2.231,-2.231,-2.231,-2.231,-2.231,-2.231,-2.231,-2.231,-2.231,-2.231,-2.231,-2.231,-2.231,-2.231,-2.231,-2.231,-2.231,-2.231,-2.231,-2.231,-2.231,-2.231,-2.231,-2.231,-2.231,-2.231,-2.231,-2.231,-2.231,-2.231,-2.231,-2.2436,-2.2695,-2.2695,-2.3093,-2.3692,-2.3692,-2.404,-2.4495,-2.4512,-2.4512,-2.4512,-3.5622,-3.5622,-3.5622,-3.5622,-3.5622,-3.5622,-3.5622,-3.5622,-3.5622,-3.5622,-3.5622,-3.5537,-3.5318,-3.481,-3.4201,-3.3474,-3.2713,-3.207,-3.1546,-3.1309,-3.119,-3.119,-3.119,-3.119,-3.119,-3.119,-3.119,-3.119,-3.119,-3.119,-3.119,-3.119,-3.119,-3.119,-3.097,-3.0581,-3.0074,-2.9617,-2.9127,-2.8619,-2.8383,-2.8433,-2.8636,-2.8636,-2.8636,-2.8569,-2.801,-2.7637,-2.7367,-2.6724,-2.6573,-2.6691,-2.6556,-2.659,-2.6691,-2.6691,-2.6691,-2.6691,-2.6691,-2.6319,-2.5693,-2.4729,-2.4154,-2.3562,-2.2547,-2.231,-2.231,-2.231,-2.231,-2.231,-2.231,-2.231,-2.231,-2.231,-2.231,-2.231,-2.231,-2.231,-2.231,-2.231,-2.231,-2.231,-2.231,-2.231,-2.231,-2.231,-2.231,-2.231,-2.231,-2.231,-2.231,-2.231,-2.231,-2.231,-2.231,-2.231,-2.231,-2.231,-2.231,-2.231,-2.231,-2.231,-2.231,-2.231,-2.231,-2.2436,-2.2721,-2.2947,-2.3323,-2.3714,-2.3976,-2.4229,-2.4528,-2.4654,-2.4716,-2.4716,-3.5622,-3.5622,-3.5622,-3.5622,-3.5622,-3.5622,-3.5622,-3.5622,-3.5622,-3.5622,-3.5622,-3.5622,-3.5622,-3.5216,-3.4759,-3.432,-3.3322,-3.229,-3.1258,-3.119,-3.119,-3.119,-3.119,-3.119,-3.119,-3.119,-3.119,-3.119,-3.119,-3.119,-3.119,-3.119,-3.119,-3.119,-3.119,-3.0954,-3.0531,-3.0226,-2.9837,-2.9397,-2.9146,-2.9161,-2.9431,-2.9431,-2.9245,-2.8958,-2.8789,-2.8332,-2.7705,-2.7075,-2.6652,-2.647,-2.6657,-2.6691,-2.6691,-2.6691,-2.6691,-2.6691,-2.6691,-2.637,-2.5862,-2.5118,-2.4492,-2.3816,-2.2936,-2.2513,-2.231,-2.231,-2.231,-2.231,-2.231,-2.231,-2.231,-2.231,-2.231,-2.231,-2.231,-2.231,-2.231,-2.231,-2.231,-2.231,-2.231,-2.231,-2.231,-2.231,-2.231,-2.231,-2.231,-2.231,-2.231,-2.231,-2.231,-2.231,-2.231,-2.231,-2.231,-2.231,-2.231,-2.231,-2.231,-2.231,-2.2377,-2.2436,-2.2349,-2.2581,-2.3093,-2.3165,-2.3477,-2.3917,-2.4113,-2.4321,-2.4528,-2.4731,-2.4746,-2.4685,-3.5622,-3.5622,-3.5622,-3.5622,-3.5622,-3.5622,-3.5622,-3.5622,-3.5622,-3.5622,-3.5622,-3.5622,-3.5622,-3.5554,-3.5504,-3.5436,-3.4066,-3.2628,-3.1275,-3.119,-3.119,-3.119,-3.119,-3.119,-3.119,-3.119,-3.119,-3.119,-3.119,-3.119,-3.119,-3.119,-3.119,-3.119,-3.119,-3.119,-3.1157,-3.048,-3.0209,-3.0142,-2.9465,-2.9583,-3.0209,-3.0209,-2.9786,-2.9262,-2.9888,-2.9211,-2.794,-2.7337,-2.671,-2.6239,-2.6607,-2.6691,-2.6691,-2.6691,-2.6691,-2.6691,-2.6691,-2.6691,-2.6539,-2.5879,-2.4644,-2.3562,-2.3427,-2.2885,-2.2395,-2.2327,-2.231,-2.231,-2.231,-2.231,-2.231,-2.231,-2.231,-2.231,-2.231,-2.231,-2.231,-2.231,-2.231,-2.231,-2.231,-2.231,-2.231,-2.231,-2.231,-2.231,-2.231,-2.231,-2.231,-2.231,-2.231,-2.231,-2.231,-2.231,-2.231,-2.231,-2.231,-2.231,-2.231,-2.2321,-2.2463,-2.2695,-2.2463,-2.2875,-2.3671,-2.3369,-2.361,-2.419,-2.419,-2.4321,-2.4528,-2.4731,-2.4685,-2.4561,-3.5622,-3.5622,-3.5622,-3.5622,-3.5622,-3.5622,-3.5622,-3.5622,-3.5622,-3.5622,-3.5622,-3.5622,-3.5622,-3.5081,-3.4506,-3.3931,-3.2527,-3.1529,-3.1207,-3.119,-3.119,-3.119,-3.119,-3.119,-3.119,-3.119,-3.119,-3.119,-3.119,-3.119,-3.119,-3.119,-3.119,-3.119,-3.119,-3.119,-3.119,-3.1021,-3.0954,-3.0954,-3.0784,-3.0818,-3.0954,-3.0954,-3.0852,-3.0666,-3.026,-2.9905,-2.9394,-2.807,-2.753,-2.733,-2.6843,-2.6691,-2.6691,-2.6691,-2.6691,-2.6691,-2.6691,-2.6691,-2.6657,-2.6488,-2.5795,-2.4831,-2.3663,-2.3274,-2.3004,-2.2429,-2.231,-2.231,-2.231,-2.231,-2.231,-2.231,-2.231,-2.231,-2.231,-2.231,-2.231,-2.231,-2.231,-2.231,-2.231,-2.231,-2.231,-2.231,-2.231,-2.231,-2.231,-2.231,-2.231,-2.231,-2.231,-2.231,-2.231,-2.231,-2.231,-2.231,-2.231,-2.231,-2.231,-2.2527,-2.2634,-2.2721,-2.2915,-2.3253,-2.3692,-2.361,-2.3837,-2.419,-2.419,-2.4321,-2.4528,-2.4731,-2.4775,-2.4716,-3.5622,-3.5622,-3.5622,-3.5622,-3.5622,-3.5622,-3.5622,-3.5622,-3.5622,-3.5622,-3.5622,-3.5487,-3.5115,-3.5064,-3.459,-3.3508,-3.2374,-3.1562,-3.1207,-3.119,-3.119,-3.119,-3.119,-3.119,-3.119,-3.119,-3.1055,-3.0781,-3.0781,-3.0781,-3.0781,-3.0781,-3.0918,-3.119,-3.119,-3.119,-3.119,-3.119,-3.119,-3.119,-3.119,-3.119,-3.119,-3.119,-3.097,-3.0666,-3.0632,-3.0395,-2.9989,-2.9178,-2.867,-2.8247,-2.7469,-2.7232,-2.7165,-2.6793,-2.6691,-2.6691,-2.6691,-2.6691,-2.6691,-2.6691,-2.6404,-2.5828,-2.4712,-2.39,-2.3291,-2.2902,-2.2547,-2.231,-2.231,-2.231,-2.231,-2.231,-2.231,-2.231,-2.231,-2.231,-2.231,-2.231,-2.231,-2.2349,-2.249,-2.2473,-2.2554,-2.2738,-2.2738,-2.2738,-2.2738,-2.2738,-2.2738,-2.2738,-2.2738,-2.266,-2.25,-2.2473,-2.2426,-2.231,-2.231,-2.231,-2.231,-2.259,-2.2797,-2.2947,-2.3117,-2.3477,-2.3917,-2.3774,-2.3896,-2.419,-2.419,-2.4321,-2.4528,-2.4731,-2.4804,-2.476,-3.5622,-3.5622,-3.5622,-3.5622,-3.5622,-3.5622,-3.5622,-3.5622,-3.5622,-3.5622,-3.5504,-3.5182,-3.4556,-3.4827,-3.4506,-3.3152,-3.2459,-3.1833,-3.1241,-3.1095,-3.1055,-3.1055,-3.1055,-3.1055,-3.1055,-3.1151,-3.0878,-3.0293,-3.0293,-3.0293,-3.0293,-3.0293,-3.0601,-3.119,-3.119,-3.119,-3.119,-3.119,-3.119,-3.119,-3.119,-3.119,-3.119,-3.119,-3.0818,-3.0378,-3.097,-3.0818,-3.0277,-3.0142,-2.9685,-2.9042,-2.8264,-2.7891,-2.7689,-2.7063,-2.6793,-2.6691,-2.6691,-2.6691,-2.6691,-2.6691,-2.6691,-2.6539,-2.593,-2.4746,-2.3731,-2.3613,-2.3004,-2.2496,-2.2496,-2.2395,-2.231,-2.231,-2.231,-2.231,-2.231,-2.231,-2.231,-2.231,-2.2349,-2.2463,-2.2669,-2.2746,-2.2898,-2.3165,-2.3189,-2.3189,-2.3189,-2.3189,-2.3189,-2.3189,-2.3189,-2.3069,-2.2797,-2.2721,-2.2573,-2.236,-2.2321,-2.231,-2.231,-2.2625,-2.2947,-2.3212,-2.3323,-2.3692,-2.417,-2.3896,-2.3937,-2.419,-2.4247,-2.4339,-2.4528,-2.4741,-2.4832,-2.476,-3.5622,-3.5622,-3.5622,-3.5622,-3.5622,-3.5622,-3.5622,-3.5622,-3.5622,-3.5622,-3.5047,-3.4607,-3.4506,-3.344,-3.2391,-3.1562,-3.141,-3.1309,-3.1207,-3.0699,-3.0435,-3.0435,-3.0435,-3.0435,-3.0435,-3.0918,-3.0878,-3.0293,-3.0293,-3.0293,-3.0293,-3.0293,-3.0601,-3.119,-3.119,-3.119,-3.119,-3.119,-3.119,-3.119,-3.119,-3.119,-3.119,-3.119,-3.114,-3.1055,-3.1157,-3.114,-3.0954,-3.0328,-3.004,-2.982,-2.9059,-2.8366,-2.7772,-2.7689,-2.7199,-2.6691,-2.6691,-2.6691,-2.6691,-2.6691,-2.6691,-2.6674,-2.6573,-2.5896,-2.5118,-2.4458,-2.3748,-2.3241,-2.3241,-2.2733,-2.231,-2.231,-2.231,-2.231,-2.231,-2.231,-2.231,-2.231,-2.25,-2.266,-2.2695,-2.2972,-2.3141,-2.3189,-2.3189,-2.3189,-2.3189,-2.3189,-2.3189,-2.3189,-2.3189,-2.3165,-2.3141,-2.2848,-2.2669,-2.2634,-2.2398,-2.231,-2.231,-2.2883,-2.3165,-2.3212,-2.3816,-2.4132,-2.4208,-2.4151,-2.417,-2.4209,-2.4393,-2.4478,-2.4526,-2.4858,-2.4904,-2.479,-3.5622,-3.5622,-3.5622,-3.5622,-3.5622,-3.5622,-3.5622,-3.5622,-3.5622,-3.5622,-3.4962,-3.4336,-3.3931,-3.256,-3.1698,-3.1799,-3.1427,-3.1055,-3.0699,-3.0435,-3.0166,-2.9805,-2.9805,-2.9805,-2.9805,-3.0393,-3.0393,-2.9805,-3.0123,-3.0293,-3.0293,-3.0293,-3.0601,-3.119,-3.119,-3.119,-3.119,-3.119,-3.119,-3.119,-3.119,-3.119,-3.119,-3.119,-3.119,-3.119,-3.119,-3.119,-3.114,-3.0818,-3.0717,-3.0581,-2.9854,-2.9381,-2.8941,-2.8026,-2.7588,-2.7232,-2.681,-2.6691,-2.6691,-2.6691,-2.6691,-2.6691,-2.6691,-2.6437,-2.6015,-2.527,-2.4526,-2.3883,-2.3477,-2.3122,-2.2784,-2.2378,-2.231,-2.231,-2.231,-2.231,-2.2349,-2.25,-2.2895,-2.3221,-2.3396,-2.3656,-2.3853,-2.3926,-2.3926,-2.3885,-2.3756,-2.3774,-2.3774,-2.3774,-2.3774,-2.3671,-2.3477,-2.3141,-2.2898,-2.2695,-2.2181,-2.2049,-2.2293,-2.273,-2.2923,-2.2972,-2.3628,-2.3917,-2.3955,-2.4113,-2.419,-2.4209,-2.4303,-2.4461,-2.4682,-2.4924,-2.4917,-2.479]},{"header":{"parameterUnit":"m.s-1","parameterCategory":1,"la1":30.6,"la2":28.766,"lo1":-90.7593,"lo2":-88.6598,"dy":0.0162,"dx":0.0183,"nx":116,"ny":114,"refTime":"2024-07-02T12:00:00:Z","depth":0,"parameterNumber":3,"parameterNumberName":"V-component_of_WINDS"},"data":[0.0,0.0,0.0,0.0,0.0,0.0,0.0,0.0,0.0,0.0,0.0,0.0,0.0,0.0,0.0,0.0,0.0,0.0,0.0,0.0,0.0,0.0,0.0,0.0,0.0,0.0,0.0,0.0,0.0,0.0,0.0,0.0,0.0,0.0,0.0,0.0,0.0,0.0,0.0,0.0,0.0,0.0,0.0,0.0,0.0,0.0,0.0,0.0,0.0,0.0,0.0,0.0,0.0,0.0,0.0,0.0,0.0,0.0,0.0,0.0,0.0,0.0,0.0,0.0,0.0,0.0,0.0,0.0,0.0,0.0,0.0,0.0,0.0,0.0,0.0,0.0,0.0,0.0,0.0,0.0,0.0,0.0,0.0,0.0,0.0,0.0,0.0,0.0,0.0,0.0,0.0,0.0,0.0,0.0,0.0,0.0,0.0,0.0,0.0,0.0,0.0,0.0,0.0,0.0,0.0,0.0,0.0,0.0,0.0,0.0,0.0,0.0,0.0,0.0,0.0,0.0,0.0,0.0,0.0,0.0,0.0,0.0,0.0,0.0,0.0,0.0,0.0,0.0,0.0,0.0,0.0,0.0,0.0,0.0,0.0,0.0,0.0,0.0,0.0,0.0,0.0,0.0,0.0,0.0,0.0,0.0,0.0,0.0,0.0,0.0,0.0,0.0,0.0,0.0,0.0,0.0,0.0,0.0,0.0,0.0,0.0,0.0,0.0,0.0,0.0,0.0,0.0,0.0,0.0,0.0,0.0,0.0,0.0,0.0,0.0,0.0,0.0,0.0,0.0,0.0,0.0,0.0,0.0,0.0,0.0,0.0,0.0,0.0,0.0,0.0,0.0,0.0,0.0,0.0,0.0,0.0,0.0,0.0,0.0,0.0,0.0,0.0,0.0,0.0,0.0,0.0,0.0,0.0,0.0,0.0,0.0,0.0,0.0,0.0,0.0,0.0,0.0,0.0,0.0,0.0,0.0,0.0,0.0,0.0,0.0,0.0,0.0,0.0,0.0,0.0,0.0,0.0,0.0,0.0,0.0,0.0,0.0,0.0,0.0,0.0,0.0,0.0,0.0,0.0,0.0,0.0,0.0,0.0,0.0,0.0,0.0,0.0,0.0,0.0,0.0,0.0,0.0,0.0,0.0,0.0,0.0,0.0,0.0,0.0,0.0,0.0,0.0,0.0,0.0,0.0,0.0,0.0,0.0,0.0,0.0,0.0,0.0,0.0,0.0,0.0,0.0,0.0,0.0,0.0,0.0,0.0,0.0,0.0,0.0,0.0,0.0,0.0,0.0,0.0,0.0,0.0,0.0,0.0,0.0,0.0,0.0,0.0,0.0,0.0,0.0,0.0,0.0,0.0,0.0,0.0,0.0,0.0,0.0,0.0,0.0,0.0,0.0,0.0,0.0,0.0,0.0,0.0,0.0,0.0,0.0,0.0,0.0,0.0,0.0,0.0,0.0,0.0,0.0,0.0,0.0,0.0,0.0,0.0,0.0,0.0,0.0,0.0,0.0,0.0,0.0,0.0,0.0,0.0,0.0,0.0,0.0,0.0,0.0,0.0,0.0,0.0,0.0,0.0,0.0,0.0,0.0,0.0,0.0,0.0,0.0,0.0,0.0,0.0,0.0,0.0,0.0,0.0,0.0,0.0,0.0,0.0,0.0,0.0,0.0,0.0,0.0,0.0,0.0,0.0,0.0,0.0,0.0,0.0,0.0,0.0,0.0,0.0,0.0,0.0,0.0,0.0,0.0,0.0,0.0,0.0,0.0,0.0,0.0,0.0,0.0,0.0,0.0,0.0,0.0,0.0,0.0,0.0,0.0,0.0,0.0,0.0,0.0,0.0,0.0,0.0,0.0,0.0,0.0,0.0,0.0,0.0,0.0,0.0,0.0,0.0,0.0,0.0,0.0,0.0,0.0,0.0,0.0,0.0,0.0,0.0,0.0,0.0,0.0,0.0,0.0,0.0,0.0,0.0,0.0,0.0,0.0,0.0,0.0,0.0,0.0,0.0,0.0,0.0,0.0,0.0,0.0,0.0,0.0,0.0,0.0,0.0,0.0,0.0,0.0,0.0,0.0,0.0,0.0,0.0,0.0,0.0,0.0,0.0,0.0,0.0,0.0,0.0,0.0,0.0,0.0,0.0,0.0,0.0,0.0,0.0,0.0,0.0,0.0,0.0,0.0,0.0,0.0,0.0,0.0,0.0,0.0,0.0,0.0,0.0,0.0,0.0,0.0,0.0,0.0,0.0,0.0,0.0,0.0,0.0,0.0,0.0,0.0,0.0,0.0,0.0,0.0,0.0,0.0,0.0,0.0,0.0,0.0,0.0,0.0,0.0,0.0,0.0,0.0,0.0,0.0,0.0,0.0,0.0,0.0,0.0,0.0,0.0,0.0,0.0,0.0,0.0,0.0,0.0,0.0,0.0,0.0,0.0,0.0,0.0,0.0,0.0,0.0,0.0,0.0,0.0,0.0,0.0,0.0,0.0,0.0,0.0,0.0,0.0,0.0,0.0,0.0,0.0,0.0,0.0,0.0,0.0,0.0,0.0,0.0,0.0,0.0,0.0,0.0,0.0,0.0,0.0,0.0,0.0,0.0,0.0,0.0,0.0,0.0,0.0,0.0,0.0,0.0,0.0,0.0,0.0,0.0,0.0,0.0,0.0,0.0,0.0,0.0,0.0,0.0,0.0,0.0,0.0,0.0,0.0,0.0,0.0,0.0,0.0,0.0,0.0,0.0,0.0,0.0,0.0,0.0,0.0,0.0,0.0,0.0,0.0,0.0,0.0,0.0,0.0,0.0,0.0,0.0,0.0,0.0,0.0,0.0,0.0,0.0,0.0,0.0,0.0,0.0,0.0,0.0,0.0,0.0,0.0,0.0,0.0,0.0,0.0,0.0,0.0,0.0,0.0,0.0,0.0,0.0,0.0,0.0,0.0,0.0,0.0,0.0,0.0,0.0,0.0,0.0,0.0,0.0,0.0,0.0,0.0,0.0,0.0,0.0,0.0,0.0,0.0,0.0,0.0,0.0,0.0,0.0,0.0,0.0,0.0,0.0,0.0,0.0,0.0,0.0,0.0,0.0,0.0,0.0,0.0,0.0,0.0,0.0,0.0,0.0,0.0,0.0,0.0,0.0,0.0,0.0,0.0,0.0,0.0,0.0,0.0,0.0,0.0,0.0,0.0,0.0,0.0,0.0,0.0,0.0,0.0,0.0,0.0,0.0,0.0,0.0,0.0,0.0,0.0,0.0,0.0,0.0,0.0,0.0,0.0,0.0,0.0,0.0,0.0,0.0,0.0,0.0,0.0,0.0,0.0,0.0,0.0,0.0,0.0,0.0,0.0,0.0,0.0,0.0,0.0,0.0,0.0,0.0,0.0,0.0,0.0,0.0,0.0,0.0,0.0,0.0,0.0,0.0,0.0,0.0,0.0,0.0,0.0,0.0,0.0,0.0,0.0,0.0,0.0,0.0,0.0,0.0,0.0,0.0,0.0,0.0,0.0,0.0,0.0,0.0,0.0,0.0,0.0,0.0,0.0,0.0,0.0,0.0,0.0,0.0,0.0,0.0,0.0,0.0,0.0,0.0,0.0,0.0,0.0,0.0,0.0,0.0,0.0,0.0,0.0,0.0,0.0,0.0,0.0,0.0,0.0,0.0,0.0,0.0,0.0,0.0,0.0,0.0,0.0,0.0,0.0,0.0,0.0,0.0,0.0,0.0,0.0,0.0,0.0,0.0,0.0,0.0,0.0,0.0,0.0,0.0,0.0,0.0,0.0,0.0,0.0,0.0,0.0,0.0,0.0,0.0,0.0,0.0,0.0,0.0,0.0,0.0,0.0,0.0,0.0,0.0,0.0,0.0,0.0,0.0,0.0,0.0,0.0,0.0,0.0,0.0,0.0,0.0,0.0,0.0,0.0,0.0,0.0,0.0,0.0,0.0,0.0,0.0,0.0,0.0,0.0,0.0,0.0,0.0,0.0,0.0,0.0,0.0,0.0,0.0,0.0,0.0,0.0,0.0,0.0,0.0,0.0,0.0,0.0,0.0,0.0,0.0,0.0,0.0,0.0,0.0,0.0,0.0,0.0,0.0,0.0,0.0,0.0,0.0,0.0,0.0,0.0,0.0,0.0,0.0,0.0,0.0,0.0,0.0,0.0,0.0,0.0,0.0,0.0,0.0,0.0,0.0,0.0,0.0,0.0,0.0,0.0,0.0,0.0,0.0,0.0,0.0,0.0,0.0,0.0,0.0,0.0,0.0,0.0,0.0,0.0,0.0,0.0,0.0,0.0,0.0,0.0,0.0,0.0,0.0,0.0,0.0,0.0,0.0,0.0,0.0,0.0,0.0,0.0,0.0,0.0,0.0,0.0,0.0,0.0,0.0,0.0,0.0,0.0,0.0,0.0,0.0,0.0,0.0,0.0,0.0,0.0,0.0,0.0,0.0,0.0,0.0,0.0,0.0,0.0,0.0,0.0,0.0,0.0,0.0,0.0,0.0,0.0,0.0,0.0,0.0,0.0,0.0,0.0,0.0,0.0,0.0,0.0,0.0,0.0,0.0,0.0,0.0,0.0,0.0,0.0,0.0,0.0,0.0,0.0,0.0,0.0,0.0,0.0,0.0,0.0,0.0,0.0,0.0,0.0,0.0,0.0,0.0,0.0,0.0,0.0,0.0,0.0,0.0,0.0,0.0,0.0,0.0,0.0,0.0,0.0,0.0,0.0,0.0,0.0,0.0,0.0,0.0,0.0,0.0,0.0,0.0,0.0,0.0,0.0,0.0,0.0,0.0,0.0,0.0,0.0,0.0,0.0,0.0,0.0,0.0,0.0,0.0,0.0,0.0,0.0,0.0,0.0,0.0,0.0,0.0,0.0,0.0,0.0,0.0,0.0,0.0,0.0,0.0,0.0,0.0,0.0,0.0,0.0,0.0,0.0,0.0,0.0,0.0,0.0,0.0,0.0,0.0,0.0,0.0,0.0,0.0,0.0,0.0,0.0,0.0,0.0,0.0,0.0,0.0,0.0,0.0,0.0,0.0,0.0,0.0,0.0,0.0,0.0,0.0,0.0,0.0,0.0,0.0,0.0,0.0,0.0,0.0,0.0,0.0,0.0,0.0,0.0,0.0,0.0,0.0,0.0,0.0,0.0,0.0,0.0,0.0,0.0,0.0,0.0,0.0,0.0,0.0,0.0,0.0,0.0,0.0,0.0,0.0,0.0,0.0,0.0,0.0,0.0,0.0,0.0,0.0,0.0,0.0,0.0,0.0,0.0,0.0,0.0,0.0,0.0,0.0,0.0,0.0,0.0,0.0,0.0,0.0,0.0,0.0,0.0,0.0,0.0,0.0,0.0,0.0,0.0,0.0,0.0,0.0,0.0,0.0,0.0,0.0,0.0,0.0,0.0,0.0,0.0,0.0,0.0,0.0,0.0,0.0,0.0,0.0,0.0,0.0,0.0,0.0,0.0,0.0,0.0,0.0,0.0,0.0,0.0,0.0,0.0,0.0,0.0,0.0,0.0,0.0,0.0,0.0,0.0,0.0,0.0,0.0,0.0,0.0,0.0,0.0,0.0,0.0,0.0,0.0,0.0,0.0,0.0,0.0,0.0,0.0,0.0,0.0,0.0,0.0,0.0,0.0,0.0,0.0,0.0,0.0,0.0,0.0,0.0,0.0,0.0,0.0,0.0,0.0,0.0,0.0,0.0,0.0,0.0,0.0,0.0,0.0,0.0,0.0,0.0,0.0,0.0,0.0,0.0,0.0,0.0,0.0,0.0,0.0,0.0,0.0,0.0,0.0,0.0,0.0,0.0,0.0,0.0,0.0,0.0,0.0,0.0,0.0,0.0,0.0,0.0,0.0,0.0,0.0,0.0,0.0,0.0,0.0,0.0,0.0,0.0,0.0,0.0,0.0,0.0,0.0,0.0,0.0,0.0,0.0,0.0,0.0,0.0,0.0,0.0,0.0,0.0,0.0,0.0,0.0,0.0,0.0,0.0,0.0,0.0,0.0,0.0,0.0,0.0,0.0,0.0,0.0,0.0,0.0,0.0,0.0,0.0,0.0,0.0,0.0,0.0,0.0,0.0,0.0,0.0,-0.2029,0.0,0.0,0.0,0.0,0.0,0.0,0.0,0.0,0.0,0.0,0.0,0.0,0.0,0.0,0.0,0.0,0.0,0.0,0.0,0.0,0.0,0.0,0.0,0.0,0.0674,0.0767,0.0977,0.0629,0.0349,0.0349,0.0,0.0,0.0,0.0,0.0,0.1569,0.1501,0.1328,0.11,0.1092,0.1245,0.1573,0.1493,0.1417,0.1344,0.0,0.0,0.0,0.0,0.0,0.0,0.0,0.0,0.0,0.0,0.0,0.0,0.0,0.0,0.0,0.0,0.0,0.0,0.0,0.0,0.0,0.0,0.0,0.0,0.0,0.0,0.0,0.0,0.0,0.0,0.0,0.0,0.0,0.0,0.0,0.0,0.0,0.0,0.0,0.0,0.0,0.0,0.0,0.0,0.0,0.0,0.0,0.0,0.0,0.0,0.0,0.0,0.0,0.0,0.0,0.0,0.0,0.0,0.0,0.0,0.0,0.0,0.0,0.0,0.0,0.0,0.0,0.0,0.0,0.0,0.0,-0.3224,0.0,0.0,0.0,0.0,0.0,0.0,0.0,0.0,0.0,0.0,0.0,0.0,0.0,0.0,0.0,0.0,0.0,0.0,0.0,0.0,0.0,-0.0169,0.0635,0.0301,0.0183,0.0701,0.0295,0.0,0.0,0.0,0.0,0.0,0.0,0.0859,0.1189,0.1182,0.1093,0.0871,0.1003,0.1101,0.1248,0.1017,0.114,0.1507,0.1382,0.0,0.0,0.0,0.0,0.0,0.0,0.0,0.0,0.0,0.0,0.0,0.0,0.0,0.0,0.0,0.0,0.0,0.0,0.0,0.0,0.0,0.0,0.0,0.0,0.0,0.0,0.0,0.0,0.0,0.0,0.0,0.0,0.0,0.0,0.0,0.0,0.0,0.0,0.0,0.0,0.0,0.0,0.0,0.0,0.0,0.0,0.0,0.0,0.0,0.0,0.0,0.0,0.0,0.0,0.0,0.0,0.0,0.0,0.0,0.0,0.0,0.0,0.0,0.0,0.0,-0.0073,-0.1297,-0.2192,-0.2814,-0.3758,-0.4374,-0.4575,0.0,0.0,0.0,0.0,0.0,0.0,0.0,0.0,0.0,0.0,0.0,0.0,0.0,0.0,0.0,0.0,0.0,0.0,0.0,0.0,-0.0409,0.0747,0.035,0.0222,0.081,0.035,0.0,0.0,0.0,0.0,0.0,0.0696,0.0715,0.0794,0.0793,0.0277,-0.0789,-0.027,0.0388,0.1143,0.1612,0.1575,0.1114,0.0513,0.0131,0.0,0.0,0.0,0.0,0.0,0.0,0.0,0.0,0.0,0.0,0.0,0.0,0.0,0.0,0.0,0.0,0.0,0.0,0.0,0.0,0.0,0.0,0.0,0.0,0.0,0.0,0.0,0.0,0.0,0.0,0.0,0.0,0.0,0.0,0.0,0.0,0.0,0.0,0.0,0.0,0.0,0.0,-0.2835,-0.2932,0.0,0.0,0.0,0.0,0.0,0.0,0.0,0.0,0.0,0.0,0.0,0.0,0.0,0.0,0.0,0.0,0.0,0.0,0.0,0.0,-0.0082,-0.2007,-0.2904,-0.2989,-0.4896,0.0,-0.5033,-0.4911,0.0,0.0,0.0,0.0,0.0,0.0,0.0,0.0,0.0,0.0,0.0,0.0,0.0,0.0,0.0,0.0,0.0,0.0,0.0,0.0,0.0,0.0155,0.0126,0.035,0.0132,0.0,0.0,0.0,0.0079,0.0295,0.0306,0.0311,0.0304,-0.0082,-0.0849,-0.1889,-0.1623,-0.1047,-0.0231,0.0,0.0291,0.0472,0.0167,0.0,0.0,0.0,0.0,0.0,0.0,0.0,0.0,0.0,0.0,0.0,0.0,0.0,0.0,0.0,0.0,0.0,0.0,0.0,0.0,0.0,0.0,0.0,0.0,0.0,0.0,0.0,0.0,0.0,0.0,0.0,0.0,0.0,0.0,0.0,0.0,0.0,0.0,0.0,0.0,0.0,0.0,-0.4012,-0.4357,-0.4328,-0.3727,-0.2828,0.0,0.0,0.0,0.0,0.0,0.0,0.0,0.0,0.0,0.0,0.0,0.0,0.0,0.0,0.0,0.0,0.0,-0.0343,-0.1027,-0.2536,-0.3571,-0.4223,-0.571,-0.6162,-0.5742,-0.5426,-0.5114,-0.4823,0.0,0.0,0.0,0.0,0.0,0.0,0.0,0.0,0.0,0.0,0.0,0.0,0.0,0.0,0.0,0.0,0.0,0.0,0.0191,0.0085,0.0046,0.0193,0.0097,0.0,0.0,0.0,0.0,0.0,0.0,-0.0081,-0.0285,-0.122,-0.201,-0.2512,-0.2735,-0.2404,-0.1661,-0.1661,-0.1298,-0.0686,-0.0437,-0.0235,0.0,0.0,-0.0045,-0.0156,0.0,0.0,0.0,0.0,0.0,0.0,0.0,0.0,0.0,0.0,0.0,0.0,0.0,0.0,0.0,0.0,0.0,0.0,0.0,0.0,0.0,0.0,0.0,0.0,0.0,0.0,0.0,0.0,0.0,0.0,0.0,0.0,0.0,0.0,0.0,0.0,0.0,-0.5408,-0.5949,-0.5797,-0.5414,-0.4576,0.0,0.0,0.0,0.0,0.0,0.0,0.0,0.0,0.0,0.0,0.0,0.0,0.0,0.0,0.0,0.0,0.0,-0.0441,-0.1399,-0.2447,-0.3535,-0.4725,-0.5823,-0.6339,-0.6285,-0.5915,-0.5559,-0.5237,-0.5131,-0.4996,0.0,-0.4863,-0.4887,-0.5003,0.0,0.0,0.0,0.0,0.0,0.0,0.0,0.0,0.0,0.0,0.0,-0.0073,0.0784,0.0358,0.0232,0.08,0.0353,0.0,0.0,0.0,0.0,0.0,0.0,-0.0312,-0.1024,-0.2626,-0.3159,-0.2512,-0.3332,-0.3376,-0.2646,-0.2646,-0.262,-0.2496,-0.1605,-0.0745,0.0,0.0,-0.0152,-0.0419,-0.1026,0.0,0.0,0.0,0.0,0.0,0.0,0.0,0.0,0.0,0.0,0.0,0.0,0.0,0.0,0.0,0.0,0.0,0.0,0.0,0.0,0.0,0.0,0.0,0.0,0.0,0.0,0.0,0.0,0.0,0.0,0.0,0.0,0.0,0.0,0.0,0.0,0.0,0.0,-0.7023,-0.6354,0.0,0.0,0.0,0.0,-0.1522,-0.0582,0.0,0.0,0.0,0.0,0.0,0.0,0.0,0.0,0.0,0.0,0.0,0.0,0.0,-0.009,-0.1342,-0.2472,-0.3457,-0.4662,-0.5641,-0.6451,-0.6291,-0.5966,-0.5566,-0.5559,-0.5464,-0.5394,-0.5394,-0.542,-0.5641,0.0,0.0,0.0,-0.1803,-0.1803,-0.1803,-0.1803,-0.137,-0.1016,-0.0921,-0.0454,-0.0041,0.0,0.0144,0.0103,0.0323,0.0108,0.0,0.0,0.0,0.0,0.0,0.0,-0.0629,-0.1968,-0.3047,-0.3798,-0.4157,-0.4501,-0.4273,-0.3508,-0.3508,-0.3266,-0.2703,-0.2375,-0.2002,-0.1673,-0.0467,-0.0055,-0.0254,-0.1204,-0.1536,0.0,0.0,0.0,0.0,0.0,0.0,0.0,0.0,0.0,0.0,0.0,0.0,0.0,0.0,0.0,0.0,0.0,0.0,0.0,0.0,0.0,0.0,0.0,0.0,0.0,0.0,0.0,0.0,0.0,0.0,0.0,0.0,0.0,0.0,0.0,0.0,0.0,-0.8874,-0.8153,0.0,0.0,-0.4488,-0.3102,-0.1806,-0.134,-0.0824,0.0,0.0,0.0,0.0,0.0,0.0,0.0,0.0,0.0,0.0,0.0,-0.0368,-0.1188,-0.243,-0.3558,-0.468,-0.5914,-0.6513,-0.6756,-0.6607,-0.6339,-0.6013,-0.5911,-0.584,-0.5779,-0.5681,-0.5681,-0.5779,-0.1803,-0.1803,0.0,-0.1803,-0.1803,-0.1803,-0.1803,-0.1301,-0.0888,-0.0885,-0.0374,0.0,0.0,0.0,0.0,0.0,0.0,0.0,0.0,0.0,0.0,0.0,-0.0559,-0.1458,-0.2841,-0.3689,-0.4411,-0.5131,-0.5182,-0.4931,-0.4486,-0.4486,-0.4151,-0.3613,-0.328,-0.2981,-0.2594,-0.1053,-0.0412,-0.0501,-0.1192,-0.1478,-0.1611,0.0,0.0,0.0,0.0,0.0,0.0,0.0,0.0,0.0,0.0,0.0,0.0,0.0,0.0,0.0,0.0,0.0,0.0,0.0,0.0,0.0,0.0,0.0,0.0,0.0,0.0,0.0,0.0,0.0,0.0,0.0,0.0,0.0,0.0,0.0,-1.0211,-1.0415,-0.9658,-0.8673,-0.7491,-0.5967,-0.4484,-0.3149,-0.2747,-0.1953,-0.0732,-0.0653,-0.0477,0.0,0.0,0.0,0.0,0.0,0.0,0.0,-0.0475,-0.103,-0.1846,-0.3089,-0.4314,-0.5447,-0.616,-0.6708,-0.6922,-0.682,-0.6603,-0.6318,-0.6166,-0.6108,-0.6095,-0.5993,-0.5956,-0.6022,-0.1803,-0.1803,-0.1803,-0.1803,-0.1803,-0.1806,-0.1809,-0.1301,-0.0898,-0.0921,-0.0397,0.0,0.0,0.0,0.0,0.0,0.0,0.0,0.0,-0.0054,-0.0053,-0.0053,-0.1647,-0.2852,-0.358,-0.4601,-0.5131,-0.5138,-0.5287,-0.5428,-0.5428,-0.5428,-0.5428,-0.5359,-0.4417,-0.3547,-0.2673,-0.1694,-0.1269,-0.129,-0.1037,-0.1263,-0.19,0.0,0.0,0.0,0.0,0.0,0.0,0.0,0.0,0.0,0.0,0.0,0.0,0.0,0.0,0.0,0.0,0.0,0.0,0.0,0.0,0.0,0.0,0.0,0.0,0.0,0.0,0.0,0.0,0.0,0.0,0.0,0.0,0.0,-0.9315,-1.0814,-1.179,-1.1523,-1.0729,-0.9965,-0.9389,-0.7094,-0.5629,-0.5629,-0.4606,-0.3518,-0.2096,-0.2036,-0.147,-0.0196,-0.01,-0.0101,-0.0101,-0.0101,-0.01,-0.0098,-0.1371,-0.1919,-0.1943,-0.3227,-0.4464,-0.5364,-0.545,-0.6005,-0.6936,-0.6929,-0.6753,-0.6471,-0.6325,-0.6342,-0.6338,-0.6338,-0.6338,-0.6391,-0.1803,-0.1803,-0.1803,-0.1803,-0.1803,-0.184,-0.193,-0.1345,-0.0943,-0.1044,-0.044,0.0,0.0,0.0,0.0,0.0,-0.0504,-0.056,-0.0056,-0.0974,-0.1589,-0.1589,-0.2691,-0.345,-0.3711,-0.4637,-0.5186,-0.5298,-0.5342,-0.5428,-0.5428,-0.5428,-0.5428,-0.5359,-0.4417,-0.3882,-0.3544,-0.1993,-0.132,-0.1303,-0.1106,-0.1102,-0.1261,0.0,0.0,0.0,0.0,0.0,0.0,0.0,0.0,0.0,0.0,0.0,0.0,0.0,0.0,0.0,0.0,0.0,0.0,0.0,0.0,0.0,0.0,0.0,0.0,0.0,0.0,0.0,0.0,0.0,0.0,0.0,0.0,-1.0318,-1.0392,-1.141,-1.2398,-1.2966,-1.141,-1.0373,-1.0408,-0.8355,-0.6686,-0.5834,-0.546,-0.4749,-0.3494,-0.3455,-0.3289,-0.2892,-0.2907,-0.2414,-0.141,-0.141,-0.1406,-0.1499,-0.1871,-0.2528,-0.3462,-0.4576,-0.5238,-0.5569,-0.629,-0.6763,-0.7075,-0.697,-0.6878,-0.6776,-0.6515,-0.6349,-0.6338,-0.6338,-0.6338,-0.6331,-0.1803,-0.1803,-0.1803,-0.1803,-0.1803,-0.1854,-0.1987,-0.1364,-0.0955,-0.1089,-0.0452,0.0,0.0,0.0,0.0,0.0,-0.0657,-0.087,-0.043,-0.1492,-0.2309,-0.2762,-0.3374,-0.3884,-0.4314,-0.4893,-0.527,-0.5428,-0.5428,-0.5428,-0.5428,-0.5428,-0.5428,-0.5359,-0.4417,-0.3816,-0.3347,-0.1942,-0.1073,-0.0737,-0.0648,-0.0808,-0.1123,-0.2199,-0.3459,-0.4759,-0.5457,-0.681,-0.8284,-0.8445,0.0,0.0,0.0,0.0,0.0,0.0,0.0,0.0,0.0,0.0,0.0,0.0,0.0,0.0,0.0,0.0,0.0,0.0,0.0,0.0,0.0,0.0,0.0,0.0,-1.1121,-1.1861,-1.2607,-1.2815,-1.3053,-1.3499,-1.186,-1.0766,-1.089,-0.9055,-0.7488,-0.6801,-0.6677,-0.6129,-0.4944,-0.4794,-0.4618,-0.4016,-0.4016,-0.3314,-0.2013,-0.2514,-0.2514,-0.2012,-0.3181,-0.4037,-0.4783,-0.5962,-0.6409,0.0,-0.6847,-0.7139,-0.7132,-0.7051,-0.6946,0.0,0.0,0.0,0.0,0.0,-0.6338,-0.6338,-0.1803,-0.1803,-0.1803,-0.1803,-0.1803,-0.1838,-0.2011,-0.1397,-0.095,-0.1105,-0.0465,0.0,0.0,0.0,0.0,0.0,-0.0743,-0.1258,-0.1277,-0.1846,-0.2648,-0.3682,-0.3879,-0.4312,-0.5065,-0.5281,-0.5428,-0.5428,-0.5428,-0.5428,-0.5428,-0.5428,-0.5359,-0.5226,-0.4284,-0.3347,-0.2477,-0.1541,-0.0739,0.0,0.0,-0.0397,-0.1088,-0.1869,-0.3385,-0.5128,-0.5925,-0.734,-0.8826,-0.9173,0.0,0.0,0.0,0.0,0.0,0.0,0.0,0.0,0.0,0.0,0.0,0.0,0.0,0.0,0.0,0.0,0.0,0.0,0.0,0.0,0.0,0.0,0.0,0.0,-1.2682,-1.3423,-1.5108,-1.4409,-1.3687,-1.3851,-1.2207,-1.1084,-1.1084,-0.9099,-0.7736,-0.7736,-0.7637,-0.7132,-0.6029,0.0,0.0,0.0,0.0,-0.3817,-0.2414,-0.3616,-0.3616,-0.2515,-0.4814,-0.5963,-0.6068,-0.7095,-0.7526,-0.739,-0.7234,-0.7156,-0.7139,-0.7139,-0.6966,-0.6681,-0.6515,-0.6447,-0.6434,-0.6308,-0.6338,0.0,-0.1803,-0.1803,-0.1803,-0.1803,-0.1803,-0.1876,-0.2127,-0.1442,-0.0981,-0.1221,-0.0535,0.0,0.0,0.0,0.0,0.0,-0.122,-0.2511,0.0,0.0,-0.3645,-0.4452,-0.47,-0.4911,-0.5068,-0.5281,-0.5428,-0.5428,-0.5428,-0.5428,-0.5428,-0.5428,-0.5024,-0.4217,-0.3347,-0.241,-0.1541,-0.0605,-0.0135,0.0,0.0,-0.0066,-0.0386,-0.1668,-0.3143,-0.4727,-0.6032,-0.8165,-1.036,-1.0458,-1.0651,-1.0803,-1.025,0.0,0.0,0.0,0.0,0.0,0.0,0.0,0.0,0.0,0.0,0.0,0.0,0.0,0.0,0.0,0.0,0.0,0.0,0.0,0.0,-1.4921,-1.4212,-1.3987,-1.539,-1.4726,-1.4323,-1.5202,-1.2821,-1.1084,-1.1084,-0.8215,-0.6431,-0.6431,-0.5422,-0.512,-0.5929,-0.6029,0.0,-0.7232,-0.7232,-0.6628,-0.5225,-0.5525,-0.5525,-0.5225,0.0,0.0,-0.7588,-0.7624,-0.7584,-0.7546,-0.7394,-0.7255,-0.7139,-0.7139,-0.6966,-0.6675,-0.6407,-0.6302,-0.6298,-0.6271,-0.6338,-0.6338,-0.1803,-0.1803,-0.1803,-0.1803,-0.1803,-0.1886,-0.2164,-0.1455,-0.1,-0.1253,-0.0552,0.0,0.0,0.0,-0.0141,-0.0439,-0.1739,0.0,0.0,-0.4157,-0.4295,-0.4796,-0.5013,-0.5165,-0.5243,-0.5321,-0.5428,-0.5428,-0.5428,-0.5428,-0.5362,-0.4888,-0.442,-0.3949,-0.2611,-0.1742,-0.1274,-0.0336,0.0,0.0,0.0,0.0,-0.0131,-0.1627,-0.2905,-0.4068,-0.5963,-0.7947,-0.9828,-1.0202,-1.0597,-1.0836,-0.988,-0.8958,-0.799,0.0,0.0,0.0,0.0,0.0,0.0,0.0,0.0,0.0,0.0,0.0,0.0,0.0,0.0,-1.3947,-1.4504,0.0,-1.4372,-1.547,-1.527,-1.5187,-1.5836,-1.5529,-1.4944,-1.4242,-1.231,-1.0658,-0.943,-0.7284,-0.5727,-0.5022,-0.4418,-0.4618,-0.5929,-0.6029,-0.6631,-0.7939,-0.8038,-0.7335,-0.6029,-0.6631,-0.6631,-0.6029,-0.6566,-0.7267,-0.8031,-0.7807,-0.7706,-0.7692,-0.7468,-0.7326,-0.7244,-0.7095,-0.6902,-0.6678,-0.6454,-0.6322,-0.6338,-0.6338,-0.6338,-0.6338,-0.1803,-0.1803,-0.1803,-0.1803,-0.183,-0.192,-0.2167,-0.1468,-0.1032,-0.1283,-0.0528,-0.0039,-0.0124,-0.0125,-0.0424,0.0,0.0,0.0,0.0,-0.444,-0.466,-0.4908,-0.5084,-0.5233,-0.5425,-0.5428,-0.5428,-0.5428,-0.5428,-0.5428,-0.5362,-0.442,-0.3892,-0.3643,-0.2025,-0.1217,-0.1015,-0.0272,0.0,0.0,0.0,0.0,-0.0134,-0.1448,-0.2511,-0.3565,-0.5493,-0.7256,-0.879,-0.9377,-0.9946,-1.0187,-0.9044,-0.8474,-0.7923,-0.6611,-0.5651,0.0,0.0,0.0,0.0,0.0,0.0,0.0,0.0,0.0,-1.2305,-1.4098,-1.495,-1.5657,-1.628,-1.5881,-1.5639,-1.6053,-1.6171,-1.6282,-1.6178,-1.587,-1.4815,-1.2609,-1.1615,-1.0129,-0.7736,-0.6339,-0.5022,-0.3715,-0.3615,-0.4218,-0.5525,-0.5829,-0.6631,-0.7939,-0.8038,-0.7434,-0.6431,-0.7434,-0.7434,-0.6431,-0.7409,-0.8011,-0.8035,-0.7882,-0.7794,-0.7753,-0.7455,-0.7326,-0.7305,-0.7037,-0.6841,-0.6685,-0.6532,-0.6386,-0.6338,-0.6338,-0.6338,-0.6338,-0.1803,-0.1803,-0.1803,-0.1803,-0.1892,-0.2016,-0.2184,-0.1553,-0.1143,-0.1287,-0.0548,-0.015,-0.0589,-0.0631,-0.1142,-0.239,0.0,0.0,-0.4141,-0.4636,-0.4884,-0.4918,-0.5186,-0.5411,-0.5428,-0.5428,-0.5428,-0.5428,-0.5428,-0.5428,-0.5362,-0.442,-0.3594,-0.2778,-0.1738,-0.0836,-0.014,-0.007,0.0,0.0,0.0,0.0,-0.0067,-0.0882,-0.2083,-0.3445,-0.4303,-0.6367,-0.8731,-0.8783,-0.8888,-0.8888,-0.8731,-0.8258,-0.7571,-0.6669,0.0,-0.6076,-0.5417,-0.5387,-0.5869,-0.7094,-0.7999,-0.9414,0.0,0.0,-1.5019,-1.6991,-1.8115,-1.8914,-1.9303,-1.8616,-1.8144,-1.8786,-1.7387,-1.6201,-1.6491,-1.4616,-1.2792,-1.1582,-1.1258,-1.0129,-0.7736,-0.5544,-0.3717,-0.2314,-0.2213,-0.2815,-0.4117,-0.5322,-0.6631,-0.7939,-0.8038,-0.7939,-0.7736,-0.7939,-0.7939,-0.7736,-0.7801,-0.7909,-0.8035,-0.7882,-0.7743,-0.7607,-0.7299,-0.7166,-0.7153,-0.6993,-0.6841,-0.6685,-0.6532,-0.6386,-0.6338,-0.6338,-0.6338,-0.6338,-0.1803,-0.1935,-0.2009,-0.1923,-0.1967,-0.2089,-0.2327,-0.1658,-0.1137,-0.1268,-0.0556,-0.007,-0.0286,-0.0906,-0.1664,-0.2516,-0.3233,-0.3754,-0.4063,-0.4538,-0.4826,-0.4914,-0.5118,-0.527,-0.5425,-0.5428,-0.5428,-0.5428,-0.5428,-0.509,-0.4553,-0.368,-0.2762,-0.184,-0.0409,0.0409,0.082,0.1367,0.1289,0.0739,0.0739,0.0471,-0.0067,-0.0316,-0.1106,-0.2247,-0.3801,-0.5458,0.0,0.0,-0.7481,-0.7422,-0.6983,-0.6844,-0.6707,-0.6053,-0.6178,0.0,-0.6682,-0.688,-0.733,0.0,-0.9314,-1.0765,-1.377,-1.4977,-1.6143,-1.8592,-1.9351,-1.9785,-2.0215,-1.8861,-1.784,0.0,-1.7366,-1.6045,-1.4916,-1.443,-1.3183,-1.0697,-1.014,-0.8714,-0.5627,-0.4422,-0.3081,-0.1007,-0.1511,-0.2614,-0.3915,-0.5222,-0.6631,-0.7939,-0.8038,-0.8038,-0.8038,-0.8038,-0.8038,-0.8038,-0.7974,-0.7977,-0.8038,-0.7974,-0.7818,-0.7587,-0.737,-0.7224,-0.7136,-0.7078,-0.6966,-0.6817,-0.6664,-0.6515,-0.6373,-0.6291,-0.6338,-0.6338,-0.2125,-0.2187,-0.2221,-0.2296,-0.2251,-0.226,-0.2475,-0.1738,-0.118,-0.1298,-0.0536,-0.0034,-0.0168,-0.1289,-0.2146,-0.2462,-0.34,-0.4019,-0.4019,-0.4443,-0.4741,-0.485,-0.5216,-0.5499,-0.5683,-0.599,-0.6013,-0.5752,-0.5752,-0.515,-0.3949,-0.3078,-0.2083,-0.088,0.061,0.1289,0.1356,0.2032,0.1755,0.094,0.094,0.0536,0.0,0.0,-0.0429,-0.1326,-0.3173,-0.4375,0.0,0.0,-0.6264,-0.619,-0.5649,-0.5726,-0.6006,-0.5946,-0.6488,-0.7207,-0.7521,-0.8038,0.0,-0.9484,-1.0532,-1.2068,-1.4848,-1.568,-1.6693,-1.9372,-1.9824,-1.9759,-1.9841,-1.8635,-1.7504,-1.7387,-1.671,-1.5549,-1.3824,-1.3549,-1.2569,-0.9991,-0.9079,-0.7346,-0.4057,-0.3801,-0.2859,-0.0705,-0.1812,-0.3115,-0.4518,-0.5824,-0.7033,-0.7939,-0.8038,-0.8038,-0.8038,-0.8038,-0.8038,-0.8038,-0.8038,-0.8038,-0.8038,-0.7994,-0.7838,-0.759,-0.7438,-0.7285,-0.7139,-0.7139,-0.7058,-0.6912,-0.6759,-0.6607,-0.6454,-0.6315,-0.6338,-0.6338,-0.2956,-0.259,-0.2393,-0.2975,-0.2859,-0.2633,-0.2518,-0.1802,-0.1303,-0.1305,-0.0536,-0.0168,-0.0639,-0.177,-0.2501,-0.2501,-0.34,-0.4019,-0.4019,-0.4443,-0.4694,-0.4697,-0.5766,-0.6387,-0.6396,-0.7402,-0.7502,-0.6654,-0.6654,-0.5731,-0.3949,-0.3078,-0.1763,0.0,0.0906,0.1326,0.1326,0.1326,0.0826,0.0067,0.0067,0.0,0.0,0.0,-0.0484,-0.1229,-0.1977,0.0,0.0,-0.5129,-0.5398,-0.5512,-0.5339,-0.5398,0.0,-0.6727,-0.769,0.0,0.0,0.0,-0.9829,-1.0538,-1.1749,-1.3474,-1.6239,-1.6519,-1.6918,-1.9354,-1.959,-1.9004,-1.8119,-1.8127,-1.783,-1.6408,-1.529,-1.4521,-1.3975,-1.1447,-0.9612,-0.9524,-0.8276,-0.6406,0.0,-0.3769,-0.3252,-0.2011,-0.3215,-0.4518,-0.5829,-0.7235,-0.7939,-0.8038,-0.8038,-0.8038,-0.8038,-0.8038,-0.8038,-0.8038,-0.8038,-0.8038,-0.8035,-0.7885,-0.774,-0.759,-0.7438,-0.7285,-0.7139,-0.7139,-0.7058,-0.6912,-0.6759,-0.6607,-0.6454,-0.6315,-0.6338,-0.6412,-0.3038,-0.3088,-0.3063,-0.3102,-0.3174,-0.298,-0.229,-0.1687,-0.1206,-0.094,-0.0381,0.0,0.0,0.0,0.0,0.0,-0.3546,-0.387,-0.387,-0.4199,-0.4601,-0.5194,-0.5711,-0.6371,-0.7125,-0.6944,-0.6788,-0.6719,-0.6141,-0.4878,-0.3145,-0.2811,-0.1751,0.0068,0.0885,0.1292,0.1359,0.197,0.1708,0.0894,0.0863,0.0527,0.0,0.0,-0.0178,-0.0526,0.0,0.0,0.0,-0.424,-0.4551,-0.4627,-0.4572,0.0,0.0,-0.7976,-0.8865,-0.936,-0.9906,0.0,-1.1288,-1.1929,-1.3341,-1.4803,-1.6102,-1.7047,-1.7957,-1.9216,-1.8705,-1.7979,-1.7953,-1.6885,-1.5699,-1.4972,-1.4147,-1.2992,-1.1487,-1.035,-0.9337,-0.8489,-0.7886,0.0,0.0,0.0,0.0,-0.211,-0.4019,-0.5525,-0.5929,-0.7235,-0.8038,-0.8038,-0.8038,-0.8038,-0.8038,-0.8038,-0.8038,-0.8038,-0.8038,-0.8038,-0.8031,-0.7784,-0.7645,-0.7587,-0.7329,-0.7187,-0.7139,-0.7139,-0.7112,-0.7044,-0.6797,-0.6668,-0.6593,-0.6349,-0.6338,-0.6412,-0.3502,-0.3631,-0.3614,-0.3459,-0.3454,0.0,0.0,0.0,0.0,0.0,0.0,0.0,0.0,0.0,0.0,0.0,0.0,-0.3792,-0.3792,-0.4026,-0.4386,-0.5015,-0.5454,-0.6085,-0.6954,-0.6722,-0.6577,-0.6519,-0.5958,-0.4669,-0.2599,-0.2599,-0.1496,0.0457,0.1042,0.1302,0.1366,0.1951,0.1643,0.0867,0.0837,0.0511,0.0,0.0,-0.0175,0.0,0.0,0.0,-0.3169,-0.3818,-0.407,-0.4246,-0.4505,0.0,0.0,0.0,-0.9571,-1.0361,-1.1323,-1.1877,-1.2466,-1.3446,-1.4598,-1.5694,-1.674,-1.7523,-1.8152,-1.836,-1.7614,-1.6783,-1.6188,-1.4836,-1.367,-1.3355,-1.2283,-1.1161,-1.0121,-0.9449,-0.8764,-0.7904,-0.7729,-0.713,0.0,0.0,0.0,-0.3615,-0.5024,-0.6229,-0.6731,-0.7537,-0.8038,-0.8038,-0.8038,-0.8038,-0.8038,-0.8038,-0.8038,-0.8038,-0.8038,-0.8038,-0.8031,-0.7787,-0.7648,-0.7587,-0.7333,-0.719,-0.7139,-0.7139,-0.7139,-0.7109,-0.6814,-0.6702,-0.6664,-0.6369,-0.6338,-0.649,-0.4349,-0.4197,-0.4041,0.0,0.0,0.0,0.0,0.0,0.0,0.0,0.0,0.0,0.0,0.0,0.0,0.0,0.0,0.0,-0.3782,-0.3924,0.0,-0.4219,-0.5056,-0.5646,-0.6024,-0.6842,-0.6899,-0.622,-0.616,-0.4887,-0.2519,-0.2519,-0.1167,0.1232,0.1232,0.1232,0.1232,0.1232,0.074,0.0,0.0,0.0,0.0,0.0,0.0,0.0,0.0,0.0,0.0,-0.3824,0.0,0.0,0.0,0.0,0.0,0.0,0.0,-1.1236,-1.1911,-1.2499,-1.3383,-1.5004,-1.5619,-1.623,-1.7873,-1.7943,-1.7496,-1.6851,-1.6324,-1.5291,-1.3243,0.0,-1.1806,-1.1578,-1.0052,-0.9169,-0.9786,-0.868,-0.7824,0.0,0.0,0.0,0.0,0.0,0.0,-0.6229,0.0,-0.6631,-0.7939,-0.8038,-0.8038,-0.8038,-0.8038,-0.8038,-0.8038,-0.8038,-0.8038,-0.8038,-0.8038,-0.8035,-0.8021,-0.7868,-0.7723,-0.758,-0.7424,-0.7275,-0.7139,-0.7139,-0.7139,-0.7109,-0.6814,-0.6702,-0.6664,-0.6369,-0.6338,-0.6567,0.0,0.0,0.0,0.0,0.0,0.0,0.0,0.0,0.0,0.0,0.0,0.0,0.0,0.0,0.0,0.0,0.0,0.0,-0.3636,-0.3771,0.0,0.0,0.0,-0.5747,-0.6599,-0.6318,-0.6209,-0.622,-0.557,-0.4293,-0.2519,-0.2519,-0.1476,0.0308,0.0308,0.0308,0.0308,0.0308,0.0188,0.0,0.0,0.0,0.0,0.0,0.0,0.0,0.0,0.0,0.0,0.0,0.0,0.0,0.0,-0.8624,-0.9454,0.0,0.0,-1.3068,-1.3806,-1.4942,-1.5991,-1.6597,-1.7221,-1.7692,-1.7792,-1.7397,-1.6815,-1.6129,-1.4423,-1.2869,-1.235,0.0,0.0,-0.9848,-0.9411,0.0,-0.8404,-0.8129,0.0,-0.798,0.0,-0.7783,-0.7483,-0.7816,0.0,0.0,-0.7537,-0.7637,-0.7939,-0.8038,-0.8038,-0.8038,-0.8038,-0.8038,-0.8038,-0.8038,-0.8038,-0.8038,-0.8038,-0.798,-0.7865,-0.7719,-0.7573,-0.7421,-0.7265,-0.7177,-0.7139,-0.7139,-0.7139,-0.7109,-0.6814,-0.6702,-0.6664,-0.6369,-0.6338,-0.6567,0.0,0.0,0.0,0.0,0.0,0.0,0.0,0.0,0.0,0.0,0.0,0.0,0.0,0.0,0.0,0.0,0.0,0.0,0.0,-0.3653,0.0,-0.4388,-0.451,-0.489,-0.5557,-0.5198,-0.512,-0.5349,0.0,0.0,-0.2359,-0.2359,-0.1535,0.0,0.0,0.0,0.0,0.0,0.0,0.0,0.0,0.0,0.0,0.0,0.0,0.0,0.0,0.0,0.0,0.0,0.0,-0.7746,-0.9029,-0.9845,-1.0511,-1.1497,0.0,-1.42,-1.4824,-1.6039,-1.7229,-1.7848,-1.7856,-1.7611,-1.7433,-1.6634,-1.5586,-1.4139,-1.272,0.0,-1.1076,-0.99,0.0,0.0,0.0,0.0,-0.7856,-0.7943,-0.8038,0.0,-0.8038,0.0,-0.8038,-0.8038,-0.8038,0.0,-0.8038,-0.8038,-0.8038,-0.8038,-0.8038,-0.8038,-0.8038,-0.8038,-0.8038,-0.8038,-0.8038,-0.8038,-0.8038,-0.796,-0.7804,-0.7665,-0.7516,-0.7363,0.0,-0.7139,-0.7139,-0.7139,-0.7139,-0.7109,-0.6814,-0.6702,-0.6664,-0.6369,-0.6338,-0.6567,0.0,0.0,0.0,0.0,0.0,0.0,0.0,0.0,0.0,-0.1045,0.0,0.0,0.0,0.0,0.0,0.0,0.0,0.0,0.0,0.0,-0.3767,-0.3894,-0.3708,-0.3737,-0.4016,-0.4039,-0.4073,0.0,0.0,0.0,0.0,0.0,0.0,0.0,0.0,0.0,0.0,0.0,0.0,0.0,0.0,0.0,0.0,0.0,0.0,0.0,0.0,0.0,0.0,0.0,-0.8533,-0.9235,-0.9928,-1.0846,-1.171,-1.2265,-1.3708,-1.5164,-1.5507,-1.6613,-1.7989,-1.8957,-1.8127,-1.7047,-1.7006,-1.5711,-1.3942,-1.1887,0.0,-1.0814,-0.967,-0.8466,-0.7798,-0.8314,0.0,-0.7105,-0.7699,-0.7913,-0.8018,-0.8038,-0.8038,-0.8038,-0.8038,-0.8038,-0.8038,-0.8038,-0.8038,-0.8038,-0.8038,-0.8038,-0.8038,-0.8038,-0.8038,-0.8038,-0.8038,-0.8038,-0.8038,-0.8038,-0.8018,-0.7929,-0.7777,-0.7634,-0.7485,-0.7333,0.0,0.0,-0.7139,-0.7139,-0.7139,-0.7109,-0.6814,-0.6702,-0.6664,-0.6369,-0.6338,-0.6567,0.0,0.0,0.0,0.0,0.0,0.0,0.0,0.0,0.0,0.0,0.0,0.0,0.0,0.0,0.0,0.0,0.0,0.0,0.0,0.0,0.0,-0.4304,-0.3971,-0.3839,-0.4016,0.0,0.0,0.0,0.0,0.0,0.0,0.0,0.0,0.0,0.0,0.0,0.0,0.0,0.0,0.0,0.0,0.0,0.0,0.0,0.0,0.0,0.0,0.0,-0.706,-0.8022,-0.9013,-1.0089,-1.1185,-1.2012,-1.2585,-1.2946,-1.4673,-1.6607,-1.6903,-1.8497,-2.0079,-2.0245,-1.903,-1.7575,-1.7082,-1.4832,0.0,0.0,-1.0328,-0.9285,-0.8233,-0.7688,-0.7339,-0.7212,0.0,0.0,0.0,0.0,-0.7896,0.0,0.0,0.0,0.0,0.0,0.0,0.0,0.0,0.0,-0.8038,-0.8038,-0.8038,-0.8038,-0.8038,-0.8038,-0.8038,-0.8038,-0.8038,-0.8038,-0.7913,-0.7777,-0.7631,-0.7482,-0.7326,-0.718,0.0,0.0,-0.7139,-0.7139,-0.7139,-0.7109,-0.6814,-0.6702,-0.6664,-0.6369,-0.6338,-0.6567,0.0,0.0,0.0,0.0,0.0,0.0,0.0,0.0,0.0,0.0,-0.4133,-0.3767,0.0,0.0,0.0,0.0,0.0,0.0,0.0,0.0,0.0,0.0,0.0,0.0,0.0,0.0,0.0,0.0,0.0,0.0,0.0,0.0,0.0,0.0,0.0,0.0,0.0,0.0,0.0,0.0,0.0,0.0,0.0,0.0,0.0,0.0,0.0,0.0,0.0,-0.772,-0.9012,-1.0587,-1.1965,-1.2593,-1.2986,-1.3994,-1.5558,-1.7091,-1.7957,-1.9353,-2.0566,-2.0566,-1.9061,-1.7207,-1.6061,0.0,0.0,0.0,-0.9432,-0.8749,-0.7854,-0.7438,0.0,-0.6713,-0.6448,0.0,0.0,0.0,0.0,0.0,0.0,0.0,0.0,0.0,0.0,0.0,0.0,0.0,-0.8038,-0.8038,-0.8038,-0.8038,-0.8038,-0.8038,-0.8038,-0.8038,-0.8038,-0.8038,-0.7885,-0.7736,-0.7594,-0.7441,-0.7285,-0.7139,0.0,0.0,-0.7139,-0.7139,-0.7139,-0.7109,-0.6814,-0.6702,-0.6664,-0.6369,-0.6338,-0.6567,0.0,0.0,0.0,0.0,0.0,0.0,0.0,-0.51,-0.5334,-0.6001,-0.5509,-0.4791,-0.4017,-0.3733,0.0,0.0,0.0,0.0,0.0,0.0,0.0,0.0,0.0,0.0,0.0,0.0,0.0,0.0,0.0,0.0,0.0,0.0,0.0,0.0,0.0,0.0,0.0,0.0,0.0,0.0,0.0,0.0,0.0,0.0,0.0,0.0,0.0,0.0,0.0,0.0,-0.8696,-1.0397,-1.187,-1.2526,-1.2968,-1.4521,-1.5897,-1.7153,-1.8504,-1.969,-2.0547,-2.0449,-1.8835,-1.6696,-1.4959,-1.2865,0.0,0.0,-0.8699,-0.8321,-0.7616,-0.7089,-0.6611,0.0,-0.6239,-0.6433,0.0,0.0,0.0,0.0,0.0,0.0,0.0,0.0,0.0,0.0,0.0,0.0,0.0,-0.8038,-0.8038,-0.8038,-0.8038,-0.8038,-0.8038,-0.8038,-0.8038,-0.8038,-0.7885,-0.7736,-0.7594,-0.7441,-0.7285,-0.7139,0.0,0.0,0.0,-0.7139,-0.7139,-0.7109,-0.6814,-0.6702,-0.6664,-0.6369,-0.6338,-0.6567,0.0,0.0,0.0,0.0,0.0,0.0,0.0,-0.5321,-0.5401,-0.6232,-0.5634,-0.5078,-0.4995,-0.4277,0.0,0.0,0.0,0.0,0.0,0.0,0.0,0.0,0.0,0.0,0.0,0.0,0.0,0.0,0.0,0.0,0.0,0.0,0.0,0.0,0.0,0.0,0.0,0.0,0.0,0.0,0.0,0.0,0.0,0.0,0.0,0.0,0.0,0.0,0.0,0.0,0.0,-0.9028,-1.0351,-1.149,-1.2573,-1.3572,0.0,0.0,-1.8089,-1.9474,-2.0469,-2.0078,-1.8544,-1.6634,-1.4556,0.0,0.0,-0.9139,-0.8268,-0.7557,-0.6858,-0.6119,-0.56,-0.5524,0.0,-0.6948,0.0,0.0,0.0,0.0,0.0,0.0,0.0,0.0,0.0,0.0,0.0,0.0,0.0,-0.8038,-0.8038,-0.8038,-0.8038,-0.8038,-0.8038,-0.8038,-0.8038,-0.8038,-0.7885,-0.7736,-0.7594,-0.7441,-0.7285,-0.7139,0.0,0.0,0.0,-0.7139,-0.7139,-0.7109,-0.6814,-0.6702,-0.6664,-0.6369,-0.6338,-0.649,0.0,0.0,0.0,0.0,0.0,0.0,0.0,-0.6104,-0.6368,-0.7455,-0.6526,-0.581,-0.5865,-0.4701,-0.3836,0.0,0.0,0.0,0.0,0.0,0.0,0.0,0.0,0.0,0.0,0.0,0.0,0.0,0.0,0.0,0.0,0.0,0.0,0.0,0.0,0.0,0.0,0.0,0.0,0.0,0.0,0.0,0.0,0.0,0.0,0.0,0.0,0.0,0.0,0.0,0.0,0.0,-0.9453,-1.0623,0.0,0.0,-1.5215,-1.6616,-1.8694,-1.9918,-2.0459,-2.0019,-1.8783,-1.7036,-1.4589,0.0,-1.1102,-0.8657,-0.7883,-0.7343,-0.6145,-0.5706,-0.5398,-0.5022,-0.574,-0.6302,-0.6211,0.0,0.0,0.0,0.0,0.0,0.0,0.0,0.0,0.0,0.0,0.0,0.0,0.0,-0.8038,-0.8038,-0.8038,-0.8038,-0.8038,-0.8038,-0.8038,-0.8035,-0.7797,-0.7655,-0.759,-0.7343,-0.72,0.0,0.0,0.0,0.0,-0.7139,-0.7139,-0.7109,-0.6814,-0.6702,-0.6664,-0.6369,-0.6338,-0.6412,0.0,0.0,0.0,0.0,0.0,0.0,-0.6492,-0.6587,-0.6945,-0.7895,-0.6912,-0.6097,-0.6,-0.4779,-0.387,-0.3659,0.0,0.0,0.0,0.0,0.0,0.0,0.0,0.0,0.0,0.0,0.0,0.0,0.0,0.0,0.0,0.0,0.0,0.0,0.0,0.0,0.0,0.0,0.0,0.0,0.0,0.0,0.0,0.0,0.0,0.0,0.0,0.0,0.0,0.0,0.0,0.0,0.0,-0.9827,-1.1216,0.0,-1.5019,-1.6254,-1.8692,-1.9756,-2.0078,-1.9639,-1.844,-1.6778,0.0,-1.2604,-1.0695,-0.8195,-0.7343,-0.674,-0.5706,-0.5324,-0.5112,-0.4779,-0.5459,-0.6034,-0.5846,-0.6741,0.0,0.0,0.0,0.0,0.0,0.0,0.0,0.0,0.0,0.0,0.0,0.0,-0.8038,-0.8038,-0.8038,-0.8038,-0.8038,-0.8038,-0.8038,-0.8038,-0.7828,-0.7685,-0.7594,-0.7377,-0.7227,0.0,0.0,0.0,0.0,-0.7139,-0.7139,-0.7115,-0.6865,-0.6742,-0.6671,-0.6417,-0.6295,-0.6412,0.0,0.0,0.0,0.0,0.0,0.0,0.0,-0.6587,-0.6741,-0.7091,-0.6466,-0.578,-0.5193,-0.4307,-0.3792,-0.3788,0.0,0.0,0.0,0.0,0.0,0.0,0.0,0.0,0.0,0.0,0.0,0.0,0.0,0.0,0.0,0.0,0.0,0.0,0.0,0.0,0.0,0.0,0.0,0.0,0.0,0.0,0.0,0.0,0.0,0.0,0.0,0.0,0.0,0.0,0.0,0.0,0.0,-0.9271,-1.0249,-1.2537,-1.4481,-1.6206,-1.7619,-1.8652,-1.9199,-1.876,-1.7354,-1.5665,-1.3812,-1.1529,-0.9439,-0.7985,-0.6519,-0.5542,-0.5487,-0.4948,-0.4567,-0.4667,-0.584,-0.6505,-0.5877,-0.7091,0.0,0.0,0.0,0.0,0.0,0.0,0.0,0.0,0.0,0.0,0.0,0.0,-0.8038,-0.8038,-0.8038,-0.8038,-0.8038,-0.8038,-0.8038,-0.8038,-0.8035,-0.7882,-0.76,-0.7597,0.0,0.0,0.0,0.0,0.0,-0.7139,-0.7139,-0.7126,-0.6983,-0.6834,-0.6681,-0.6525,-0.638,-0.6338,0.0,0.0,0.0,0.0,0.0,0.0,0.0,-0.574,-0.5812,-0.6413,-0.556,-0.4941,-0.5065,-0.4307,-0.3792,-0.3792,0.0,0.0,0.0,0.0,0.0,0.0,0.0,0.0,0.0,0.0,0.0,0.0,0.0,0.0,0.0,0.0,0.0,0.0,0.0,0.0,0.0,0.0,0.0,0.0,0.0,0.0,0.0,0.0,0.0,0.0,0.0,0.0,0.0,0.0,0.0,0.0,0.0,0.0,0.0,-1.2286,-1.3727,-1.5164,-1.6365,-1.7324,-1.7735,-1.6533,-1.5549,-1.4398,-1.2323,-1.062,-0.9033,-0.729,-0.6199,-0.5378,-0.4893,-0.4625,-0.4579,-0.4935,-0.5747,0.0,0.0,0.0,0.0,0.0,0.0,0.0,0.0,0.0,0.0,0.0,0.0,0.0,0.0,0.0,0.0,-0.8038,-0.8038,-0.8432,-0.9312,-0.8432,-0.892,-1.0676,-0.8803,-0.8254,-0.8877,0.0,0.0,0.0,0.0,0.0,0.0,-0.7139,-0.7139,-0.7115,-0.6868,-0.6742,-0.6671,-0.642,-0.6298,-0.6338,0.0,0.0,0.0,0.0,0.0,0.0,0.0,-0.5471,-0.5408,-0.5691,-0.5055,-0.4604,-0.461,-0.4077,-0.3754,-0.387,0.0,0.0,0.0,0.0,0.0,0.0,0.0,0.0,0.0,0.0,0.0,0.0,0.0,0.0,0.0,0.0,0.0,0.0,0.0,0.0,0.0,0.0,0.0,0.0,0.0,0.0,-0.4125,0.0,0.0,0.0,0.0,0.0,0.0,0.0,0.0,0.0,0.0,0.0,0.0,0.0,-1.312,-1.4298,-1.5362,-1.5911,-1.6056,-1.5078,-1.4088,-1.2856,-1.1111,-0.9554,-0.8104,-0.651,-0.5601,-0.5003,-0.457,-0.4519,-0.4611,-0.4833,-0.5337,0.0,0.0,0.0,0.0,0.0,0.0,0.0,0.0,0.0,0.0,0.0,0.0,0.0,0.0,0.0,0.0,-0.9509,-0.9505,-0.9899,-1.0681,-0.9899,-1.0288,-1.1848,-1.0088,-0.9329,-0.9511,0.0,0.0,0.0,0.0,0.0,0.0,-0.7139,-0.7109,-0.7041,-0.6858,-0.6715,-0.659,-0.641,-0.6305,-0.6338,0.0,0.0,0.0,0.0,0.0,0.0,0.0,0.0,0.0,0.0,-0.4873,-0.4581,-0.3926,-0.3705,-0.3693,0.0,0.0,0.0,0.0,0.0,0.0,0.0,0.0,0.0,0.0,0.0,0.0,-0.4674,-0.3931,-0.3231,-0.258,0.0,0.0,0.0,0.0,0.0,0.0,0.0,0.0,0.0,0.0,-0.3234,0.0,0.0,0.0,0.0,0.0,0.0,0.0,0.0,0.0,0.0,0.0,0.0,0.0,0.0,0.0,0.0,0.0,-1.4487,-1.4255,-1.4159,-1.2689,-1.1011,-1.0058,-0.8381,0.0,-0.5686,-0.4948,-0.4525,-0.4546,-0.4539,-0.4553,-0.4604,0.0,0.0,0.0,0.0,0.0,0.0,0.0,0.0,0.0,0.0,0.0,0.0,0.0,0.0,0.0,0.0,0.0,0.0,-1.2139,-1.2139,-1.2042,-1.195,-1.1935,-1.2114,-1.1607,-1.0721,-0.9587,0.0,0.0,0.0,0.0,0.0,0.0,-0.7129,-0.7048,-0.6926,-0.6905,-0.6722,-0.6471,-0.6461,-0.6373,-0.6338,0.0,0.0,0.0,0.0,0.0,0.0,0.0,0.0,0.0,0.0,0.0,-0.4096,-0.424,-0.3858,0.0,0.0,0.0,0.0,0.0,0.0,0.0,0.0,0.0,0.0,0.0,0.0,0.0,-0.4573,-0.3915,-0.354,-0.3287,-0.1911,0.0,0.0,0.0,0.0,0.0,0.0,0.0,0.0,-0.2174,-0.2454,0.0,0.0,0.0,0.0,-0.3511,-0.4886,0.0,0.0,0.0,0.0,0.0,0.0,0.0,0.0,-1.2842,-1.3076,-1.3271,0.0,-1.2735,-1.1877,-1.0501,-0.914,0.0,-0.7012,-0.5817,-0.555,-0.4948,-0.4591,-0.4769,-0.4714,-0.4823,-0.5393,0.0,0.0,0.0,0.0,0.0,0.0,0.0,0.0,0.0,0.0,0.0,0.0,0.0,0.0,0.0,0.0,0.0,0.0,-1.437,-1.4465,-1.3392,-1.2431,-1.2827,-1.4546,-1.1632,-1.0375,0.0,0.0,0.0,0.0,0.0,0.0,0.0,-0.7024,-0.6959,-0.6905,-0.6671,-0.6536,-0.6461,-0.6349,-0.6288,-0.6338,0.0,0.0,0.0,0.0,0.0,0.0,0.0,0.0,0.0,0.0,0.0,0.0,0.0,0.0,0.0,0.0,0.0,0.0,0.0,0.0,0.0,0.0,0.0,0.0,0.0,0.0,0.0,0.0,0.0,-0.5001,0.0,0.0,0.0,0.0,0.0,0.0,0.0,0.0,0.0,0.0,-0.2454,0.0,0.0,0.0,0.0,0.0,-0.3231,-0.4772,0.0,-0.6588,-0.8218,-1.0312,0.0,0.0,0.0,0.0,-1.2881,-1.2832,-1.2501,-1.2265,-1.2004,-1.1358,-1.0186,-0.8951,-0.8299,-0.6999,-0.5928,-0.5597,-0.4948,-0.4591,-0.4772,-0.4802,-0.4948,0.0,0.0,0.0,0.0,0.0,0.0,0.0,0.0,0.0,0.0,0.0,0.0,0.0,0.0,0.0,0.0,0.0,0.0,0.0,0.0,-1.5308,-1.4752,-1.4076,-1.4236,-1.5391,-1.3194,-1.1828,0.0,0.0,0.0,0.0,0.0,0.0,-0.7037,-0.6959,-0.6848,-0.6702,-0.6536,-0.643,-0.6366,-0.6288,-0.6338,-0.6338,0.0,0.0,0.0,0.0,0.0,0.0,0.0,0.0,0.0,0.0,0.0,0.0,0.0,0.0,0.0,0.0,0.0,0.0,0.0,0.0,0.0,0.0,0.0,0.0,0.0,0.0,0.0,0.0,0.0,0.0,0.0,0.0,-0.3766,0.0,0.0,0.0,0.0,0.0,0.0,0.0,0.0,0.0,0.0,0.0,0.0,0.0,0.0,0.0,0.0,-0.675,-0.8475,-1.0669,-1.0771,0.0,0.0,0.0,0.0,0.0,-1.2054,-1.1848,-1.1785,-1.1455,-1.0435,-0.9363,-0.8625,-0.7471,-0.6421,-0.5814,-0.5222,-0.4856,-0.5067,-0.5122,0.0,0.0,0.0,0.0,0.0,0.0,0.0,0.0,0.0,0.0,0.0,0.0,0.0,0.0,0.0,0.0,0.0,0.0,0.0,0.0,0.0,0.0,-1.5698,-1.5698,-1.5551,-1.5264,-1.4643,-1.3195,-1.0977,-1.0348,0.0,0.0,0.0,0.0,-0.6926,-0.6905,-0.6725,-0.6471,-0.6447,-0.6366,-0.6338,-0.6338,-0.6338,-0.6338,0.0,0.0,0.0,0.0,0.0,0.0,0.0,0.0,0.0,0.0,0.0,0.0,0.0,0.0,0.0,0.0,0.0,0.0,0.0,0.0,0.0,0.0,0.0,0.0,0.0,0.0,0.0,0.0,0.0,0.0,-0.5852,-0.547,-0.3839,-0.128,0.0,0.0,0.0,0.0,0.0,0.0,0.0,0.0,0.0,0.0,0.0,0.0,0.0,0.0,0.0,-0.7343,-0.8606,-1.0064,-1.0618,0.0,0.0,0.0,0.0,0.0,-1.2377,-1.2341,-1.2075,-1.0509,-0.9445,-0.8613,-0.7995,-0.7182,-0.6588,-0.648,-0.6372,-0.6435,-0.6992,-0.6578,-0.6344,0.0,0.0,0.0,0.0,0.0,0.0,0.0,0.0,0.0,0.0,0.0,0.0,0.0,0.0,0.0,0.0,0.0,0.0,0.0,0.0,0.0,0.0,-1.5097,-1.4943,-1.4649,-1.2626,-1.1321,-1.0574,-0.8544,-0.7401,0.0,0.0,0.0,-0.6919,-0.679,-0.663,-0.6461,-0.6339,-0.6281,-0.6338,-0.6338,-0.6338,-0.6338,0.0,0.0,0.0,0.0,0.0,0.0,0.0,0.0,0.0,0.0,0.0,0.0,0.0,0.0,0.0,0.0,0.0,0.0,0.0,0.0,0.0,0.0,0.0,0.0,0.0,0.0,0.0,0.0,0.0,-0.821,-0.7033,-0.5294,-0.3773,-0.239,0.0,0.0,0.0,0.0,0.0,-0.3385,0.0,0.0,0.0,0.0,0.0,0.0,0.0,0.0,0.0,0.0,-0.8534,-0.9865,-1.0167,0.0,0.0,0.0,0.0,0.0,-1.155,-1.1517,-1.1282,-1.0064,-0.994,-0.9996,-0.9589,-0.8771,-0.8196,-0.8196,-0.7833,0.0,0.0,0.0,0.0,0.0,0.0,0.0,0.0,0.0,0.0,0.0,0.0,0.0,0.0,0.0,0.0,0.0,0.0,0.0,0.0,0.0,0.0,0.0,0.0,0.0,0.0,-1.4489,-1.4502,-1.4522,-1.2815,-1.1526,-1.0524,-0.8882,-0.7753,0.0,0.0,-0.6943,-0.6793,-0.6641,-0.6491,-0.6349,-0.6285,-0.6338,-0.6338,-0.6338,-0.6338,-0.6338,0.0,0.0,0.0,0.0,0.0,0.0,0.0,0.0,0.0,0.0,0.0,0.0,0.0,0.0,0.0,0.0,0.0,0.0,0.0,0.0,0.0,0.0,0.0,0.0,0.0,0.0,-0.9385,-0.9686,-0.9907,-0.9254,-0.7795,-0.5027,-0.3672,0.0,0.0,0.0,0.0,-0.3065,-0.3834,-0.4652,0.0,0.0,0.0,0.0,0.0,0.0,0.0,0.0,0.0,0.0,0.0,0.0,0.0,0.0,0.0,-1.1366,-1.1216,-1.0787,-1.0716,-1.067,-1.0515,-0.9853,-1.0354,-1.1015,-1.0995,-1.0316,-0.9673,-0.9928,-0.9503,0.0,0.0,0.0,0.0,0.0,0.0,0.0,0.0,0.0,0.0,0.0,0.0,0.0,0.0,0.0,0.0,0.0,0.0,0.0,0.0,0.0,0.0,0.0,0.0,0.0,0.0,-1.4088,-1.4025,-1.397,-1.2808,-1.156,-1.0178,-0.9013,-0.796,-0.7082,-0.6939,-0.679,-0.6637,-0.6522,-0.639,-0.6338,-0.6338,-0.6338,-0.6338,-0.6338,-0.6338,-0.6338,0.0,0.0,0.0,0.0,0.0,0.0,0.0,0.0,0.0,0.0,0.0,0.0,0.0,0.0,0.0,0.0,0.0,0.0,0.0,0.0,0.0,0.0,0.0,0.0,0.0,-0.9176,-0.9385,-0.9686,-0.9706,-0.894,-0.727,-0.4758,-0.3579,-0.3556,0.0,0.0,0.0,-0.3345,-0.4168,-0.5429,-0.5433,0.0,0.0,0.0,0.0,0.0,0.0,0.0,0.0,0.0,0.0,0.0,0.0,0.0,-1.0012,-1.0661,-1.0864,-1.0734,-1.0402,-1.0524,-1.0515,-0.9853,-0.9746,-1.002,-1.0808,-1.0491,-1.0312,-1.1129,-1.122,-1.1158,0.0,0.0,0.0,0.0,0.0,0.0,0.0,0.0,0.0,0.0,0.0,0.0,0.0,0.0,0.0,0.0,0.0,0.0,0.0,0.0,0.0,0.0,0.0,0.0,0.0,-1.4088,-1.3568,-1.2443,-1.1322,-1.0111,-0.8969,-0.7688,-0.7028,-0.6936,-0.6783,-0.663,-0.6488,-0.6478,-0.639,-0.6338,-0.6338,-0.6338,-0.6338,-0.6338,-0.6338,-0.6338,0.0,0.0,0.0,0.0,0.0,0.0,0.0,0.0,0.0,0.0,0.0,0.0,0.0,0.0,0.0,0.0,0.0,0.0,0.0,0.0,0.0,0.0,0.0,-0.8945,-0.9176,-0.9183,-0.9236,-0.9406,-0.8585,-0.7868,-0.715,-0.5169,0.0,0.0,0.0,0.0,-0.4663,-0.4718,-0.5538,-0.6848,-0.6362,-0.6303,0.0,0.0,0.0,0.0,0.0,0.0,0.0,0.0,-0.8111,-0.8407,-0.8574,-0.8853,-0.9273,-0.9768,-0.9607,-0.9387,-0.9866,-0.9868,-0.9826,-0.9919,-1.0094,-1.0408,-1.1102,-1.1369,-1.1677,-1.2385,-1.2538,-1.2538,0.0,0.0,0.0,0.0,0.0,0.0,0.0,0.0,0.0,0.0,0.0,0.0,0.0,0.0,0.0,0.0,0.0,0.0,0.0,0.0,0.0,0.0,0.0,0.0,0.0,0.0,-1.347,-1.2322,-1.1123,-1.0009,-0.889,-0.7607,-0.701,-0.6919,-0.6766,-0.6614,-0.6464,-0.6376,-0.6308,-0.6338,-0.6338,-0.6338,-0.6338,-0.6338,-0.6338,-0.6338,0.0,0.0,0.0,0.0,0.0,0.0,0.0,0.0,0.0,0.0,0.0,0.0,0.0,0.0,0.0,0.0,0.0,0.0,0.0,0.0,0.0,0.0,0.0,-0.8671,-0.8958,-0.8965,-0.9105,-0.9379,-0.8144,-0.748,-0.7261,0.0,0.0,0.0,0.0,0.0,0.0,-0.5873,-0.6578,-0.767,-0.7128,-0.7235,0.0,0.0,0.0,0.0,0.0,0.0,0.0,0.0,-0.7789,-0.809,-0.8076,-0.8343,-0.8734,-0.9012,-0.8896,-0.882,-0.9629,-0.9688,-0.9708,-1.031,-1.0698,-1.107,-1.1592,-1.2011,-1.2525,-1.3327,-1.334,-1.324,-1.3327,0.0,0.0,0.0,0.0,0.0,0.0,0.0,0.0,0.0,0.0,0.0,0.0,0.0,0.0,0.0,0.0,0.0,0.0,0.0,0.0,0.0,0.0,0.0,0.0,0.0,-1.3425,-1.212,-1.1102,-0.9943,-0.8886,-0.7563,-0.6949,-0.6848,-0.6647,-0.6502,-0.6396,-0.6302,-0.6338,-0.6338,-0.6338,-0.6338,-0.6338,-0.6338,-0.6338,-0.6338,0.0,0.0,0.0,0.0,0.0,0.0,0.0,0.0,0.0,0.0,0.0,0.0,0.0,0.0,0.0,0.0,0.0,0.0,0.0,0.0,0.0,0.0,0.0,-0.807,-0.842,-0.8427,-0.8798,-0.9679,-0.8695,-0.8031,-0.767,-0.6966,0.0,0.0,-0.6588,-0.6588,-0.6588,-0.6588,-0.702,-0.7723,-0.7723,-0.7723,-0.7664,0.0,0.0,0.0,0.0,0.0,0.0,0.0,-0.7506,-0.7614,-0.8225,-0.837,-0.8427,-0.8427,-0.8784,-0.933,-0.9844,-1.0159,-1.0471,-1.1114,-1.1472,-1.1754,-1.2182,-1.2311,-1.2645,-1.3841,-1.3621,-1.33,-1.3587,0.0,0.0,0.0,0.0,0.0,0.0,0.0,0.0,0.0,0.0,0.0,0.0,0.0,0.0,0.0,0.0,0.0,0.0,0.0,0.0,0.0,0.0,0.0,0.0,-1.4082,-1.3323,-1.1857,-1.0856,-0.988,-0.8873,-0.7337,-0.6702,-0.6681,-0.639,-0.6264,-0.6338,-0.6338,-0.6338,-0.6338,-0.6338,-0.6338,-0.6338,-0.6338,-0.6335,-0.6335,0.0,0.0,0.0,0.0,0.0,0.0,0.0,0.0,0.0,0.0,0.0,0.0,0.0,0.0,0.0,0.0,0.0,0.0,0.0,0.0,0.0,0.0,0.0,0.0,0.0,0.0,-0.8604,-0.9065,-0.8263,-0.78,0.0,0.0,0.0,-0.6588,-0.6588,-0.6912,-0.7396,-0.7396,-0.7777,-0.848,-0.848,-0.848,-0.8416,0.0,0.0,0.0,0.0,0.0,0.0,0.0,0.0,0.0,-0.7721,-0.8078,-0.8427,-0.8427,-0.8497,-0.8806,-0.9629,-1.0271,-1.0805,-1.1108,-1.2034,-1.2904,-1.2709,-1.2786,-1.316,-1.3928,-1.3781,-1.354,-1.3627,0.0,0.0,0.0,0.0,0.0,0.0,0.0,0.0,0.0,0.0,0.0,0.0,0.0,0.0,0.0,0.0,0.0,0.0,0.0,0.0,0.0,0.0,0.0,0.0,0.0,-1.3259,-1.284,-1.1682,-1.0162,-0.8409,-0.7231,-0.6644,-0.6536,-0.6447,-0.6352,-0.6338,-0.6338,-0.6338,-0.6338,-0.6338,-0.6338,-0.6338,-0.6338,-0.6193,-0.6173,0.0,0.0,0.0,0.0,0.0,0.0,0.0,0.0,0.0,0.0,-0.6002,-0.5437,0.0,0.0,0.0,0.0,0.0,0.0,0.0,0.0,0.0,0.0,0.0,0.0,0.0,-0.8317,-0.8464,0.0,0.0,0.0,0.0,0.0,-0.7359,-0.745,-0.745,-0.767,-0.7995,-0.7995,-0.8261,-0.8637,-0.8637,-0.8637,-0.8584,0.0,0.0,0.0,0.0,0.0,0.0,0.0,0.0,0.0,-0.7473,-0.7762,-0.8084,-0.8163,-0.8557,-0.9205,-1.0275,-1.1247,-1.1994,-1.2143,-1.3148,-1.3859,-1.3441,0.0,0.0,0.0,-1.3848,-1.3681,0.0,0.0,0.0,0.0,0.0,0.0,0.0,0.0,0.0,0.0,0.0,0.0,0.0,0.0,0.0,0.0,0.0,0.0,0.0,0.0,0.0,0.0,0.0,0.0,0.0,0.0,0.0,-1.3026,-1.1897,-1.0644,-0.9211,-0.7862,-0.6961,-0.6468,-0.6413,-0.6339,-0.6338,-0.6338,-0.6338,-0.6254,-0.6193,-0.6169,-0.6162,-0.6101,-0.624,-0.6518,0.0,0.0,-0.4811,-0.5148,0.0,0.0,0.0,0.0,0.0,-0.6981,-0.652,-0.6007,0.0,0.0,0.0,-0.3711,0.0,0.0,0.0,0.0,0.0,0.0,0.0,0.0,0.0,0.0,0.0,0.0,0.0,0.0,0.0,0.0,-0.8557,-0.8804,-0.8778,-0.8617,0.0,-0.8343,-0.8337,-0.8337,-0.8337,-0.8337,-0.8303,-0.8003,0.0,0.0,0.0,0.0,0.0,0.0,0.0,0.0,-0.7375,-0.7513,-0.758,-0.7869,-0.8827,-1.0051,-1.1303,-1.2567,-1.3556,-1.3776,-1.4223,0.0,-1.4077,-1.4008,-1.4021,-1.4075,0.0,0.0,0.0,0.0,0.0,0.0,0.0,0.0,0.0,0.0,0.0,0.0,0.0,0.0,0.0,0.0,0.0,0.0,0.0,0.0,0.0,0.0,0.0,0.0,0.0,0.0,0.0,0.0,0.0,0.0,0.0,-1.11,-1.072,-0.8869,-0.7395,-0.6444,-0.6318,-0.6338,-0.6338,-0.6338,-0.6338,-0.6244,-0.6091,-0.603,-0.601,-0.5857,-0.6358,-0.7124,0.0,0.0,-0.5574,-0.5897,0.0,0.0,0.0,0.0,-0.6693,-0.6981,-0.652,-0.6136,-0.6007,-0.5043,0.0,-0.422,-0.422,0.0,0.0,0.0,0.0,0.0,0.0,0.0,0.0,0.0,0.0,0.0,0.0,0.0,0.0,-0.8611,-0.8744,-0.8798,-0.8571,-0.843,-0.8357,-0.813,-0.8029,-0.8029,-0.8029,-0.8029,-0.7989,-0.7682,-0.7567,0.0,0.0,0.0,0.0,0.0,0.0,0.0,-0.7375,-0.7513,-0.7621,-0.8116,-0.8849,-0.9811,-1.1185,-1.2078,0.0,-1.321,-1.3259,-1.3231,-1.336,-1.34,-1.3527,-1.3995,0.0,0.0,0.0,0.0,0.0,0.0,0.0,0.0,0.0,0.0,0.0,0.0,0.0,0.0,0.0,0.0,0.0,0.0,0.0,0.0,0.0,0.0,0.0,0.0,0.0,0.0,-1.4268,-1.3058,-1.2465,0.0,-1.2168,-1.1602,-1.0714,-0.8727,-0.7305,-0.6305,-0.6274,-0.6338,-0.6338,-0.6338,-0.6338,-0.6244,-0.6091,-0.603,-0.601,-0.5857,-0.6287,-0.7069,0.0,0.0,0.0,0.0,0.0,0.0,0.0,0.0,-0.6693,-0.6981,-0.6768,-0.6477,-0.6221,-0.5334,0.0,0.0,-0.4053,-0.3887,0.0,0.0,0.0,0.0,0.0,0.0,0.0,0.0,0.0,0.0,0.0,0.0,-0.817,-0.8464,-0.8671,-0.8791,-0.8504,-0.8297,-0.8143,-0.7836,-0.7709,-0.7709,-0.7709,-0.7622,-0.743,-0.7315,-0.7168,-0.7027,-0.6874,0.0,0.0,0.0,0.0,0.0,0.0,0.0,-0.7341,-0.7849,-0.8787,-0.9803,-1.0553,-1.1826,0.0,-1.3349,0.0,-1.2903,-1.314,-1.3213,-1.33,0.0,0.0,0.0,0.0,0.0,0.0,0.0,0.0,0.0,0.0,0.0,0.0,0.0,0.0,0.0,0.0,0.0,0.0,0.0,0.0,0.0,0.0,0.0,0.0,0.0,0.0,0.0,-1.3999,-1.2889,-1.2305,-1.2305,-1.2305,-1.1545,-1.004,-0.8461,-0.7253,-0.6338,-0.6338,-0.6217,-0.6149,-0.6149,-0.6108,-0.6027,-0.5878,-0.582,-0.58,-0.5647,-0.6351,-0.7469,0.0,0.0,0.0,0.0,0.0,0.0,0.0,0.0,0.0,-0.7024,-0.7029,-0.6833,-0.6445,-0.5616,-0.4873,0.0,0.0,0.0,-0.4081,0.0,0.0,0.0,0.0,0.0,0.0,0.0,0.0,0.0,0.0,-0.7693,-0.8194,-0.8355,-0.853,-0.8791,-0.8504,-0.821,-0.7855,-0.7542,-0.7406,-0.7352,-0.7305,-0.7094,-0.6874,-0.6874,-0.672,-0.6513,-0.6513,-0.67,-0.6947,-0.6947,0.0,0.0,0.0,0.0,-0.7081,-0.7419,-0.8528,-0.9714,-0.9895,-1.1526,-1.3228,-1.3262,-1.2956,0.0,-1.2979,-1.3053,-1.3053,0.0,0.0,0.0,0.0,0.0,0.0,0.0,0.0,0.0,0.0,0.0,0.0,0.0,0.0,0.0,0.0,0.0,0.0,0.0,0.0,0.0,0.0,0.0,0.0,0.0,0.0,-1.4736,-1.3745,-1.2732,-1.2305,-1.2305,-1.2305,-1.1248,-0.9296,-0.8429,-0.7375,-0.6335,-0.6234,-0.6149,-0.6027,-0.6,-0.5915,-0.5786,-0.5644,-0.5589,-0.5569,-0.5416,-0.6535,-0.8027,0.0,0.0,0.0,0.0,0.0,0.0,0.0,0.0,0.0,0.0,-0.7141,-0.7045,-0.7201,-0.5939,-0.4968,-0.4581,-0.415,-0.3889,0.0,0.0,0.0,0.0,0.0,0.0,0.0,0.0,0.0,0.0,0.0,-0.7846,-0.9366,-0.8692,-0.853,-0.8791,-0.8504,-0.821,-0.7848,-0.7321,-0.6934,-0.6687,-0.6471,-0.6344,-0.631,-0.631,-0.6283,-0.625,-0.625,-0.6438,-0.6647,-0.6647,-0.6814,0.0,0.0,0.0,0.0,0.0,-0.8069,-0.8828,-0.9458,0.0,-1.1594,0.0,-1.1834,-1.2064,0.0,0.0,0.0,0.0,0.0,0.0,0.0,0.0,0.0,0.0,0.0,0.0,0.0,0.0,0.0,0.0,0.0,0.0,0.0,0.0,0.0,0.0,0.0,0.0,0.0,0.0,-1.7569,-1.6636,-1.5658,0.0,-1.3745,-1.2732,-1.2305,-1.2305,-1.2305,-1.1248,-0.9291,-0.902,-0.7996,-0.6254,-0.6118,-0.6051,-0.602,-0.5888,-0.582,-0.5786,-0.5644,-0.5589,-0.5569,-0.5416,-0.6535,-0.8027,0.0,0.0,0.0,0.0,0.0,0.0,0.0,0.0,0.0,0.0,0.0,-0.7183,-0.7613,-0.6088,-0.4945,-0.4764,-0.4164,0.0,0.0,0.0,0.0,0.0,0.0,0.0,0.0,0.0,0.0,0.0,-0.662,-0.7375,-0.8948,-0.9096,-0.9709,-1.0624,-1.0087,-0.9665,-0.9257,-0.8276,-0.7536,-0.699,-0.6601,-0.6493,-0.6587,-0.6092,-0.6212,-0.658,-0.6086,-0.6199,-0.6587,-0.6587,-0.678,-0.6979,-0.6979,0.0,0.0,0.0,-0.7595,-0.8479,-0.9467,-0.9889,-1.034,0.0,-1.1482,-1.1634,-1.2515,0.0,0.0,0.0,0.0,0.0,0.0,0.0,0.0,0.0,0.0,0.0,0.0,0.0,0.0,0.0,0.0,0.0,0.0,0.0,0.0,0.0,0.0,0.0,0.0,-1.8008,-1.7364,-1.586,-1.5446,0.0,-1.2952,-1.2519,-1.2305,-1.2298,-1.2138,-1.1319,-0.9906,-0.916,-0.781,-0.6122,-0.5969,-0.5857,-0.5779,-0.5711,-0.5905,-0.6218,-0.5684,-0.5794,-0.6179,-0.5582,-0.6207,-0.7372,0.0,0.0,0.0,0.0,0.0,0.0,0.0,0.0,0.0,0.0,0.0,-0.7278,-0.7906,0.0,0.0,0.0,-0.3899,0.0,0.0,0.0,0.0,0.0,0.0,0.0,0.0,0.0,0.0,-0.6512,-0.6405,-0.7154,-0.8735,-0.9624,-1.092,-1.2492,-1.1803,-1.1082,-1.0339,-0.9164,-0.8303,-0.7666,-0.6961,-0.6827,-0.6926,-0.6466,-0.6647,-0.7105,-0.6333,-0.6379,-0.6787,0.0,0.0,0.0,0.0,0.0,0.0,0.0,0.0,-0.7821,0.0,0.0,-0.9432,-1.0805,-1.1163,-1.1397,0.0,0.0,0.0,0.0,0.0,0.0,0.0,0.0,0.0,0.0,0.0,0.0,0.0,0.0,0.0,0.0,0.0,0.0,0.0,0.0,0.0,0.0,0.0,0.0,-1.7647,-1.7647,-1.6793,-1.4879,-1.4719,-1.3935,-1.2298,-1.2231,-1.2191,-1.2191,-1.1897,-1.1249,-1.0224,-0.906,-0.7717,-0.6197,-0.5868,-0.5825,-0.5924,-0.5884,-0.6325,-0.6981,-0.6338,-0.6334,-0.6654,-0.5943,-0.6137,-0.6785,0.0,0.0,0.0,0.0,0.0,0.0,0.0,0.0,0.0,0.0,0.0,-0.7455,-0.8117,-0.6237,-0.4793,-0.4464,-0.339,0.0,0.0,0.0,0.0,0.0,0.0,0.0,0.0,0.0,0.0,-0.6319,-0.6613,-0.774,-0.9636,-1.0262,-1.1669,-1.3657,-1.2984,-1.1876,-1.0356,-0.9462,-0.8919,-0.8527,-0.7405,-0.7007,-0.7038,-0.757,-0.7795,-0.7756,-0.7138,0.0,0.0,0.0,0.0,0.0,0.0,0.0,-0.6533,0.0,0.0,0.0,0.0,-0.8023,0.0,-0.9241,-1.046,0.0,0.0,0.0,0.0,0.0,0.0,0.0,0.0,0.0,0.0,0.0,0.0,0.0,0.0,0.0,0.0,0.0,0.0,0.0,0.0,0.0,0.0,0.0,0.0,0.0,-1.6706,-1.6636,-1.579,-1.381,-1.3517,-1.3084,-1.2298,-1.2031,-1.1891,-1.1891,-1.159,-1.088,-0.9887,-0.8885,-0.7836,-0.6829,-0.5942,-0.6069,-0.6856,-0.6676,-0.712,-0.7897,-0.7897,-0.7372,-0.6719,-0.6654,-0.6654,-0.6719,0.0,0.0,0.0,0.0,0.0,0.0,0.0,0.0,0.0,0.0,0.0,0.0,0.0,-0.6573,-0.5257,-0.5128,-0.4127,0.0,0.0,0.0,0.0,0.0,0.0,0.0,0.0,0.0,-0.6282,-0.5909,-0.6113,-0.6944,-0.8341,-0.9765,-1.0824,-1.155,-1.275,-1.293,-1.2327,-1.111,-1.0238,-0.9683,-0.9224,-0.9271,-0.9549,-0.95,-0.9851,-1.0264,0.0,0.0,0.0,0.0,0.0,0.0,-0.6961,-0.6613,-0.629,-0.5959,-0.6041,-0.6283,0.0,0.0,0.0,-0.8931,-0.9482,-1.0002,0.0,0.0,0.0,0.0,0.0,0.0,0.0,0.0,0.0,0.0,0.0,0.0,0.0,0.0,0.0,0.0,0.0,0.0,0.0,0.0,0.0,0.0,0.0,0.0,-1.5942,-1.5876,-1.5068,-1.3263,-1.3081,-1.2593,-1.1737,-1.1637,-1.1583,-1.1583,-1.1283,-1.0942,-1.0587,-0.9449,-0.881,-0.8412,-0.7489,-0.7025,-0.6817,-0.7339,-0.8027,-0.8748,-0.8221,-0.8156,-0.8226,-0.7111,-0.6719,-0.6719,0.0,0.0,0.0,-0.6979,0.0,-0.6989,-0.6989,-0.7236,-0.762,-0.8264,0.0,0.0,0.0,0.0,-0.5494,-0.5176,-0.4514,-0.44,-0.503,0.0,0.0,0.0,0.0,0.0,0.0,-0.6049,-0.6116,-0.5757,-0.5945,-0.6456,-0.7321,-0.8903,-0.9836,-1.0159,-1.1715,-1.2744,-1.3202,-1.2069,0.0,-1.0875,-1.071,-1.087,-1.1208,-1.1379,-1.1763,-1.2079,0.0,0.0,0.0,0.0,0.0,0.0,-0.7181,-0.6486,-0.586,-0.5625,-0.5778,-0.6082,-0.6246,0.0,0.0,0.0,0.0,0.0,0.0,0.0,0.0,0.0,0.0,0.0,0.0,0.0,0.0,0.0,0.0,0.0,0.0,0.0,0.0,0.0,0.0,0.0,0.0,0.0,0.0,0.0,0.0,0.0,-1.5062,-1.4802,-1.3893,-1.2284,-1.2318,-1.2183,-1.1667,-1.1667,-1.1667,-1.1667,-1.1428,-1.1094,-1.0842,-0.9802,-0.9274,-0.9274,-0.8683,-0.8091,-0.7632,-0.8221,-0.8941,-0.9658,-0.9128,-0.9069,-0.9139,-0.8027,-0.7372,-0.7111,-0.6979,-0.6979,-0.7021,-0.7021,-0.7251,-0.7417,-0.7456,-0.7991,-0.8335,-0.8232,0.0,0.0,0.0,0.0,0.0,-0.4545,-0.4428,-0.4466,-0.4625,-0.4602,0.0,0.0,0.0,0.0,0.0,-0.5967,-0.6164,-0.5913,-0.6164,-0.6491,-0.6825,-0.7754,-0.8797,-0.9883,-1.018,-1.1221,-1.2803,-1.2199,-1.1972,-1.1986,0.0,-1.1578,-1.1763,0.0,0.0,0.0,-1.2924,-1.2036,0.0,-1.0295,0.0,0.0,0.0,-0.6239,-0.5349,-0.5342,-0.5518,-0.5752,0.0,0.0,0.0,0.0,0.0,0.0,0.0,0.0,0.0,0.0,0.0,0.0,0.0,0.0,0.0,0.0,0.0,0.0,0.0,0.0,0.0,0.0,0.0,0.0,0.0,0.0,0.0,0.0,0.0,-1.5027,-1.4049,-1.3271,-1.2269,-1.1055,-1.1249,-1.1646,-1.2243,-1.2235,-1.2235,-1.2171,-1.1914,-1.1406,-1.0561,-0.9722,-0.9338,-0.9338,-0.9338,-0.9338,-0.9338,-0.9338,-0.9849,-1.0624,-1.0624,-1.011,-0.9338,-0.9338,-0.8748,-0.8027,-0.6979,-0.6979,-0.7147,-0.7572,-0.7746,-0.797,-0.8349,-0.8334,-0.8335,0.0,0.0,0.0,-0.7904,-0.7003,-0.6201,-0.5737,-0.5198,-0.5055,-0.5362,-0.4897,-0.4794,-0.5284,-0.5357,0.0,0.0,0.0,0.0,0.0,0.0,0.0,0.0,0.0,-0.8599,-0.9134,-0.9923,-1.0587,-1.1016,-1.1147,0.0,-1.2637,-1.2535,-1.3058,0.0,0.0,0.0,0.0,0.0,-1.3983,-1.2433,0.0,-1.0816,-0.8771,0.0,-0.6653,-0.6186,-0.6014,-0.6266,-0.6567,-0.6182,0.0,0.0,0.0,0.0,0.0,0.0,0.0,0.0,0.0,0.0,0.0,0.0,0.0,0.0,0.0,0.0,0.0,0.0,0.0,0.0,0.0,0.0,0.0,0.0,0.0,0.0,0.0,0.0,-1.3917,-1.2476,-1.1681,-1.1326,-1.1536,-1.1616,-1.2059,-1.2779,-1.2779,-1.2469,-1.1899,-1.1817,-1.1406,-1.0561,-0.9722,-0.9658,-1.0238,-0.9594,-0.9658,-1.0238,-1.0238,-1.0364,-1.0624,-1.0624,-1.0434,-1.0174,-0.953,-0.9139,-0.8877,-0.6979,-0.7189,-0.7531,-0.805,-0.8561,-0.9027,-0.9555,-0.9289,-0.9018,0.0,0.0,0.0,-0.7731,-0.7272,-0.6828,-0.6411,-0.5883,-0.5599,-0.569,-0.5209,-0.5017,-0.5277,-0.546,-0.5672,-0.5882,0.0,0.0,0.0,0.0,0.0,0.0,0.0,0.0,-0.8405,-0.8971,-0.9414,-0.9756,-0.9824,0.0,0.0,-1.3115,0.0,0.0,-1.5117,-1.5352,0.0,0.0,0.0,-1.2948,-1.2696,-1.1039,0.0,0.0,-0.7208,-0.6713,-0.6465,-0.6754,-0.7081,-0.6532,-0.6928,-0.7558,0.0,0.0,0.0,0.0,0.0,0.0,0.0,0.0,0.0,0.0,0.0,0.0,0.0,0.0,0.0,0.0,0.0,0.0,0.0,0.0,0.0,0.0,0.0,0.0,0.0,-1.3914,-1.3114,-1.1896,-1.153,-1.1645,-1.2258,-1.2328,-1.2623,-1.3262,-1.3262,-1.2754,-1.1822,-1.1822,-1.1315,-1.0374,-0.9481,-0.9668,-1.0555,-0.9658,-0.9786,-1.0624,-1.0624,-1.0624,-1.0624,-1.0624,-1.0624,-1.0561,-1.0047,-0.9849,-0.9786,0.0,-0.7489,-0.8059,-0.8514,-0.9418,-1.0234,-1.073,-1.0353,-0.9943,0.0,-0.8806,-0.8067,-0.7652,-0.7553,-0.7311,-0.678,-0.6451,-0.6129,-0.5825,-0.5504,-0.5342,-0.5372,-0.5703,-0.5944,-0.6037,-0.6336,0.0,0.0,0.0,0.0,0.0,0.0,0.0,-0.7776,-0.7711,-0.8123,-0.8848,-0.8672,-0.9724,-1.1606,-1.3193,-1.3994,0.0,0.0,-1.5703,0.0,-1.5032,-1.4083,-1.2875,-1.1973,-1.0464,0.0,0.0,-0.7916,-0.7154,-0.6909,-0.7213,-0.7493,-0.6887,-0.7227,-0.7947,-0.8925,0.0,0.0,-1.0549,-1.0157,0.0,0.0,0.0,0.0,0.0,0.0,0.0,0.0,0.0,0.0,0.0,0.0,0.0,0.0,0.0,0.0,0.0,0.0,0.0,-1.4019,-1.3177,-1.2461,-1.1721,-1.2107,-1.2504,-1.2997,-1.3005,-1.3202,-1.3621,-1.3677,-1.3085,-1.1894,-1.1894,-1.1279,-1.0006,-0.9126,-0.9383,-1.0461,-0.9566,-0.9693,-1.0524,-1.0524,-1.0564,-1.0624,-1.0624,-1.0624,-1.0624,-1.0624,-1.0604,-1.0514,-0.6979,-0.7489,-0.8177,-0.8974,-0.9674,-1.0234,-1.0597,-1.0133,-0.9567,-0.8966,-0.8379,-0.8024,-0.8219,-0.7809,-0.7522,-0.7655,-0.6954,-0.648,-0.642,-0.5919,-0.5683,-0.5773,-0.5851,-0.6213,-0.6841,-0.6639,0.0,0.0,0.0,0.0,0.0,0.0,0.0,-0.7733,-0.7705,-0.7793,-0.8036,-0.9365,0.0,-1.0655,-1.1694,0.0,-1.4687,-1.4932,-1.5195,-1.5352,-1.5032,-1.4186,-1.3082,0.0,-1.0363,-0.9778,0.0,0.0,-0.845,-0.8453,-0.8327,-0.8116,-0.7762,-0.8334,-0.8966,-0.8573,0.0,0.0,0.0,-0.9282,0.0,0.0,0.0,0.0,0.0,0.0,0.0,0.0,0.0,0.0,0.0,0.0,0.0,0.0,0.0,0.0,0.0,0.0,-1.3202,-1.2392,-1.1605,-1.1103,-1.0929,-1.1485,-1.2164,-1.2923,-1.2923,-1.3277,-1.3988,-1.3978,-1.3314,-1.1894,-1.1894,-1.1156,-0.9766,-0.8853,-0.9001,-0.9853,-0.8938,-0.9057,-0.9853,-0.9853,-1.0134,-1.0624,-1.0624,-1.0624,-1.0624,-1.0624,-1.0408,-1.02,-0.6979,-0.769,-0.8558,-0.9464,-1.0005,-1.0552,-1.1091,-1.027,-0.9469,-0.9256,-0.8699,-0.837,-0.8377,-0.8428,-0.8357,-0.8123,-0.7871,-0.7653,-0.7408,-0.677,-0.6426,-0.6506,-0.6486,-0.67,-0.708,-0.7098,0.0,0.0,0.0,0.0,0.0,-0.7502,-0.7812,-0.8057,-0.8057,-0.8281,-0.8688,-0.9365,-1.001,-1.0732,-1.2236,0.0,-1.4502,-1.4932,-1.5225,-1.5264,-1.4317,-1.3086,-1.1855,-1.0739,-1.0147,0.0,0.0,-0.9717,-0.9038,0.0,-0.9416,-0.9268,-0.8799,-0.9369,-1.0033,-0.9788,0.0,0.0,0.0,0.0,0.0,0.0,0.0,0.0,0.0,0.0,0.0,0.0,0.0,0.0,0.0,0.0,0.0,0.0,0.0,0.0,0.0,0.0,-1.2749,-1.195,-1.1352,-1.1225,-1.1791,-1.2284,-1.2869,-1.3467,-1.3476,-1.3597,-1.3828,-1.3818,-1.3004,-1.1358,-1.1358,-1.0709,-0.9402,-0.8579,-0.871,-0.9621,-0.8774,-0.8897,-0.9686,-0.9686,-0.986,-1.012,-1.012,-1.012,-1.012,-1.012,-1.0027,-0.99,-0.6979,-0.7848,-0.8757,-0.9525,-1.006,-1.0611,-1.1247,-1.0285,-0.9522,-0.9577,-0.9313,-0.9061,-0.8813,-0.937,-0.9504,-0.909,-0.9082,-0.8921,0.0,0.0,0.0,-0.7467,-0.7333,-0.7302,-0.7467,-0.7616,0.0,0.0,0.0,0.0,0.0,-0.7406,-0.7959,-0.8411,-0.8499,-0.8916,-0.9583,0.0,0.0,-1.1328,0.0,-1.3961,-1.4058,-1.4961,-1.5177,-1.4828,-1.3339,-1.1849,-1.0577,-1.0336,0.0,-1.0082,-1.091,-1.0357,0.0,0.0,0.0,0.0,0.0,0.0,0.0,0.0,0.0,-1.1704,0.0,0.0,0.0,-1.1375,0.0,0.0,0.0,0.0,0.0,0.0,0.0,0.0,0.0,0.0,0.0,0.0,0.0,0.0,0.0,0.0,-1.2064,-1.1359,-1.1198,-1.1528,-1.2457,-1.3039,-1.3545,-1.3887,-1.3896,-1.373,-1.3389,-1.3217,-1.236,-1.0813,-1.0669,-1.0105,-0.9097,-0.8417,-0.8596,-0.9512,-0.88,-0.8864,-0.9512,-0.9512,-0.9512,-0.9526,-0.9639,-0.9686,-0.9686,-0.9686,-0.9646,-0.9599,-0.6979,-0.753,-0.815,-0.856,-0.931,-0.9788,-0.9663,-0.9698,-0.957,-0.9001,-0.971,-1.0294,-1.0256,-1.0593,-1.1038,-1.1627,0.0,0.0,-0.9798,0.0,-0.8725,-0.8794,-0.8112,-0.8048,-0.8781,-0.8085,0.0,0.0,0.0,0.0,0.0,-0.7647,-0.7959,-0.843,-0.877,0.0,0.0,0.0,-1.123,0.0,-1.3174,-1.3574,0.0,-1.4531,-1.4449,-1.362,-1.2393,-1.1351,-1.0634,0.0,-1.0959,-1.1063,0.0,-1.1255,-1.0247,0.0,0.0,0.0,0.0,0.0,0.0,0.0,-1.2229,0.0,0.0,0.0,-1.1639,-1.0375,0.0,0.0,0.0,0.0,0.0,0.0,0.0,0.0,0.0,0.0,0.0,0.0,0.0,0.0,0.0,0.0,0.0,-0.9196,-0.9973,-1.0664,-1.1022,-1.2249,-1.2969,-1.3018,-1.3027,-1.2998,-1.2959,-1.2311,-1.161,-1.0813,-1.0218,-0.9532,-0.8858,-0.8745,-0.8765,-0.8905,-0.8798,-0.8798,-0.8905,-0.8905,-0.8905,-0.8958,-0.9479,-0.9686,-0.9686,-0.9686,-0.9519,-0.9236,-0.7147,-0.7731,-0.8385,-0.8463,-0.8985,-0.9353,-0.9399,-0.9872,-1.0105,-0.9846,-1.0539,-1.1261,0.0,0.0,0.0,0.0,0.0,-1.1546,0.0,0.0,-1.0065,-1.0096,-0.9297,-0.89,-0.9004,-0.8408,0.0,0.0,-0.7695,0.0,0.0,0.0,-0.8192,-0.9111,-0.9287,0.0,-1.11,0.0,-1.1504,0.0,0.0,0.0,0.0,-1.4639,-1.4378,-1.3093,-1.215,-1.1593,-1.1301,0.0,-1.1378,0.0,0.0,0.0,0.0,0.0,0.0,0.0,0.0,0.0,0.0,0.0,0.0,0.0,0.0,0.0,-1.1798,0.0,0.0,0.0,0.0,0.0,0.0,0.0,0.0,0.0,0.0,0.0,0.0,0.0,0.0,0.0,0.0,0.0,0.0,0.0,0.0,-1.045,-1.1922,-1.2197,-1.2452,-1.2881,-1.2881,-1.2881,-1.2881,-1.2187,-1.1466,-1.0813,-1.0115,-0.9465,-0.8804,-0.8804,-0.8804,-0.8804,-0.8804,-0.8804,-0.8804,-0.8804,-0.8804,-0.8831,-0.9078,-0.9178,-0.9178,-0.9178,-0.9092,-0.8985,-0.7641,-0.8021,-0.8437,-0.8349,-0.8507,-0.8835,-0.9328,-0.9917,-1.0386,-1.0539,0.0,0.0,-1.2975,-1.3122,0.0,0.0,-1.3623,-1.3174,0.0,0.0,-1.1396,-1.1279,-1.04,0.0,0.0,-0.8887,0.0,-0.791,-0.7754,0.0,0.0,0.0,-0.8318,-0.9437,-0.967,-1.0576,-1.182,0.0,0.0,-1.2184,-1.2666,-1.3086,-1.3535,-1.4542,-1.4232,-1.3243,-1.2451,-1.2143,-1.2089,-1.198,-1.2093,0.0,-1.357,0.0,0.0,0.0,0.0,0.0,-1.1141,0.0,0.0,0.0,0.0,0.0,0.0,0.0,0.0,0.0,0.0,0.0,0.0,0.0,0.0,0.0,0.0,0.0,0.0,0.0,0.0,0.0,0.0,0.0,0.0,0.0,0.0,0.0,0.0,0.0,-1.2227,-1.1981,-1.2138,-1.2881,-1.2881,-1.2774,-1.2608,-1.1882,-1.1166,-1.0517,-0.9865,-0.9256,-0.8804,-0.8804,-0.8804,-0.8804,-0.8804,-0.8804,-0.8804,-0.8804,-0.8804,-0.8804,-0.8804,-0.8804,-0.8804,-0.8804,-0.8804,-0.8804,-0.8635,-0.8275,-0.7919,-0.7927,-0.7716,-0.7983,-0.9231,-0.9663,-1.0079,0.0,0.0,0.0,0.0,0.0,0.0,0.0,0.0,-1.4365,-1.3516,0.0,-1.2627,-1.2161,-1.1338,-1.0859,0.0,0.0,-0.8779,-0.8391,-0.7939,0.0,0.0,0.0,0.0,0.0,-0.9893,-1.0518,-1.1006,-1.1855,-1.2686,-1.3408,-1.3037,-1.3623,-1.4671,0.0,-1.3889,-1.4085,-1.3243,0.0,0.0,-1.3406,-1.3504,0.0,0.0,0.0,0.0,0.0,0.0,0.0,0.0,0.0,0.0,-1.2394,0.0,0.0,0.0,0.0,-1.2725,0.0,0.0,0.0,0.0,0.0,-1.207,-1.1631,0.0,0.0,0.0,0.0,0.0,0.0,0.0,0.0,0.0,0.0,0.0,0.0,0.0,0.0,-1.0755,-1.1466,-1.2138,-1.2881,-1.2881,-1.2559,-1.1864,-1.1166,-1.0517,-0.9814,-0.9159,-0.8804,-0.8804,-0.8804,-0.8804,-0.8804,-0.8804,-0.8804,-0.8804,-0.8804,-0.8804,-0.8804,-0.8804,-0.8804,-0.8804,-0.8804,-0.8804,-0.8804,-1.021,-0.9733,-0.904,0.0,0.0,-0.9078,-1.0294,-1.1107,0.0,0.0,0.0,0.0,0.0,-1.5856,-1.5986,0.0,0.0,-1.5078,-1.4785,-1.3848,0.0,0.0,0.0,-1.1777,0.0,0.0,-0.9639,-0.9209,-0.8779,0.0,0.0,0.0,0.0,0.0,0.0,-1.084,0.0,0.0,0.0,0.0,0.0,-1.3896,-1.4758,0.0,0.0,-1.4085,-1.3312,-1.3152,0.0,-1.3852,-1.3783,-1.3632,-1.4379,-1.3383,-1.2085,-1.2425,-1.2175,0.0,0.0,0.0,-1.3301,-1.2394,0.0,0.0,0.0,0.0,0.0,0.0,0.0,0.0,0.0,0.0,-1.208,-1.1675,-1.1361,0.0,0.0,0.0,0.0,0.0,0.0,0.0,0.0,0.0,0.0,0.0,0.0,0.0,0.0,-1.1015,-1.1475,-1.2129,-1.2666,-1.2559,-1.1814,-1.1166,-1.0466,-0.9814,-0.9106,-0.8804,-0.8804,-0.8804,-0.8804,-0.8804,-0.8804,-0.8804,-0.8804,-0.8804,-0.8804,-0.8804,-0.8804,-0.8804,-0.8804,-0.8804,-0.8804,-0.8804,-1.1191,-1.0709,0.0,0.0,0.0,0.0,0.0,0.0,0.0,0.0,-1.485,0.0,-1.6992,0.0,-1.6592,0.0,-1.6602,-1.585,-1.5234,-1.4561,0.0,-1.3916,-1.3262,0.0,0.0,0.0,-1.0615,-0.9863,-0.9434,-0.9228,0.0,0.0,0.0,0.0,0.0,-1.083,-1.1807,0.0,-1.2725,0.0,0.0,-1.415,0.0,0.0,-1.4628,0.0,0.0,-1.3785,-1.4053,-1.4098,-1.3957,-1.3828,-1.4375,-1.3542,-1.2456,-1.2796,-1.2531,-1.2206,-1.2187,-1.275,0.0,0.0,-1.218,0.0,-1.1704,0.0,0.0,0.0,0.0,0.0,0.0,0.0,-1.208,-1.1675,-1.1191,-1.0469,0.0,0.0,0.0,0.0,0.0,0.0,0.0,0.0,-0.8681,-0.8436,0.0,0.0,0.0,0.0,-1.1216,-1.2187,-1.2666,-1.2412,-1.1458,-1.1015,-1.0364,-0.9465,-0.9008,-0.8804,-0.8804,-0.8804,-0.8804,-0.8804,-0.8804,-0.8804,-0.8804,-0.8804,-0.8804,-0.8804,-0.8804,-0.8804,-0.8804,-0.8804,-0.8804,-0.8804,0.0,0.0,0.0,0.0,-1.0976,0.0,0.0,0.0,-1.4091,0.0,-1.5234,-1.5811,-1.6699,-1.6733,-1.6963,-1.7373,-1.7393,0.0,-1.5019,-1.5225,0.0,0.0,-1.3955,-1.3769,-1.2988,0.0,0.0,0.0,0.0,0.0,0.0,0.0,0.0,0.0,-1.0078,0.0,-1.0996,-1.2295,-1.2871,-1.2988,-1.3799,-1.4385,-1.4805,-1.5215,0.0,-1.5293,-1.4922,-1.4756,-1.4658,-1.4268,-1.4048,-1.4019,-1.4038,-1.3818,-1.3477,-1.3477,-1.3193,-1.2881,-1.2881,-1.2881,-1.2783,-1.2363,0.0,0.0,0.0,0.0,-1.2734,0.0,0.0,0.0,0.0,0.0,0.0,-1.1719,-1.1204,-1.042,0.0,0.0,0.0,0.0,0.0,0.0,0.0,-0.8144,-0.7723,-0.7494,-0.7188,0.0,0.0,0.0,0.0,-1.2774,-1.2832,-1.2206,-1.0813,-1.0771,-1.0115,-0.8804,-0.8804,-0.8804,-0.8804,-0.8804,-0.8804,-0.8804,-0.8804,-0.8804,-0.8804,-0.8804,-0.8804,-0.8804,-0.8804,-0.8804,-0.8804,-0.8804,-0.8804,-0.8804,-1.2119,-1.2473,-1.2705,0.0,-1.1759,-1.1944,0.0,0.0,0.0,0.0,-1.6328,-1.6728,-1.7588,-1.7686,-1.7725,-1.7842,-1.7568,0.0,0.0,0.0,0.0,-1.541,-1.459,-1.4189,-1.4297,-1.2939,0.0,-1.2207,0.0,0.0,-1.0107,0.0,0.0,0.0,0.0,0.0,-1.0967,-1.1973,-1.2764,-1.3389,-1.3926,-1.4145,0.0,0.0,-1.4746,-1.4492,-1.4707,-1.4375,-1.3867,-1.4009,-1.3721,-1.3262,-1.3574,-1.3379,-1.3037,-1.3037,-1.2969,-1.2881,-1.2881,-1.2881,-1.2852,-1.2744,-1.2471,-1.2151,0.0,0.0,0.0,0.0,0.0,0.0,0.0,0.0,0.0,-1.2325,-1.0975,-0.9807,0.0,0.0,0.0,0.0,0.0,0.0,0.0,-0.8196,-0.7888,-0.6895,-0.7148,0.0,0.0,0.0,0.0,-1.2061,-1.208,-1.1674,-1.0813,-1.032,-0.9614,-0.8804,-0.8804,-0.8804,-0.8804,-0.8804,-0.8804,-0.8804,-0.8804,-0.8804,-0.8804,-0.8804,-0.8804,-0.8804,-0.8804,-0.8804,-0.8804,-0.8804,-0.8804,-0.8804,-1.2803,0.0,0.0,-1.376,0.0,0.0,-1.4846,0.0,0.0,-1.6309,-1.6777,0.0,-1.7422,-1.7783,-1.8008,-1.8008,-1.7793,0.0,0.0,0.0,0.0,-1.5791,-1.5264,-1.4922,-1.4785,-1.3652,0.0,-1.2598,0.0,0.0,-0.999,0.0,0.0,0.0,0.0,-1.0518,0.0,-1.2061,-1.29,-1.3525,-1.3769,0.0,0.0,-1.4404,-1.4228,-1.3887,-1.4141,-1.3916,-1.3516,-1.3574,-1.3271,-1.292,-1.3164,-1.3066,-1.2881,-1.2881,-1.2881,-1.2881,-1.2881,-1.2881,-1.2881,-1.2881,-1.2695,-1.252,-1.252,-1.252,-1.252,0.0,0.0,0.0,0.0,0.0,0.0,0.0,0.0,0.0,0.0,0.0,0.0,0.0,0.0,0.0,0.0,-0.8151,-0.7771,-0.6743,-0.6943,0.0,0.0,0.0,0.0,0.0,-1.188,-1.1466,-1.0813,-1.0167,-0.9465,-0.8804,-0.8804,-0.8804,-0.8804,-0.8804,-0.8804,-0.8804,-0.8804,-0.8804,-0.8804,-0.8804,-0.8804,-0.8804,-0.8804,-0.8804,-0.8804,-0.8804,-0.8804,-0.8804,0.0,0.0,0.0,0.0,0.0,0.0,0.0,-1.5908,0.0,-1.6292,0.0,-1.7324,-1.6943,-1.7568,-1.8008,-1.8008,0.0,-1.7695,-1.6943,-1.7207,-1.6846,-1.5635,-1.5889,-1.5743,-1.4883,-1.4336,0.0,0.0,0.0,0.0,-0.9592,0.0,0.0,0.0,0.0,0.0,0.0,-1.2344,-1.3154,0.0,-1.3584,-1.3809,-1.4131,-1.4184,-1.3942,-1.3519,-1.3519,-1.3469,-1.3369,-1.3008,-1.2881,-1.2881,-1.2881,-1.2881,-1.2881,-1.2881,-1.2881,-1.2881,-1.2881,-1.2881,-1.2881,-1.2881,-1.2881,-1.2881,-1.2881,-1.2881,-1.2881,-1.2881,-1.3334,0.0,0.0,0.0,0.0,0.0,0.0,0.0,0.0,0.0,0.0,0.0,0.0,0.0,0.0,0.0,-0.7641,-0.6809,0.0,0.0,0.0,0.0,0.0,0.0,-1.1773,0.0,-1.0813,0.0,-0.9361,-0.8804,-0.8804,-0.8804,-0.8804,-0.8804,-0.8804,-0.8804,-0.8804,-0.8804,-0.8804,-0.8804,-0.8857,-0.8903,-0.8903,-0.8903,-0.8903,-0.8903,-0.8857,-0.8804,0.0,0.0,0.0,0.0,0.0,-1.6074,-1.6445,-1.6562,-1.6748,-1.7109,-1.7588,0.0,-1.7793,-1.792,-1.8008,-1.8008,-1.8008,0.0,0.0,0.0,0.0,-1.6523,-1.6221,-1.582,-1.5312,-1.4189,-1.3506,0.0,-1.1689,-1.0429,-0.9592,-0.9524,0.0,0.0,0.0,0.0,-1.1557,-1.2518,0.0,-1.397,-1.397,-1.4009,-1.4184,-1.4714,-1.4449,-1.3762,-1.3762,-1.3446,-1.2978,-1.29,-1.2881,-1.2881,-1.2881,-1.2881,-1.2881,-1.2881,-1.2881,-1.2881,-1.2881,-1.2881,-1.2881,-1.2881,-1.2881,-1.2881,-1.2881,-1.2881,-1.2881,-1.2881,-1.2968,-1.319,-1.3732,0.0,0.0,0.0,0.0,0.0,0.0,0.0,0.0,0.0,0.0,0.0,0.0,0.0,-0.8295,0.0,0.0,0.0,0.0,0.0,0.0,0.0,0.0,0.0,0.0,0.0,0.0,-0.8804,-0.8804,-0.8804,-0.8804,-0.8804,-0.8804,-0.8804,-0.8804,-0.8804,-0.8804,-0.8804,-0.9113,-0.9614,-0.9614,-0.9614,-0.9614,-0.9614,-0.9256,-0.8804,0.0,0.0,0.0,0.0,0.0,0.0,0.0,-1.7256,0.0,-1.708,-1.7422,-1.7598,-1.7373,-1.7744,-1.8008,-1.8008,-1.8008,-1.8008,-1.8008,-1.7822,-1.7412,-1.6758,-1.6523,0.0,-1.543,-1.4375,-1.3721,-1.3506,-1.1758,-1.0429,-0.9592,-0.9592,-0.918,-0.8469,0.0,-1.0898,0.0,0.0,0.0,-1.3828,-1.4445,-1.443,-1.4208,-1.5004,-1.481,-1.4131,-1.423,-1.4061,-1.3752,-1.3113,-1.2881,-1.2881,-1.2881,-1.2881,-1.2881,-1.2881,-1.2881,-1.2881,-1.2881,-1.2881,-1.2881,-1.2881,-1.2881,-1.2881,-1.2881,-1.2881,-1.2881,-1.2881,-1.3152,-1.3552,-1.4154,-1.4098,0.0,0.0,0.0,0.0,0.0,0.0,0.0,0.0,0.0,0.0,0.0,0.0,0.0,0.0,0.0,0.0,0.0,0.0,0.0,0.0,0.0,0.0,0.0,0.0,0.0,-0.8804,-0.8804,-0.8804,-0.8804,-0.8804,-0.8804,-0.8804,-0.8804,-0.8804,-0.8804,-0.9159,-0.9517,-0.9814,-1.0167,-1.0312,-1.0261,-0.9917,-0.9614,-0.9263,0.0,-1.6631,0.0,0.0,-1.7148,0.0,0.0,-1.7744,-1.7764,-1.709,-1.7305,-1.7383,-1.7041,-1.7607,-1.8008,-1.8008,-1.793,-1.791,-1.8008,-1.7842,-1.748,-1.6894,-1.6689,-1.6269,-1.5566,-1.4707,-1.4023,0.0,0.0,0.0,0.0,-0.9826,-0.9551,-0.8984,0.0,0.0,0.0,0.0,-1.38,-1.3971,-1.5101,-1.5185,-1.4663,-1.5494,-1.5352,-1.4677,-1.4821,-1.4949,-1.4855,-1.3659,-1.3183,-1.3065,-1.2929,-1.2881,-1.2881,-1.2881,-1.2881,-1.2881,-1.2881,-1.2881,-1.2881,-1.2881,-1.3027,-1.3065,-1.2929,-1.3113,-1.32,-1.2978,-1.3286,-1.3779,-1.4376,-1.4387,0.0,0.0,0.0,0.0,0.0,0.0,0.0,0.0,0.0,0.0,0.0,0.0,0.0,0.0,0.0,0.0,0.0,0.0,0.0,0.0,0.0,0.0,-1.0897,0.0,-0.9008,0.0,-0.8857,-0.8804,-0.8804,-0.8804,-0.8804,-0.8804,-0.8804,-0.8857,-0.9061,-0.9562,-0.9969,-1.0261,-1.0813,-1.1015,-1.0914,-1.0261,-0.9917,-0.9718,0.0,0.0,0.0,0.0,0.0,0.0,0.0,-1.7744,-1.7978,-1.79,-1.793,-1.7939,-1.7891,-1.7959,-1.8008,-1.8008,-1.7666,-1.7607,-1.7988,-1.7285,-1.6992,-1.7305,-1.6553,-1.6145,-1.6066,-1.5166,-1.4326,0.0,0.0,0.0,0.0,-1.0615,-1.0752,-1.0713,0.0,0.0,0.0,-1.3841,-1.4753,-1.5236,-1.6387,-1.6476,-1.6076,-1.6706,-1.635,-1.5468,-1.5511,-1.5851,-1.6057,-1.472,-1.4018,-1.3637,-1.3065,-1.2881,-1.2881,-1.2881,-1.2881,-1.2881,-1.2881,-1.2881,-1.2881,-1.2881,-1.3334,-1.3552,-1.3017,-1.3752,-1.4201,-1.3113,-1.2929,-1.3152,-1.3779,-1.342,-1.3097,0.0,0.0,0.0,0.0,0.0,0.0,0.0,0.0,0.0,0.0,0.0,0.0,0.0,0.0,0.0,0.0,0.0,0.0,0.0,0.0,-1.0757,-1.114,-1.0213,0.0,-0.971,-0.9106,-0.8804,-0.8804,-0.8804,-0.8804,-0.8804,-0.8804,-0.9159,-0.971,-0.9762,-1.0517,-1.1616,-1.1665,-1.1715,-1.1616,-1.0965,-1.0312,-0.9718,0.0,0.0,0.0,0.0,0.0,0.0,0.0,-1.79,-1.8008,-1.8008,-1.8008,-1.8008,-1.8008,-1.8008,-1.8008,-1.8008,-1.7852,-1.7832,-1.7998,-1.7451,-1.708,-1.7002,-1.6396,-1.5998,-1.5684,-1.5088,-1.4619,0.0,0.0,0.0,0.0,0.0,0.0,0.0,0.0,-1.2764,-1.3047,-1.421,-1.5088,-1.5754,-1.6872,-1.723,-1.7123,-1.7915,-1.7739,-1.7003,-1.7105,-1.7316,-1.7204,-1.5623,-1.486,-1.4495,-1.3571,-1.3262,-1.3203,-1.2959,-1.2881,-1.2881,-1.2881,-1.2881,-1.2881,-1.2881,-1.3055,-1.32,-1.2978,-1.3296,-1.3478,-1.3027,-1.32,-1.3505,-1.3779,-1.3589,-1.3443,0.0,0.0,0.0,0.0,0.0,0.0,0.0,0.0,0.0,0.0,0.0,0.0,0.0,0.0,-0.6538,-0.6568,0.0,0.0,-0.9717,0.0,-1.0795,-1.1181,-1.0689,-1.0218,-0.9814,-0.951,-0.9211,-0.8804,-0.8804,-0.8804,-0.8804,-0.9211,-0.9562,-0.9865,-1.0669,-1.1316,-1.1864,-1.2295,-1.2452,-1.2353,-1.1225,-1.061,-1.0269,-1.9443,0.0,-1.8828,0.0,-1.8477,-1.8154,-1.8027,-1.8008,-1.8008,-1.8008,-1.8008,-1.8008,-1.8008,-1.8008,-1.8008,-1.8008,-1.79,-1.7881,-1.8008,-1.75,-1.7168,-1.7109,-1.6436,0.0,-1.5801,-1.5254,-1.4912,-1.4785,-1.3887,0.0,0.0,0.0,0.0,0.0,-1.3115,-1.3418,-1.374,-1.4942,-1.5737,-1.6353,-1.769,-1.8139,-1.8084,-1.8744,-1.8598,-1.803,-1.8138,-1.8149,-1.7861,-1.6382,-1.5731,-1.5342,-1.382,-1.3408,-1.3428,-1.3008,-1.2881,-1.2881,-1.2881,-1.2881,-1.2929,-1.3104,-1.3296,-1.3382,-1.32,-1.343,-1.36,-1.3238,-1.3372,-1.3552,-1.3552,-1.3552,-1.3511,0.0,0.0,0.0,0.0,0.0,0.0,0.0,-1.1064,-1.0488,0.0,0.0,0.0,0.0,0.0,-0.7129,-0.7297,0.0,0.0,0.0,0.0,0.0,0.0,0.0,-1.0864,-1.0364,-0.9969,-0.9562,-0.9113,-0.891,-0.891,-0.9106,-0.9614,-1.0012,-1.0466,-1.1416,-1.1922,-1.2187,-1.2715,-1.2881,-1.2725,-1.1334,-1.0813,-1.0618,-1.9824,-1.957,-1.9277,-1.9277,-1.8916,-1.8486,-1.8076,-1.8008,-1.8008,-1.8008,-1.8008,-1.8008,-1.8008,-1.8008,-1.8008,-1.8008,-1.7627,-1.7568,-1.7978,-1.7217,-1.7119,0.0,0.0,-1.6269,-1.6709,-1.5859,-1.5205,-1.4785,0.0,0.0,-1.3486,0.0,-1.3711,-1.4058,-1.4058,-1.4068,-1.4204,-1.6168,-1.6969,-1.7172,-1.9047,-1.9446,-1.8983,-1.8983,-1.8694,-1.8216,-1.8204,-1.8069,-1.7765,-1.704,-1.6678,-1.6046,-1.3671,-1.3174,-1.3428,-1.3008,-1.2881,-1.2881,-1.2881,-1.2881,-1.3065,-1.3637,-1.4236,-1.4514,-1.392,-1.4721,-1.5219,-1.4039,-1.3324,-1.2929,-1.2929,-1.2929,-1.2734,-1.2305,0.0,0.0,0.0,0.0,0.0,0.0,-1.0851,-1.0283,-1.0273,0.0,0.0,0.0,0.0,0.0,0.0,0.0,0.0,-1.0838,-1.1713,0.0,-1.218,-1.1925,-1.1765,-1.1765,-1.0415,-0.9814,-0.9762,-0.9113,-0.9159,-0.9762,-0.9814,-1.0559,-1.1765,-1.1814,-1.2236,-1.2881,-1.2881,-1.2881,-1.2725,-1.1334,-1.0813,-1.0618,-2.0332,-2.0244,-2.0068,-1.9766,-1.9365,-1.8936,-1.8506,-1.8193,-1.8008,-1.8008,-1.8008,-1.8008,-1.8008,0.0,-1.8008,0.0,-1.7891,-1.7871,0.0,-1.749,-1.7295,-1.7568,-1.6894,-1.6445,-1.6279,-1.5996,-1.5644,-1.5215,0.0,0.0,0.0,-1.3936,-1.3951,-1.4087,-1.4443,-1.4835,-1.5378,-1.6284,-1.7246,-1.8225,-1.8814,-1.9273,-1.956,-1.956,-1.9447,-1.9296,-1.9296,-1.8914,-1.8312,-1.7281,-1.6754,-1.6161,-1.4294,-1.3828,-1.3857,-1.3437,-1.3105,-1.2881,-1.2881,-1.2881,-1.3065,-1.3637,-1.3647,-1.3515,-1.3732,-1.3779,-1.3647,-1.3286,-1.3017,-1.2881,-1.2881,-1.2881,-1.2832,-1.2695,0.0,0.0,0.0,0.0,0.0,0.0,0.0,-1.083,0.0,-1.0635,0.0,0.0,0.0,0.0,0.0,0.0,0.0,0.0,-1.1621,0.0,-1.218,-1.2455,-1.2295,-1.1814,-1.1366,-1.0661,-0.9814,-0.9562,-0.9614,-0.9814,-1.0261,-1.0965,-1.1814,-1.2344,-1.2666,-1.2881,-1.2881,-1.2881,-1.2725,-1.1334,-1.0813,-1.0618,-2.0566,-2.0566,-2.043,-1.999,-1.957,-1.9141,-1.8701,-1.8281,-1.8008,-1.8008,-1.8008,-1.8008,-1.8008,-1.8008,0.0,-1.8008,-1.8008,0.0,-1.8008,-1.7764,-1.7617,-1.7617,-1.7207,-1.6846,-1.6562,0.0,0.0,-1.5654,-1.5225,-1.4883,-1.4619,-1.4619,-1.4619,-1.4629,-1.5173,-1.5675,-1.6174,-1.696,-1.7841,-1.8715,-1.898,-1.9371,-1.9798,-1.9798,-1.9798,-1.9798,-1.9798,-1.915,-1.8174,-1.7447,-1.6731,-1.5934,-1.4887,-1.434,-1.4,-1.3633,-1.332,-1.3076,-1.293,-1.2881,-1.3065,-1.3637,-1.3505,-1.3334,-1.3732,-1.3324,-1.2881,-1.2881,-1.2881,-1.2881,-1.2881,-1.2881,-1.2881,-1.2881,0.0,0.0,0.0,0.0,0.0,0.0,0.0,0.0,0.0,-1.1465,0.0,0.0,0.0,0.0,0.0,0.0,0.0,-1.1006,-1.1963,0.0,-1.2471,-1.2744,-1.2666,-1.2187,-1.1922,-1.1216,-1.0167,-0.9917,-1.0064,-1.0568,-1.072,-1.1325,-1.2236,-1.2715,-1.2881,-1.2881,-1.2881,-1.2715,-1.2353,-1.1225,-1.0669,-1.0269,-2.0566,-2.0566,0.0,0.0,-1.9609,0.0,-1.875,-1.832,-1.8047,-1.8018,-1.8008,-1.8008,-1.8008,-1.8008,-1.8008,-1.8008,0.0,0.0,0.0,-1.8008,-1.8008,-1.8008,-1.7637,0.0,-1.7344,-1.6533,-1.6135,-1.6076,-1.5615,-1.541,-1.541,-1.541,-1.541,-1.541,-1.6151,-1.6492,-1.6652,-1.8058,-1.8661,-1.8821,-1.9527,-1.9798,-1.9798,-1.9798,-1.9798,-1.9798,-1.9798,-1.8874,-1.7578,-1.7578,-1.6631,-1.541,-1.541,-1.4863,-1.4077,-1.3682,-1.3506,-1.3379,-1.2988,-1.2881,-1.3065,-1.3637,-1.3815,-1.3779,-1.3732,-1.3286,-1.2881,-1.2881,-1.2881,-1.2881,-1.2881,-1.2881,-1.2881,-1.2881,-1.2881,-1.2871,-1.2842,0.0,0.0,0.0,0.0,0.0,0.0,-1.2031,-1.22,0.0,0.0,0.0,0.0,0.0,0.0,-1.2161,-1.2656,-1.2881,-1.2881,-1.2881,-1.2881,-1.2881,-1.2187,-1.1516,-1.0864,-1.0218,-1.0618,-1.1765,-1.1166,-1.1642,-1.2881,-1.2881,-1.2881,-1.2881,-1.2881,-1.2452,-1.1715,-1.1065,-1.0364,-0.9718,0.0,0.0,-2.0527,-2.043,-2.0049,-1.9619,-1.9199,-1.8769,-1.8379,-1.8047,-1.8008,-1.8008,-1.8008,-1.8008,-1.8008,-1.8008,-1.8008,-1.8008,-1.8008,-1.8008,-1.8008,-1.8008,-1.791,-1.7559,-1.6894,-1.668,-1.624,-1.5566,-1.5459,-1.541,-1.541,-1.541,-1.541,-1.541,-1.5575,-1.6312,-1.7357,-1.7688,-1.8501,-1.9527,-1.9747,-1.9798,-1.9798,-1.9798,-1.9798,-1.9798,-1.9798,-1.8874,-1.7578,-1.7578,-1.6631,-1.541,-1.541,-1.5273,-1.4961,-1.4209,-1.3525,-1.3008,-1.291,-1.2881,-1.3065,-1.3637,-1.3815,-1.3684,-1.3238,-1.3017,-1.2881,-1.2881,-1.2881,-1.2881,-1.2881,-1.2881,-1.2881,-1.2881,-1.2881,-1.2764,-1.2432,0.0,0.0,0.0,-1.2005,-1.209,-1.2577,-1.2666,-1.2451,0.0,0.0,0.0,0.0,0.0,-1.1875,-1.218,-1.2656,-1.2881,-1.2881,-1.2881,-1.2881,-1.2881,-1.2715,-1.2246,-1.1566,-1.1416,-1.1516,-1.1814,-1.1616,-1.2089,-1.2881,-1.2881,-1.2881,-1.2881,-1.2881,-1.2452,-1.1715,-1.1065,-1.0364,-0.9718,-2.0566,-2.0566,-2.0566,-2.0566,-2.0205,-1.9844,-1.9609,-1.9209,-1.8779,-1.835,-1.8291,-1.8223,-1.8037,-1.8008,-1.8008,-1.8008,-1.8008,-1.8008,-1.8008,-1.8008,-1.8008,-1.8008,-1.8008,-1.7793,-1.7324,-1.687,-1.6299,-1.541,-1.541,-1.541,-1.541,-1.541,-1.541,-1.541,-1.6073,-1.6856,-1.7633,-1.834,-1.9097,-1.9798,-1.9798,-1.9798,-1.9798,-1.9798,-1.9798,-1.9747,-1.9423,-1.8555,-1.7523,-1.7191,-1.6358,-1.541,-1.541,-1.5283,-1.5029,-1.457,-1.3965,-1.3369,-1.2988,-1.2881,-1.2968,-1.3334,-1.3372,-1.3286,-1.2968,-1.2881,-1.2881,-1.2881,-1.2881,-1.2881,-1.2881,-1.2881,-1.2881,-1.2881,-1.2881,-1.2803,-1.2559,-1.2353,0.0,-1.25,-1.2353,-1.2402,-1.2842,-1.3152,-1.299,-1.2243,0.0,0.0,-1.2224,-1.2393,-1.2529,-1.2529,-1.2754,-1.2881,-1.2881,-1.2881,-1.2881,-1.2881,-1.2881,-1.2666,-1.2295,-1.1972,-1.1972,-1.2286,-1.1972,-1.2236,-1.2881,-1.2881,-1.2881,-1.2881,-1.2881,-1.2255,-1.1316,-1.0914,-1.0167,-0.9309,-2.0566,-2.0566,-2.0566,-2.0566,-2.0254,-1.999,-1.9922,-1.9609,-1.9228,-1.8789,-1.874,-1.8574,-1.8154,-1.8105,-1.8076,-1.8018,-1.8008,-1.8008,-1.8008,-1.8008,-1.8008,-1.8008,-1.8008,-1.7978,-1.792,-1.7139,-1.6328,-1.5508,-1.5508,-1.5478,-1.541,-1.541,-1.541,-1.5468,-1.6856,-1.7523,-1.7688,-1.9044,-1.9695,-1.9798,-1.9798,-1.9747,-1.9643,-1.9747,-1.9643,-1.9423,-1.8874,-1.8167,-1.7357,-1.6708,-1.6036,-1.541,-1.541,-1.5166,-1.4863,-1.4805,-1.4521,-1.4043,-1.3203,-1.293,-1.2881,-1.2881,-1.2881,-1.2881,-1.2881,-1.2881,-1.2881,-1.2881,-1.2881,-1.2881,-1.2881,-1.2881,-1.2881,-1.2881,-1.2881,-1.2861,-1.2793,0.0,0.0,-1.2744,-1.2604,-1.2602,-1.2977,-1.36,-1.3695,-1.3055,-1.3505,0.0,0.0,-1.2881,-1.2881,-1.2881,-1.2881,-1.2881,-1.2881,-1.2881,-1.2881,-1.2881,-1.2881,-1.2881,-1.2881,-1.2236,-1.2295,-1.2881,-1.2236,-1.2344,-1.2881,-1.2881,-1.2881,-1.2881,-1.2774,-1.194,-1.0762,-1.0669,-0.9865,-0.8804,-2.0566,-2.0566,-2.0566,-2.0566,-2.0508,-2.0342,-1.9971,-1.9853,-1.9668,-1.9248,-1.9189,-1.9023,-1.8584,-1.8545,-1.8398,-1.8037,-1.8008,-1.8008,-1.8008,-1.8008,-1.8008,-1.8008,-1.8008,-1.7842,-1.749,-1.6992,-1.6484,-1.5957,-1.5957,-1.5771,-1.541,-1.541,-1.541,-1.541,-1.6312,-1.7034,-1.7688,-1.8501,-1.9254,-1.9798,-1.9798,-1.9423,-1.8939,-1.9579,-1.9044,-1.8004,-1.8501,-1.7852,-1.6652,-1.6539,-1.6036,-1.541,-1.541,-1.5371,-1.5244,-1.4893,-1.4736,-1.4502,-1.3643,-1.3154,-1.2881,-1.2881,-1.2881,-1.2881,-1.2881,-1.2881,-1.2881,-1.2881,-1.2881,-1.2881,-1.2881,-1.2881,-1.2881,-1.2881,-1.2881,-1.2754,0.0,0.0,-1.2666,-1.2363,-1.303,-1.3554,-1.3637,-1.4201,-1.4329,-1.3684,-1.3732,-1.3552,-1.292,-1.2881,-1.2881,-1.2881,-1.2881,-1.2881,-1.2881,-1.2881,-1.2881,-1.2881,-1.2881,-1.2881,-1.2881,-1.2774,-1.2774,-1.2881,-1.2774,-1.2774,-1.2881,-1.2881,-1.2881,-1.2822,-1.2187,-1.1466,-1.0712,-1.0167,-0.9465,-0.8804,-2.0566,-2.0566,-2.0566,-2.0566,-2.0566,-2.0498,-2.0293,-2.0264,-2.0107,-1.9678,-1.9619,-1.9375,-1.863,-1.8562,-1.8467,-1.8047,-1.8008,-1.8008,-1.8008,-1.8008,-1.8008,-1.8008,-1.8008,-1.7812,-1.7393,-1.7187,-1.6865,-1.6426,-1.6426,-1.6318,-1.6123,-1.6123,-1.6123,-1.6113,-1.6632,-1.7309,-1.8014,-1.8511,-1.915,-1.9747,-1.9371,-1.898,-1.8715,-1.8661,-1.8167,-1.7578,-1.7523,-1.709,-1.6436,-1.6036,-1.569,-1.541,-1.541,-1.541,-1.5371,-1.5176,-1.4795,-1.4346,-1.3955,-1.3535,-1.3213,-1.3213,-1.3047,-1.2881,-1.2881,-1.2881,-1.2881,-1.2881,-1.2881,-1.2881,-1.2881,-1.2881,-1.2881,-1.2881,-1.2881,0.0,0.0,-1.2754,-1.2938,-1.304,-1.3512,-1.3815,-1.3815,-1.4329,-1.4294,-1.3382,-1.3637,-1.3552,-1.292,-1.2881,-1.2881,-1.2881,-1.2881,-1.2881,-1.2881,-1.2881,-1.2881,-1.2881,-1.2881,-1.2881,-1.2881,-1.2881,-1.2676,-1.2314,-1.2725,-1.2666,-1.2344,-1.2725,-1.2666,-1.2295,-1.1922,-1.1166,-1.0218,-0.9909,-0.9361,-0.8804,-2.0566,-2.0566,-2.0566,-2.0566,-2.0566,-2.0566,-2.0566,-2.0566,-2.0449,-2.0107,-2.0068,-1.9736,-1.8887,-1.8789,-1.8574,-1.8057,-1.8008,-1.8008,-1.8008,-1.8008,-1.8008,-1.8008,-1.8008,-1.7861,-1.7539,-1.7529,-1.7314,-1.6885,-1.6885,-1.6836,-1.6665,-1.6665,-1.6665,-1.6709,-1.7042,-1.7525,-1.8063,-1.8343,-1.8768,-1.9254,-1.8661,-1.8328,-1.8167,-1.7743,-1.7413,-1.7024,-1.6652,-1.6379,-1.6151,-1.5584,-1.541,-1.541,-1.541,-1.541,-1.541,-1.541,-1.4951,-1.433,-1.4136,-1.3828,-1.3506,-1.3506,-1.3193,-1.2881,-1.2881,-1.2881,-1.2881,-1.2881,-1.2881,-1.2881,-1.2881,-1.2881,-1.2881,-1.2881,0.0,0.0,0.0,-1.2881,-1.3065,-1.3552,-1.3732,-1.3815,-1.3815,-1.4329,-1.4247,-1.32,-1.3552,-1.3552,-1.292,-1.2881,-1.2881,-1.2881,-1.2881,-1.2881,-1.2881,-1.2881,-1.2881,-1.2881,-1.2881,-1.2881,-1.2881,-1.2881,-1.2569,-1.2107,-1.2676,-1.2559,-1.208,-1.2666,-1.2452,-1.1765,-1.1616,-1.0864,-0.9762,-0.9614,-0.9263,-0.8804,-2.0566,-2.0566,-2.0566,-2.0566,-2.0566,-2.0566,-2.0566,-2.0566,-2.0557,-2.0518,-2.0518,-2.0195,-1.9336,-1.9238,-1.8906,-1.8076,-1.8008,-1.8008,-1.8008,-1.8008,-1.8008,-1.8008,-1.8008,-1.7998,-1.7969,-1.7969,-1.7764,-1.7334,-1.7334,-1.7129,-1.6665,-1.6665,-1.6665,-1.6709,-1.7042,-1.7242,-1.7328,-1.7567,-1.7688,-1.7743,-1.7688,-1.7246,-1.6708,-1.7357,-1.6743,-1.5633,-1.6255,-1.6036,-1.5468,-1.541,-1.541,-1.541,-1.541,-1.541,-1.541,-1.541,-1.5361,-1.5146,-1.4291,-1.3828,-1.3506,-1.3506,-1.3193,-1.2881,-1.2881,-1.2881,-1.2881,-1.2881,-1.2881,-1.2881,-1.2881,-1.2881,-1.2881,-1.2881,0.0,0.0,-1.2881,-1.2881,-1.2929,-1.2968,-1.3457,-1.3815,-1.3815,-1.4329,-1.4422,-1.3779,-1.3768,-1.3552,-1.292,-1.2881,-1.2881,-1.2881,-1.2881,-1.2881,-1.2881,-1.2881,-1.2881,-1.2881,-1.2881,-1.2881,-1.2881,-1.2881,-1.2881,-1.2832,-1.2881,-1.2881,-1.2822,-1.2881,-1.2452,-1.1765,-1.1116,-1.0415,-0.9718,-0.9113,-0.8857,-0.8804,-2.0566,-2.0566,-2.0566,-2.0566,-2.0566,-2.0566,-2.0566,-2.0566,-2.0566,-2.0566,-2.0566,-2.0332,-1.9736,-1.9443,-1.9043,-1.8447,-1.8154,-1.8008,-1.8008,-1.8008,-1.8008,-1.8008,-1.8008,-1.8008,-1.8008,-1.8008,-1.793,-1.7773,-1.7773,-1.7686,-1.7519,-1.7519,-1.7519,-1.75,-1.7392,-1.7399,-1.757,-1.7392,-1.7475,-1.7578,-1.709,-1.6765,-1.6492,-1.6312,-1.5911,-1.541,-1.57,-1.5642,-1.541,-1.541,-1.541,-1.541,-1.541,-1.541,-1.541,-1.541,-1.541,-1.5342,-1.5019,-1.4619,-1.4238,-1.3965,-1.3584,-1.3203,-1.2939,-1.2881,-1.2881,-1.2881,-1.2881,-1.2881,-1.2881,-1.2881,-1.2881,-1.2881,0.0,-1.2881,-1.2881,-1.2881,-1.3065,-1.342,-1.3637,-1.3815,-1.3815,-1.4003,-1.3873,-1.3286,-1.3238,-1.3152,-1.2929,-1.2881,-1.2881,-1.2881,-1.2881,-1.2881,-1.2881,-1.2881,-1.2881,-1.2881,-1.2881,-1.2881,-1.2881,-1.2881,-1.2666,-1.2236,-1.2715,-1.2657,-1.2236,-1.2236,-1.1823,-1.1116,-1.0415,-0.9488,-0.8455,-0.8203,-0.783,-0.7503,-2.0566,-2.0566,-2.0566,-2.0566,-2.0566,-2.0566,-2.0566,-2.0566,-2.0566,-2.0566,-2.0566,-2.04,-1.9961,-1.9658,-1.9316,-1.8877,-1.8447,-1.8213,-1.8213,-1.8086,-1.8008,-1.8008,-1.8008,-1.8008,-1.8008,-1.8008,-1.8008,-1.8008,-1.8008,-1.8008,-1.8008,-1.8008,-1.8008,-1.7988,-1.7568,-1.7521,-1.7614,-1.7083,-1.6936,-1.707,-1.642,-1.6233,-1.6308,-1.5782,-1.5615,-1.5615,-1.5615,-1.5527,-1.541,-1.57,-1.5584,-1.5468,-1.57,-1.5584,-1.541,-1.541,-1.541,-1.541,-1.541,-1.5205,-1.4844,-1.4277,-1.3721,-1.3232,-1.2949,-1.2881,-1.2881,-1.2881,-1.2881,-1.2881,-1.2881,-1.2881,-1.2881,-1.2881,-1.2881,-1.2881,-1.2881,-1.2881,-1.3065,-1.3467,-1.3505,-1.3505,-1.3505,-1.3505,-1.3324,-1.2929,-1.2881,-1.2881,-1.2881,-1.2881,-1.2881,-1.2881,-1.2881,-1.2881,-1.2881,-1.2881,-1.2881,-1.2881,-1.2881,-1.2881,-1.2881,-1.2881,-1.2608,-1.2178,-1.2666,-1.2501,-1.1814,-1.1814,-1.1266,-1.0415,-0.9961,-0.8928,-0.7723,-0.7723,-0.7396,-0.702,-2.0566,-2.0566,-2.0566,-2.0566,-2.0566,-2.0566,-2.0566,-2.0566,-2.0566,-2.0566,-2.0566,-2.04,-1.9971,-1.9912,-1.9746,-1.9326,-1.8887,-1.8562,-1.8633,-1.8242,-1.8008,-1.8008,-1.8008,-1.8008,-1.8008,-1.8008,-1.8008,-1.8008,-1.8008,-1.8008,-1.8008,-1.8008,-1.8008,-1.7988,-1.7578,-1.7393,-1.7324,-1.6507,-1.6135,-1.6035,-1.5596,-1.5684,-1.6125,-1.6125,-1.6125,-1.6125,-1.6125,-1.5781,-1.5536,-1.6265,-1.6036,-1.5526,-1.6265,-1.5979,-1.541,-1.541,-1.541,-1.541,-1.541,-1.541,-1.5205,-1.4291,-1.3506,-1.2891,-1.2881,-1.2881,-1.2881,-1.2881,-1.2881,-1.2881,-1.2881,-1.2881,-1.2881,-1.2881,-1.2881,-1.2881,-1.2881,-1.2881,-1.2881,-1.2881,-1.2881,-1.2881,-1.2881,-1.2881,-1.2881,-1.2881,-1.2881,-1.2881,-1.2881,-1.2881,-1.2881,-1.2881,-1.2881,-1.2881,-1.2881,-1.2881,-1.2881,-1.2881,-1.2881,-1.2881,-1.2881,-1.2881,-1.2881,-1.2881,-1.2881,-1.2501,-1.1814,-1.1814,-1.1015,-0.9814,-0.9814,-0.8928,-0.7723,-0.767,-0.767,-0.767,-2.0566,-2.0566,-2.0566,-2.0566,-2.0566,-2.0566,-2.0566,-2.0566,-2.0566,-2.0566,-2.0566,-2.0518,-2.0391,-2.0098,-1.9746,-1.9326,-1.8887,-1.8516,-1.8213,-1.8076,-1.8008,-1.8008,-1.8008,-1.8008,-1.8008,-1.8008,-1.8008,-1.8008,-1.8008,-1.8008,-1.8008,-1.8008,-1.8008,-1.8008,-1.7881,-1.7656,-1.7363,-1.71,-1.6816,-1.6523,-1.6387,-1.6416,-1.6533,-1.6533,-1.6533,-1.6494,-1.6172,-1.6037,-1.588,-1.5742,-1.5575,-1.541,-1.5642,-1.5584,-1.541,-1.541,-1.541,-1.541,-1.541,-1.5195,-1.4834,-1.4277,-1.3945,-1.3603,-1.3018,-1.2881,-1.2881,-1.2881,-1.2881,-1.2881,-1.2881,-1.2881,-1.2881,-1.2881,-1.2881,-1.2881,-1.2881,-1.2881,-1.2881,-1.2881,-1.2881,-1.2881,-1.2881,-1.2881,-1.2881,-1.2881,-1.2881,-1.2881,-1.2881,-1.2881,-1.2881,-1.2881,-1.2881,-1.2881,-1.2881,-1.2881,-1.2881,-1.2881,-1.2881,-1.2881,-1.2881,-1.2881,-1.2881,-1.2881,-1.2881,-1.2501,-1.1765,-1.1316,-1.0568,-0.9762,-0.9263,-0.8521,-0.7616,-0.7128,-0.6912,-0.6912,-2.0566,-2.0566,-2.0566,-2.0566,-2.0566,-2.0566,-2.0566,-2.0566,-2.0566,-2.0566,-2.0566,-2.0566,-2.0566,-2.0332,-2.0068,-1.9814,-1.9238,-1.8643,-1.8047,-1.8008,-1.8008,-1.8008,-1.8008,-1.8008,-1.8008,-1.8008,-1.8008,-1.8008,-1.8008,-1.8008,-1.8008,-1.8008,-1.8008,-1.8008,-1.8008,-1.7871,-1.7627,-1.7451,-1.7227,-1.6973,-1.6743,-1.6836,-1.6992,-1.6992,-1.6885,-1.6719,-1.6621,-1.6357,-1.6076,-1.6108,-1.6014,-1.5748,-1.5468,-1.541,-1.541,-1.541,-1.541,-1.541,-1.541,-1.5225,-1.4932,-1.4502,-1.4141,-1.375,-1.3242,-1.2998,-1.2881,-1.2881,-1.2881,-1.2881,-1.2881,-1.2881,-1.2881,-1.2881,-1.2881,-1.2881,-1.2881,-1.2881,-1.2881,-1.2881,-1.2881,-1.2881,-1.2881,-1.2881,-1.2881,-1.2881,-1.2881,-1.2881,-1.2881,-1.2881,-1.2881,-1.2881,-1.2881,-1.2881,-1.2881,-1.2881,-1.2881,-1.2881,-1.2881,-1.2881,-1.2881,-1.2881,-1.2725,-1.2501,-1.2774,-1.2197,-1.1015,-1.0864,-1.0269,-0.9361,-0.8956,-0.8374,-0.7616,-0.6858,-0.6804,-0.702,-2.0566,-2.0566,-2.0566,-2.0566,-2.0566,-2.0566,-2.0566,-2.0566,-2.0566,-2.0566,-2.0566,-2.0566,-2.0566,-2.0527,-2.0498,-2.0459,-1.9668,-1.8838,-1.8057,-1.8008,-1.8008,-1.8008,-1.8008,-1.8008,-1.8008,-1.8008,-1.8008,-1.8008,-1.8008,-1.8008,-1.8008,-1.8008,-1.8008,-1.8008,-1.8008,-1.8008,-1.7988,-1.7598,-1.7441,-1.7402,-1.7012,-1.708,-1.7441,-1.7441,-1.7197,-1.6894,-1.7256,-1.6865,-1.6294,-1.6917,-1.6853,-1.6316,-1.5594,-1.541,-1.541,-1.541,-1.541,-1.541,-1.541,-1.541,-1.5322,-1.4941,-1.4228,-1.3603,-1.3525,-1.3213,-1.293,-1.2891,-1.2881,-1.2881,-1.2881,-1.2881,-1.2881,-1.2881,-1.2881,-1.2881,-1.2881,-1.2881,-1.2881,-1.2881,-1.2881,-1.2881,-1.2881,-1.2881,-1.2881,-1.2881,-1.2881,-1.2881,-1.2881,-1.2881,-1.2881,-1.2881,-1.2881,-1.2881,-1.2881,-1.2881,-1.2881,-1.2881,-1.2881,-1.2881,-1.2881,-1.2822,-1.2452,-1.1814,-1.2452,-1.1592,-0.9865,-1.0466,-0.9961,-0.8804,-0.8804,-0.8374,-0.7616,-0.6858,-0.702,-0.7509,-2.0566,-2.0566,-2.0566,-2.0566,-2.0566,-2.0566,-2.0566,-2.0566,-2.0566,-2.0566,-2.0566,-2.0566,-2.0566,-2.0254,-1.9922,-1.959,-1.8779,-1.8203,-1.8018,-1.8008,-1.8008,-1.8008,-1.8008,-1.8008,-1.8008,-1.8008,-1.8008,-1.8008,-1.8008,-1.8008,-1.8008,-1.8008,-1.8008,-1.8008,-1.8008,-1.8008,-1.8008,-1.791,-1.7871,-1.7871,-1.7773,-1.7793,-1.7871,-1.7871,-1.7812,-1.7705,-1.7471,-1.7266,-1.7056,-1.6535,-1.6297,-1.6098,-1.5576,-1.541,-1.541,-1.541,-1.541,-1.541,-1.541,-1.541,-1.5391,-1.5293,-1.4893,-1.4336,-1.3662,-1.3437,-1.3281,-1.2949,-1.2881,-1.2881,-1.2881,-1.2881,-1.2881,-1.2881,-1.2881,-1.2881,-1.2881,-1.2881,-1.2881,-1.2881,-1.2881,-1.2881,-1.2881,-1.2881,-1.2881,-1.2881,-1.2881,-1.2881,-1.2881,-1.2881,-1.2881,-1.2881,-1.2881,-1.2881,-1.2881,-1.2881,-1.2881,-1.2881,-1.2881,-1.2881,-1.2881,-1.2295,-1.1972,-1.1765,-1.1425,-1.072,-0.9814,-0.9961,-0.951,-0.8804,-0.8804,-0.8374,-0.7616,-0.6858,-0.6696,-0.6912,-2.0566,-2.0566,-2.0566,-2.0566,-2.0566,-2.0566,-2.0566,-2.0566,-2.0566,-2.0566,-2.0566,-2.0488,-2.0273,-2.0244,-1.9971,-1.9346,-1.8691,-1.8223,-1.8018,-1.8008,-1.8008,-1.8008,-1.8008,-1.8008,-1.8008,-1.8008,-1.8202,-1.8586,-1.8586,-1.8586,-1.8586,-1.8586,-1.8395,-1.8008,-1.8008,-1.8008,-1.8008,-1.8008,-1.8008,-1.8008,-1.8008,-1.8008,-1.8008,-1.8008,-1.7881,-1.7705,-1.7686,-1.7549,-1.7314,-1.6846,-1.6553,-1.6309,-1.5859,-1.5723,-1.5684,-1.5469,-1.541,-1.541,-1.541,-1.541,-1.541,-1.541,-1.5244,-1.4912,-1.4268,-1.3799,-1.3447,-1.3223,-1.3018,-1.2881,-1.2881,-1.2881,-1.2881,-1.2881,-1.2881,-1.2881,-1.2881,-1.2881,-1.2881,-1.2881,-1.2881,-1.2774,-1.2403,-1.2393,-1.2246,-1.19,-1.19,-1.19,-1.19,-1.19,-1.19,-1.19,-1.19,-1.2049,-1.2344,-1.2393,-1.2559,-1.2881,-1.2881,-1.2881,-1.2881,-1.2138,-1.1616,-1.1316,-1.0965,-1.0269,-0.9361,-0.9666,-0.9413,-0.8804,-0.8804,-0.8374,-0.7616,-0.6858,-0.6588,-0.675,-2.0566,-2.0566,-2.0566,-2.0566,-2.0566,-2.0566,-2.0566,-2.0566,-2.0566,-2.0566,-2.0498,-2.0312,-1.9951,-2.0107,-1.9922,-1.9141,-1.874,-1.8379,-1.8037,-1.8134,-1.8202,-1.8202,-1.8202,-1.8202,-1.8202,-1.8076,-1.8462,-1.9299,-1.9299,-1.9299,-1.9299,-1.9299,-1.8844,-1.8008,-1.8008,-1.8008,-1.8008,-1.8008,-1.8008,-1.8008,-1.8008,-1.8008,-1.8008,-1.8008,-1.7793,-1.7539,-1.7881,-1.7793,-1.748,-1.7402,-1.7139,-1.6768,-1.6318,-1.6184,-1.5986,-1.5625,-1.5469,-1.541,-1.541,-1.541,-1.541,-1.541,-1.541,-1.5322,-1.4971,-1.4287,-1.3701,-1.3633,-1.3281,-1.2988,-1.2988,-1.293,-1.2881,-1.2881,-1.2881,-1.2881,-1.2881,-1.2881,-1.2881,-1.2881,-1.2774,-1.2452,-1.1864,-1.1715,-1.1416,-1.0864,-1.0813,-1.0813,-1.0813,-1.0813,-1.0813,-1.0813,-1.0813,-1.1065,-1.1616,-1.1765,-1.2129,-1.2715,-1.2822,-1.2881,-1.2881,-1.203,-1.1316,-1.0762,-1.0568,-0.9814,-0.8857,-0.9413,-0.9309,-0.8804,-0.8646,-0.8262,-0.7616,-0.6745,-0.648,-0.675,-2.0566,-2.0566,-2.0566,-2.0566,-2.0566,-2.0566,-2.0566,-2.0566,-2.0566,-2.0566,-2.0234,-1.998,-1.9922,-1.9307,-1.8701,-1.8223,-1.8135,-1.8076,-1.8018,-1.8721,-1.911,-1.911,-1.911,-1.911,-1.911,-1.8395,-1.8462,-1.9299,-1.9299,-1.9299,-1.9299,-1.9299,-1.8844,-1.8008,-1.8008,-1.8008,-1.8008,-1.8008,-1.8008,-1.8008,-1.8008,-1.8008,-1.8008,-1.8008,-1.7978,-1.793,-1.7988,-1.7978,-1.7871,-1.751,-1.7344,-1.7217,-1.6777,-1.6377,-1.6115,-1.5986,-1.5703,-1.541,-1.541,-1.541,-1.541,-1.541,-1.541,-1.54,-1.5342,-1.4951,-1.4502,-1.4121,-1.3711,-1.3418,-1.3418,-1.3125,-1.2881,-1.2881,-1.2881,-1.2881,-1.2881,-1.2881,-1.2881,-1.2881,-1.2344,-1.1922,-1.1814,-1.1266,-1.0914,-1.0813,-1.0813,-1.0813,-1.0813,-1.0813,-1.0813,-1.0813,-1.0813,-1.0864,-1.0914,-1.1516,-1.1864,-1.1972,-1.2608,-1.2881,-1.2881,-1.1534,-1.0864,-1.0762,-0.9562,-0.8962,-0.8811,-0.891,-0.8857,-0.8752,-0.8103,-0.7777,-0.7557,-0.614,-0.6036,-0.6642,-2.0566,-2.0566,-2.0566,-2.0566,-2.0566,-2.0566,-2.0566,-2.0566,-2.0566,-2.0566,-2.0185,-1.9824,-1.959,-1.8799,-1.8301,-1.8359,-1.8144,-1.8202,-1.8721,-1.911,-1.9497,-2.0009,-2.0009,-2.0009,-2.0009,-1.9177,-1.9177,-2.0009,-1.9562,-1.9299,-1.9299,-1.9299,-1.8844,-1.8008,-1.8008,-1.8008,-1.8008,-1.8008,-1.8008,-1.8008,-1.8008,-1.8008,-1.8008,-1.8008,-1.8008,-1.8008,-1.8008,-1.8008,-1.7978,-1.7793,-1.7734,-1.7656,-1.7236,-1.6963,-1.6709,-1.6262,-1.5928,-1.5723,-1.5478,-1.541,-1.541,-1.541,-1.541,-1.541,-1.541,-1.5264,-1.5019,-1.459,-1.416,-1.3789,-1.3555,-1.335,-1.3154,-1.292,-1.2881,-1.2881,-1.2881,-1.2881,-1.2774,-1.2344,-1.129,-1.046,-1.0112,-0.9438,-0.9037,-0.9065,-0.9065,-0.9228,-0.9658,-0.9666,-0.9666,-0.9666,-0.9666,-0.9865,-1.0269,-1.0914,-1.1416,-1.1814,-1.2871,-1.3248,-1.2871,-1.1832,-1.1366,-1.1266,-0.9969,-0.9361,-0.9316,-0.8956,-0.8804,-0.8752,-0.8427,-0.783,-0.6961,-0.5869,-0.5982,-0.6642]}]]